<?xml version="1.0" encoding="UTF-8" standalone="no" ?>
<gpx xmlns="http://www.topografix.com/GPX/1/1" xmlns:xsi="http://www.w3.org/2001/XMLSchema-instance" xsi:schemaLocation="http://www.topografix.com/GPX/1/1 http://www.topografix.com/GPX/1/1/gpx.xsd" version="1.1" creator="VisuGPX - https://www.visugpx.com">
  <metadata>
    <name>Tavernes - Bury - Les 3 croix</name>
    <desc><![CDATA[Au départ du hameau de Bury au dessus de Tavernes. Une boucle sans difficulté. Seule la descente après les 3 croix demande de l'attention.]]></desc>
  </metadata>
  <trk>
    <name><![CDATA[Tavernes - Bury]]></name>
    <extensions>
      <line xmlns="http://www.topografix.com/GPX/gpx_style/0/2">
        <color>ff0000</color>
        <opacity>1</opacity>
        <width>5</width>
      </line>
    </extensions>
    <trkseg>
      <trkpt lat="43.62596" lon="6.00992">
        <ele>527.9</ele>
        <time>2023-12-06T09:07:20Z</time>
      </trkpt>
      <trkpt lat="43.62595" lon="6.01001">
        <ele>527.7</ele>
        <time>2023-12-06T09:08:51Z</time>
      </trkpt>
      <trkpt lat="43.62595" lon="6.01013">
        <ele>527.7</ele>
        <time>2023-12-06T09:09:05Z</time>
      </trkpt>
      <trkpt lat="43.62594" lon="6.01024">
        <ele>527.8</ele>
        <time>2023-12-06T09:09:14Z</time>
      </trkpt>
      <trkpt lat="43.62594" lon="6.01028">
        <ele>527.8</ele>
        <time>2023-12-06T09:09:16.441Z</time>
      </trkpt>
      <trkpt lat="43.62593" lon="6.01037">
        <ele>528</ele>
        <time>2023-12-06T09:09:22Z</time>
      </trkpt>
      <trkpt lat="43.62591" lon="6.01049">
        <ele>528.2</ele>
        <time>2023-12-06T09:09:31Z</time>
      </trkpt>
      <trkpt lat="43.6259" lon="6.01056">
        <ele>528.3</ele>
        <time>2023-12-06T09:09:36.192Z</time>
      </trkpt>
      <trkpt lat="43.62588" lon="6.01062">
        <ele>528.5</ele>
        <time>2023-12-06T09:09:41Z</time>
      </trkpt>
      <trkpt lat="43.62587" lon="6.0107">
        <ele>528.7</ele>
        <time>2023-12-06T09:09:45.999Z</time>
      </trkpt>
      <trkpt lat="43.62586" lon="6.01078">
        <ele>528.8</ele>
        <time>2023-12-06T09:09:51Z</time>
      </trkpt>
      <trkpt lat="43.62585" lon="6.01083">
        <ele>528.9</ele>
        <time>2023-12-06T09:09:54.933Z</time>
      </trkpt>
      <trkpt lat="43.62585" lon="6.01091">
        <ele>528.9</ele>
        <time>2023-12-06T09:10:01Z</time>
      </trkpt>
      <trkpt lat="43.62584" lon="6.01098">
        <ele>529</ele>
        <time>2023-12-06T09:10:05.116Z</time>
      </trkpt>
      <trkpt lat="43.62582" lon="6.01106">
        <ele>529.1</ele>
        <time>2023-12-06T09:10:10Z</time>
      </trkpt>
      <trkpt lat="43.6258" lon="6.01113">
        <ele>529.4</ele>
        <time>2023-12-06T09:10:14.098Z</time>
      </trkpt>
      <trkpt lat="43.62578" lon="6.01119">
        <ele>529.6</ele>
        <time>2023-12-06T09:10:17.695Z</time>
      </trkpt>
      <trkpt lat="43.62577" lon="6.01123">
        <ele>529.8</ele>
        <time>2023-12-06T09:10:20Z</time>
      </trkpt>
      <trkpt lat="43.62576" lon="6.0113">
        <ele>530</ele>
        <time>2023-12-06T09:10:24.866Z</time>
      </trkpt>
      <trkpt lat="43.62574" lon="6.01137">
        <ele>530.3</ele>
        <time>2023-12-06T09:10:30Z</time>
      </trkpt>
      <trkpt lat="43.62571" lon="6.01143">
        <ele>531.1</ele>
        <time>2023-12-06T09:10:37.499Z</time>
      </trkpt>
      <trkpt lat="43.62568" lon="6.01149">
        <ele>531.9</ele>
        <time>2023-12-06T09:10:45Z</time>
      </trkpt>
      <trkpt lat="43.62574" lon="6.0115">
        <ele>531.3</ele>
        <time>2023-12-06T09:13:40Z</time>
      </trkpt>
      <trkpt lat="43.62578" lon="6.01156">
        <ele>531.4</ele>
        <time>2023-12-06T09:13:49Z</time>
      </trkpt>
      <trkpt lat="43.62579" lon="6.01165">
        <ele>532.1</ele>
        <time>2023-12-06T09:13:56.401Z</time>
      </trkpt>
      <trkpt lat="43.6258" lon="6.01173">
        <ele>532.5</ele>
        <time>2023-12-06T09:14:03Z</time>
      </trkpt>
      <trkpt lat="43.62584" lon="6.01183">
        <ele>532.5</ele>
        <time>2023-12-06T09:14:08.716Z</time>
      </trkpt>
      <trkpt lat="43.62588" lon="6.01192">
        <ele>532.4</ele>
        <time>2023-12-06T09:14:14Z</time>
      </trkpt>
      <trkpt lat="43.62593" lon="6.01197">
        <ele>532</ele>
        <time>2023-12-06T09:14:19.500Z</time>
      </trkpt>
      <trkpt lat="43.62598" lon="6.01202">
        <ele>531.7</ele>
        <time>2023-12-06T09:14:25Z</time>
      </trkpt>
      <trkpt lat="43.62601" lon="6.01209">
        <ele>531.7</ele>
        <time>2023-12-06T09:14:30.714Z</time>
      </trkpt>
      <trkpt lat="43.62603" lon="6.01216">
        <ele>531.7</ele>
        <time>2023-12-06T09:14:36Z</time>
      </trkpt>
      <trkpt lat="43.62606" lon="6.01224">
        <ele>531.6</ele>
        <time>2023-12-06T09:14:41.448Z</time>
      </trkpt>
      <trkpt lat="43.62608" lon="6.01231">
        <ele>531.6</ele>
        <time>2023-12-06T09:14:46Z</time>
      </trkpt>
      <trkpt lat="43.62609" lon="6.01238">
        <ele>531.8</ele>
        <time>2023-12-06T09:14:51.432Z</time>
      </trkpt>
      <trkpt lat="43.62609" lon="6.01244">
        <ele>532</ele>
        <time>2023-12-06T09:14:56Z</time>
      </trkpt>
      <trkpt lat="43.6261" lon="6.01252">
        <ele>532.1</ele>
        <time>2023-12-06T09:15:01.036Z</time>
      </trkpt>
      <trkpt lat="43.6261" lon="6.0126">
        <ele>532.1</ele>
        <time>2023-12-06T09:15:06Z</time>
      </trkpt>
      <trkpt lat="43.62611" lon="6.0127">
        <ele>532</ele>
        <time>2023-12-06T09:15:11.000Z</time>
      </trkpt>
      <trkpt lat="43.62612" lon="6.0128">
        <ele>531.9</ele>
        <time>2023-12-06T09:15:16Z</time>
      </trkpt>
      <trkpt lat="43.62615" lon="6.01288">
        <ele>531.7</ele>
        <time>2023-12-06T09:15:21.780Z</time>
      </trkpt>
      <trkpt lat="43.62618" lon="6.01295">
        <ele>531.5</ele>
        <time>2023-12-06T09:15:27Z</time>
      </trkpt>
      <trkpt lat="43.62618" lon="6.01303">
        <ele>531.5</ele>
        <time>2023-12-06T09:15:32.866Z</time>
      </trkpt>
      <trkpt lat="43.62618" lon="6.0131">
        <ele>531.6</ele>
        <time>2023-12-06T09:15:38Z</time>
      </trkpt>
      <trkpt lat="43.62618" lon="6.01318">
        <ele>531.9</ele>
        <time>2023-12-06T09:15:42.963Z</time>
      </trkpt>
      <trkpt lat="43.62617" lon="6.01326">
        <ele>532.2</ele>
        <time>2023-12-06T09:15:48Z</time>
      </trkpt>
      <trkpt lat="43.62616" lon="6.01335">
        <ele>532.5</ele>
        <time>2023-12-06T09:15:52.757Z</time>
      </trkpt>
      <trkpt lat="43.62615" lon="6.01343">
        <ele>532.6</ele>
        <time>2023-12-06T09:15:57Z</time>
      </trkpt>
      <trkpt lat="43.62615" lon="6.01351">
        <ele>532.7</ele>
        <time>2023-12-06T09:16:02.814Z</time>
      </trkpt>
      <trkpt lat="43.62614" lon="6.01358">
        <ele>532.8</ele>
        <time>2023-12-06T09:16:08Z</time>
      </trkpt>
      <trkpt lat="43.62613" lon="6.01365">
        <ele>532.8</ele>
        <time>2023-12-06T09:16:14.978Z</time>
      </trkpt>
      <trkpt lat="43.62612" lon="6.01371">
        <ele>532.6</ele>
        <time>2023-12-06T09:16:21Z</time>
      </trkpt>
      <trkpt lat="43.6261" lon="6.01379">
        <ele>532.5</ele>
        <time>2023-12-06T09:16:28.410Z</time>
      </trkpt>
      <trkpt lat="43.62608" lon="6.01386">
        <ele>532.5</ele>
        <time>2023-12-06T09:16:35Z</time>
      </trkpt>
      <trkpt lat="43.62605" lon="6.01393">
        <ele>533</ele>
        <time>2023-12-06T09:16:39.293Z</time>
      </trkpt>
      <trkpt lat="43.62601" lon="6.014">
        <ele>533.5</ele>
        <time>2023-12-06T09:16:44Z</time>
      </trkpt>
      <trkpt lat="43.62599" lon="6.01407">
        <ele>533.7</ele>
        <time>2023-12-06T09:16:48.999Z</time>
      </trkpt>
      <trkpt lat="43.62597" lon="6.01414">
        <ele>534</ele>
        <time>2023-12-06T09:16:54Z</time>
      </trkpt>
      <trkpt lat="43.62596" lon="6.0142">
        <ele>534.2</ele>
        <time>2023-12-06T09:17:00.271Z</time>
      </trkpt>
      <trkpt lat="43.62594" lon="6.01426">
        <ele>534.3</ele>
        <time>2023-12-06T09:17:07Z</time>
      </trkpt>
      <trkpt lat="43.62591" lon="6.01433">
        <ele>534.5</ele>
        <time>2023-12-06T09:17:14.632Z</time>
      </trkpt>
      <trkpt lat="43.62587" lon="6.0144">
        <ele>534.7</ele>
        <time>2023-12-06T09:17:23Z</time>
      </trkpt>
      <trkpt lat="43.62582" lon="6.01444">
        <ele>535.2</ele>
        <time>2023-12-06T09:17:28.999Z</time>
      </trkpt>
      <trkpt lat="43.62577" lon="6.01448">
        <ele>535.7</ele>
        <time>2023-12-06T09:17:35Z</time>
      </trkpt>
      <trkpt lat="43.62572" lon="6.01453">
        <ele>536.2</ele>
        <time>2023-12-06T09:17:40.999Z</time>
      </trkpt>
      <trkpt lat="43.62567" lon="6.01458">
        <ele>536.8</ele>
        <time>2023-12-06T09:17:47Z</time>
      </trkpt>
      <trkpt lat="43.62562" lon="6.01463">
        <ele>537.4</ele>
        <time>2023-12-06T09:17:52.151Z</time>
      </trkpt>
      <trkpt lat="43.62556" lon="6.01468">
        <ele>538</ele>
        <time>2023-12-06T09:17:58Z</time>
      </trkpt>
      <trkpt lat="43.62553" lon="6.01473">
        <ele>538.2</ele>
        <time>2023-12-06T09:18:03.499Z</time>
      </trkpt>
      <trkpt lat="43.6255" lon="6.01478">
        <ele>538.2</ele>
        <time>2023-12-06T09:18:09Z</time>
      </trkpt>
      <trkpt lat="43.62547" lon="6.01484">
        <ele>538.4</ele>
        <time>2023-12-06T09:18:13.720Z</time>
      </trkpt>
      <trkpt lat="43.62543" lon="6.0149">
        <ele>538.6</ele>
        <time>2023-12-06T09:18:19Z</time>
      </trkpt>
      <trkpt lat="43.6254" lon="6.01496">
        <ele>538.7</ele>
        <time>2023-12-06T09:18:24.999Z</time>
      </trkpt>
      <trkpt lat="43.62537" lon="6.01502">
        <ele>539</ele>
        <time>2023-12-06T09:18:31Z</time>
      </trkpt>
      <trkpt lat="43.62533" lon="6.01509">
        <ele>539.4</ele>
        <time>2023-12-06T09:18:37.789Z</time>
      </trkpt>
      <trkpt lat="43.62529" lon="6.01515">
        <ele>539.9</ele>
        <time>2023-12-06T09:18:44Z</time>
      </trkpt>
      <trkpt lat="43.62526" lon="6.01522">
        <ele>540.2</ele>
        <time>2023-12-06T09:18:48.770Z</time>
      </trkpt>
      <trkpt lat="43.62522" lon="6.01529">
        <ele>540.6</ele>
        <time>2023-12-06T09:18:54Z</time>
      </trkpt>
      <trkpt lat="43.62519" lon="6.01535">
        <ele>540.7</ele>
        <time>2023-12-06T09:18:58.999Z</time>
      </trkpt>
      <trkpt lat="43.62516" lon="6.01541">
        <ele>540.8</ele>
        <time>2023-12-06T09:19:04Z</time>
      </trkpt>
      <trkpt lat="43.62514" lon="6.01547">
        <ele>540.8</ele>
        <time>2023-12-06T09:19:08.999Z</time>
      </trkpt>
      <trkpt lat="43.62512" lon="6.01553">
        <ele>540.8</ele>
        <time>2023-12-06T09:19:14Z</time>
      </trkpt>
      <trkpt lat="43.62509" lon="6.01559">
        <ele>541.1</ele>
        <time>2023-12-06T09:19:18.720Z</time>
      </trkpt>
      <trkpt lat="43.62505" lon="6.01565">
        <ele>541.5</ele>
        <time>2023-12-06T09:19:24Z</time>
      </trkpt>
      <trkpt lat="43.62503" lon="6.01572">
        <ele>541.7</ele>
        <time>2023-12-06T09:19:28.805Z</time>
      </trkpt>
      <trkpt lat="43.625" lon="6.01579">
        <ele>542</ele>
        <time>2023-12-06T09:19:34Z</time>
      </trkpt>
      <trkpt lat="43.62497" lon="6.01585">
        <ele>542.2</ele>
        <time>2023-12-06T09:19:38.720Z</time>
      </trkpt>
      <trkpt lat="43.62493" lon="6.01591">
        <ele>542.3</ele>
        <time>2023-12-06T09:19:44Z</time>
      </trkpt>
      <trkpt lat="43.62489" lon="6.01596">
        <ele>542.6</ele>
        <time>2023-12-06T09:19:49.311Z</time>
      </trkpt>
      <trkpt lat="43.62484" lon="6.016">
        <ele>542.9</ele>
        <time>2023-12-06T09:19:55Z</time>
      </trkpt>
      <trkpt lat="43.6248" lon="6.01603">
        <ele>543.2</ele>
        <time>2023-12-06T09:19:59.499Z</time>
      </trkpt>
      <trkpt lat="43.62476" lon="6.01606">
        <ele>543.6</ele>
        <time>2023-12-06T09:20:04Z</time>
      </trkpt>
      <trkpt lat="43.62473" lon="6.01611">
        <ele>543.9</ele>
        <time>2023-12-06T09:20:08.499Z</time>
      </trkpt>
      <trkpt lat="43.6247" lon="6.01616">
        <ele>543.9</ele>
        <time>2023-12-06T09:20:13Z</time>
      </trkpt>
      <trkpt lat="43.62466" lon="6.01621">
        <ele>543.9</ele>
        <time>2023-12-06T09:20:17.197Z</time>
      </trkpt>
      <trkpt lat="43.62461" lon="6.01626">
        <ele>543.9</ele>
        <time>2023-12-06T09:20:22Z</time>
      </trkpt>
      <trkpt lat="43.62458" lon="6.01632">
        <ele>543.8</ele>
        <time>2023-12-06T09:20:27.440Z</time>
      </trkpt>
      <trkpt lat="43.62454" lon="6.01637">
        <ele>543.7</ele>
        <time>2023-12-06T09:20:33Z</time>
      </trkpt>
      <trkpt lat="43.62449" lon="6.0164">
        <ele>543.8</ele>
        <time>2023-12-06T09:20:48.857Z</time>
      </trkpt>
      <trkpt lat="43.62444" lon="6.01642">
        <ele>544</ele>
        <time>2023-12-06T09:21:04Z</time>
      </trkpt>
      <trkpt lat="43.62439" lon="6.01641">
        <ele>544.4</ele>
        <time>2023-12-06T09:21:09.851Z</time>
      </trkpt>
      <trkpt lat="43.62433" lon="6.01639">
        <ele>544.8</ele>
        <time>2023-12-06T09:21:17Z</time>
      </trkpt>
      <trkpt lat="43.62429" lon="6.01644">
        <ele>545</ele>
        <time>2023-12-06T09:21:23.265Z</time>
      </trkpt>
      <trkpt lat="43.62425" lon="6.01648">
        <ele>545.2</ele>
        <time>2023-12-06T09:21:29Z</time>
      </trkpt>
      <trkpt lat="43.62425" lon="6.01656">
        <ele>545</ele>
        <time>2023-12-06T09:21:33.466Z</time>
      </trkpt>
      <trkpt lat="43.62424" lon="6.01664">
        <ele>544.8</ele>
        <time>2023-12-06T09:21:38Z</time>
      </trkpt>
      <trkpt lat="43.62424" lon="6.01672">
        <ele>544.6</ele>
        <time>2023-12-06T09:21:42.800Z</time>
      </trkpt>
      <trkpt lat="43.62424" lon="6.01679">
        <ele>544.3</ele>
        <time>2023-12-06T09:21:47Z</time>
      </trkpt>
      <trkpt lat="43.62423" lon="6.0169">
        <ele>543.9</ele>
        <time>2023-12-06T09:21:59Z</time>
      </trkpt>
      <trkpt lat="43.62425" lon="6.01696">
        <ele>543.7</ele>
        <time>2023-12-06T09:22:09.000Z</time>
      </trkpt>
      <trkpt lat="43.62427" lon="6.01702">
        <ele>543.5</ele>
        <time>2023-12-06T09:22:19Z</time>
      </trkpt>
      <trkpt lat="43.62428" lon="6.01713">
        <ele>543.3</ele>
        <time>2023-12-06T09:22:27Z</time>
      </trkpt>
      <trkpt lat="43.62429" lon="6.0172">
        <ele>543.2</ele>
        <time>2023-12-06T09:22:32.367Z</time>
      </trkpt>
      <trkpt lat="43.6243" lon="6.01726">
        <ele>543</ele>
        <time>2023-12-06T09:22:37Z</time>
      </trkpt>
      <trkpt lat="43.62432" lon="6.01733">
        <ele>542.8</ele>
        <time>2023-12-06T09:22:41.400Z</time>
      </trkpt>
      <trkpt lat="43.62433" lon="6.01739">
        <ele>542.6</ele>
        <time>2023-12-06T09:22:45Z</time>
      </trkpt>
      <trkpt lat="43.62434" lon="6.01747">
        <ele>542.4</ele>
        <time>2023-12-06T09:22:49.295Z</time>
      </trkpt>
      <trkpt lat="43.62434" lon="6.01754">
        <ele>542.2</ele>
        <time>2023-12-06T09:22:53Z</time>
      </trkpt>
      <trkpt lat="43.62435" lon="6.01766">
        <ele>541.8</ele>
        <time>2023-12-06T09:23:03Z</time>
      </trkpt>
      <trkpt lat="43.62438" lon="6.01772">
        <ele>541.4</ele>
        <time>2023-12-06T09:23:07.500Z</time>
      </trkpt>
      <trkpt lat="43.62441" lon="6.01778">
        <ele>541.1</ele>
        <time>2023-12-06T09:23:12Z</time>
      </trkpt>
      <trkpt lat="43.6244" lon="6.01785">
        <ele>541.2</ele>
        <time>2023-12-06T09:23:20.499Z</time>
      </trkpt>
      <trkpt lat="43.62439" lon="6.01792">
        <ele>541.2</ele>
        <time>2023-12-06T09:23:29Z</time>
      </trkpt>
      <trkpt lat="43.62435" lon="6.01798">
        <ele>541.3</ele>
        <time>2023-12-06T09:23:33.703Z</time>
      </trkpt>
      <trkpt lat="43.62431" lon="6.01803">
        <ele>541.5</ele>
        <time>2023-12-06T09:23:38Z</time>
      </trkpt>
      <trkpt lat="43.62426" lon="6.01808">
        <ele>541.6</ele>
        <time>2023-12-06T09:23:42.999Z</time>
      </trkpt>
      <trkpt lat="43.62421" lon="6.01813">
        <ele>541.6</ele>
        <time>2023-12-06T09:23:48Z</time>
      </trkpt>
      <trkpt lat="43.6242" lon="6.0182">
        <ele>541.4</ele>
        <time>2023-12-06T09:23:57.866Z</time>
      </trkpt>
      <trkpt lat="43.62418" lon="6.01826">
        <ele>541.2</ele>
        <time>2023-12-06T09:24:07Z</time>
      </trkpt>
      <trkpt lat="43.62414" lon="6.01833">
        <ele>541.1</ele>
        <time>2023-12-06T09:24:13.182Z</time>
      </trkpt>
      <trkpt lat="43.62409" lon="6.0184">
        <ele>541.2</ele>
        <time>2023-12-06T09:24:20Z</time>
      </trkpt>
      <trkpt lat="43.62404" lon="6.01849">
        <ele>541.2</ele>
        <time>2023-12-06T09:24:24.330Z</time>
      </trkpt>
      <trkpt lat="43.62398" lon="6.01858">
        <ele>541.1</ele>
        <time>2023-12-06T09:24:29Z</time>
      </trkpt>
      <trkpt lat="43.62395" lon="6.01865">
        <ele>541</ele>
        <time>2023-12-06T09:24:33.770Z</time>
      </trkpt>
      <trkpt lat="43.62391" lon="6.01872">
        <ele>541</ele>
        <time>2023-12-06T09:24:39Z</time>
      </trkpt>
      <trkpt lat="43.62387" lon="6.01879">
        <ele>541</ele>
        <time>2023-12-06T09:24:44.745Z</time>
      </trkpt>
      <trkpt lat="43.62383" lon="6.01885">
        <ele>541</ele>
        <time>2023-12-06T09:24:50Z</time>
      </trkpt>
      <trkpt lat="43.62377" lon="6.01892">
        <ele>540.9</ele>
        <time>2023-12-06T09:24:55.237Z</time>
      </trkpt>
      <trkpt lat="43.6237" lon="6.01899">
        <ele>540.9</ele>
        <time>2023-12-06T09:25:01Z</time>
      </trkpt>
      <trkpt lat="43.62364" lon="6.01902">
        <ele>541</ele>
        <time>2023-12-06T09:25:06.119Z</time>
      </trkpt>
      <trkpt lat="43.62357" lon="6.01905">
        <ele>541.1</ele>
        <time>2023-12-06T09:25:12Z</time>
      </trkpt>
      <trkpt lat="43.62352" lon="6.01907">
        <ele>541.1</ele>
        <time>2023-12-06T09:25:15.999Z</time>
      </trkpt>
      <trkpt lat="43.62347" lon="6.01909">
        <ele>541.1</ele>
        <time>2023-12-06T09:25:20Z</time>
      </trkpt>
      <trkpt lat="43.62343" lon="6.01912">
        <ele>541.1</ele>
        <time>2023-12-06T09:25:24.198Z</time>
      </trkpt>
      <trkpt lat="43.62338" lon="6.01914">
        <ele>541.1</ele>
        <time>2023-12-06T09:25:29Z</time>
      </trkpt>
      <trkpt lat="43.62333" lon="6.01917">
        <ele>541</ele>
        <time>2023-12-06T09:25:43Z</time>
      </trkpt>
      <trkpt lat="43.62326" lon="6.0192">
        <ele>541.1</ele>
        <time>2023-12-06T09:26:07Z</time>
      </trkpt>
      <trkpt lat="43.62321" lon="6.01921">
        <ele>541.3</ele>
        <time>2023-12-06T09:26:11.097Z</time>
      </trkpt>
      <trkpt lat="43.62315" lon="6.01922">
        <ele>541.5</ele>
        <time>2023-12-06T09:26:16Z</time>
      </trkpt>
      <trkpt lat="43.62311" lon="6.01924">
        <ele>541.6</ele>
        <time>2023-12-06T09:26:20.114Z</time>
      </trkpt>
      <trkpt lat="43.62306" lon="6.01925">
        <ele>541.7</ele>
        <time>2023-12-06T09:26:25Z</time>
      </trkpt>
      <trkpt lat="43.62302" lon="6.01932">
        <ele>541.4</ele>
        <time>2023-12-06T09:26:30.231Z</time>
      </trkpt>
      <trkpt lat="43.62297" lon="6.01939">
        <ele>541.1</ele>
        <time>2023-12-06T09:26:36Z</time>
      </trkpt>
      <trkpt lat="43.62294" lon="6.01945">
        <ele>541</ele>
        <time>2023-12-06T09:26:41.440Z</time>
      </trkpt>
      <trkpt lat="43.6229" lon="6.0195">
        <ele>541</ele>
        <time>2023-12-06T09:26:47Z</time>
      </trkpt>
      <trkpt lat="43.62288" lon="6.01958">
        <ele>541</ele>
        <time>2023-12-06T09:26:53.352Z</time>
      </trkpt>
      <trkpt lat="43.62286" lon="6.01965">
        <ele>541</ele>
        <time>2023-12-06T09:26:59Z</time>
      </trkpt>
      <trkpt lat="43.62285" lon="6.01974">
        <ele>541</ele>
        <time>2023-12-06T09:27:04.999Z</time>
      </trkpt>
      <trkpt lat="43.62284" lon="6.01983">
        <ele>541</ele>
        <time>2023-12-06T09:27:11Z</time>
      </trkpt>
      <trkpt lat="43.62283" lon="6.01991">
        <ele>541</ele>
        <time>2023-12-06T09:27:15.499Z</time>
      </trkpt>
      <trkpt lat="43.62282" lon="6.01999">
        <ele>541</ele>
        <time>2023-12-06T09:27:20Z</time>
      </trkpt>
      <trkpt lat="43.62282" lon="6.02006">
        <ele>541.2</ele>
        <time>2023-12-06T09:27:25.447Z</time>
      </trkpt>
      <trkpt lat="43.62281" lon="6.02013">
        <ele>541.5</ele>
        <time>2023-12-06T09:27:31Z</time>
      </trkpt>
      <trkpt lat="43.62274" lon="6.02018">
        <ele>541.6</ele>
        <time>2023-12-06T09:27:57Z</time>
      </trkpt>
      <trkpt lat="43.62267" lon="6.0202">
        <ele>541.4</ele>
        <time>2023-12-06T09:28:35Z</time>
      </trkpt>
      <trkpt lat="43.62266" lon="6.02023">
        <ele>541.5</ele>
        <time>2023-12-06T09:29:25Z</time>
      </trkpt>
      <trkpt lat="43.62264" lon="6.0203">
        <ele>541.5</ele>
        <time>2023-12-06T09:29:30.499Z</time>
      </trkpt>
      <trkpt lat="43.62262" lon="6.02037">
        <ele>541.2</ele>
        <time>2023-12-06T09:29:36Z</time>
      </trkpt>
      <trkpt lat="43.6226" lon="6.02045">
        <ele>540.9</ele>
        <time>2023-12-06T09:29:41.099Z</time>
      </trkpt>
      <trkpt lat="43.62257" lon="6.02052">
        <ele>540.6</ele>
        <time>2023-12-06T09:29:46Z</time>
      </trkpt>
      <trkpt lat="43.62255" lon="6.0206">
        <ele>540.6</ele>
        <time>2023-12-06T09:29:50.764Z</time>
      </trkpt>
      <trkpt lat="43.62253" lon="6.02067">
        <ele>541</ele>
        <time>2023-12-06T09:29:55Z</time>
      </trkpt>
      <trkpt lat="43.62251" lon="6.02074">
        <ele>541.4</ele>
        <time>2023-12-06T09:29:59.999Z</time>
      </trkpt>
      <trkpt lat="43.62249" lon="6.02081">
        <ele>541.8</ele>
        <time>2023-12-06T09:30:05Z</time>
      </trkpt>
      <trkpt lat="43.62246" lon="6.02087">
        <ele>541.8</ele>
        <time>2023-12-06T09:30:09.945Z</time>
      </trkpt>
      <trkpt lat="43.62242" lon="6.02092">
        <ele>541.7</ele>
        <time>2023-12-06T09:30:15Z</time>
      </trkpt>
      <trkpt lat="43.62237" lon="6.02095">
        <ele>541.5</ele>
        <time>2023-12-06T09:30:19.499Z</time>
      </trkpt>
      <trkpt lat="43.62232" lon="6.02098">
        <ele>541.2</ele>
        <time>2023-12-06T09:30:24Z</time>
      </trkpt>
      <trkpt lat="43.62227" lon="6.02101">
        <ele>541</ele>
        <time>2023-12-06T09:30:28.603Z</time>
      </trkpt>
      <trkpt lat="43.62222" lon="6.02103">
        <ele>540.7</ele>
        <time>2023-12-06T09:30:33Z</time>
      </trkpt>
      <trkpt lat="43.62217" lon="6.02105">
        <ele>540.6</ele>
        <time>2023-12-06T09:30:36.999Z</time>
      </trkpt>
      <trkpt lat="43.62212" lon="6.02107">
        <ele>540.5</ele>
        <time>2023-12-06T09:30:41Z</time>
      </trkpt>
      <trkpt lat="43.62208" lon="6.02109">
        <ele>540.4</ele>
        <time>2023-12-06T09:30:44.597Z</time>
      </trkpt>
      <trkpt lat="43.62203" lon="6.02111">
        <ele>540.3</ele>
        <time>2023-12-06T09:30:49Z</time>
      </trkpt>
      <trkpt lat="43.62198" lon="6.02112">
        <ele>540.2</ele>
        <time>2023-12-06T09:30:53.500Z</time>
      </trkpt>
      <trkpt lat="43.62193" lon="6.02113">
        <ele>540</ele>
        <time>2023-12-06T09:30:58Z</time>
      </trkpt>
      <trkpt lat="43.62188" lon="6.02116">
        <ele>539.9</ele>
        <time>2023-12-06T09:31:01.999Z</time>
      </trkpt>
      <trkpt lat="43.62183" lon="6.02119">
        <ele>539.8</ele>
        <time>2023-12-06T09:31:06Z</time>
      </trkpt>
      <trkpt lat="43.62179" lon="6.02122">
        <ele>539.6</ele>
        <time>2023-12-06T09:31:10.550Z</time>
      </trkpt>
      <trkpt lat="43.62174" lon="6.02125">
        <ele>539.4</ele>
        <time>2023-12-06T09:31:16Z</time>
      </trkpt>
      <trkpt lat="43.62169" lon="6.02129">
        <ele>539.1</ele>
        <time>2023-12-06T09:31:21.145Z</time>
      </trkpt>
      <trkpt lat="43.62164" lon="6.02132">
        <ele>538.9</ele>
        <time>2023-12-06T09:31:26Z</time>
      </trkpt>
      <trkpt lat="43.62159" lon="6.02134">
        <ele>538.6</ele>
        <time>2023-12-06T09:31:30.164Z</time>
      </trkpt>
      <trkpt lat="43.62153" lon="6.02135">
        <ele>538.4</ele>
        <time>2023-12-06T09:31:35Z</time>
      </trkpt>
      <trkpt lat="43.62148" lon="6.0214">
        <ele>538.3</ele>
        <time>2023-12-06T09:31:39.809Z</time>
      </trkpt>
      <trkpt lat="43.62142" lon="6.02144">
        <ele>538.3</ele>
        <time>2023-12-06T09:31:45Z</time>
      </trkpt>
      <trkpt lat="43.62138" lon="6.0215">
        <ele>538.4</ele>
        <time>2023-12-06T09:31:49.999Z</time>
      </trkpt>
      <trkpt lat="43.62134" lon="6.02156">
        <ele>538.4</ele>
        <time>2023-12-06T09:31:55Z</time>
      </trkpt>
      <trkpt lat="43.62131" lon="6.02161">
        <ele>538.5</ele>
        <time>2023-12-06T09:31:59.877Z</time>
      </trkpt>
      <trkpt lat="43.62127" lon="6.02165">
        <ele>538.5</ele>
        <time>2023-12-06T09:32:05Z</time>
      </trkpt>
      <trkpt lat="43.62125" lon="6.02172">
        <ele>538.7</ele>
        <time>2023-12-06T09:32:10.078Z</time>
      </trkpt>
      <trkpt lat="43.62122" lon="6.02178">
        <ele>538.8</ele>
        <time>2023-12-06T09:32:15Z</time>
      </trkpt>
      <trkpt lat="43.6212" lon="6.02185">
        <ele>539</ele>
        <time>2023-12-06T09:32:20.286Z</time>
      </trkpt>
      <trkpt lat="43.62117" lon="6.02192">
        <ele>539.1</ele>
        <time>2023-12-06T09:32:26Z</time>
      </trkpt>
      <trkpt lat="43.62115" lon="6.022">
        <ele>539.3</ele>
        <time>2023-12-06T09:32:35.178Z</time>
      </trkpt>
      <trkpt lat="43.62112" lon="6.02207">
        <ele>539.5</ele>
        <time>2023-12-06T09:32:44Z</time>
      </trkpt>
      <trkpt lat="43.62108" lon="6.02211">
        <ele>539.3</ele>
        <time>2023-12-06T09:32:49.990Z</time>
      </trkpt>
      <trkpt lat="43.62103" lon="6.02215">
        <ele>539.2</ele>
        <time>2023-12-06T09:32:57Z</time>
      </trkpt>
      <trkpt lat="43.62098" lon="6.02218">
        <ele>538.9</ele>
        <time>2023-12-06T09:33:03.138Z</time>
      </trkpt>
      <trkpt lat="43.62093" lon="6.0222">
        <ele>538.6</ele>
        <time>2023-12-06T09:33:09Z</time>
      </trkpt>
      <trkpt lat="43.62088" lon="6.0223">
        <ele>538.6</ele>
        <time>2023-12-06T09:33:29Z</time>
      </trkpt>
      <trkpt lat="43.62085" lon="6.02236">
        <ele>538.6</ele>
        <time>2023-12-06T09:33:33.760Z</time>
      </trkpt>
      <trkpt lat="43.62082" lon="6.02241">
        <ele>538.6</ele>
        <time>2023-12-06T09:33:38Z</time>
      </trkpt>
      <trkpt lat="43.62079" lon="6.02248">
        <ele>538.8</ele>
        <time>2023-12-06T09:33:42.770Z</time>
      </trkpt>
      <trkpt lat="43.62075" lon="6.02255">
        <ele>538.8</ele>
        <time>2023-12-06T09:33:48Z</time>
      </trkpt>
      <trkpt lat="43.62071" lon="6.0226">
        <ele>538.7</ele>
        <time>2023-12-06T09:33:52.197Z</time>
      </trkpt>
      <trkpt lat="43.62066" lon="6.02265">
        <ele>538.6</ele>
        <time>2023-12-06T09:33:57Z</time>
      </trkpt>
      <trkpt lat="43.62062" lon="6.02268">
        <ele>538.3</ele>
        <time>2023-12-06T09:34:01.198Z</time>
      </trkpt>
      <trkpt lat="43.62057" lon="6.0227">
        <ele>538.1</ele>
        <time>2023-12-06T09:34:06Z</time>
      </trkpt>
      <trkpt lat="43.62053" lon="6.02275">
        <ele>538</ele>
        <time>2023-12-06T09:34:10.345Z</time>
      </trkpt>
      <trkpt lat="43.62048" lon="6.02279">
        <ele>538</ele>
        <time>2023-12-06T09:34:15Z</time>
      </trkpt>
      <trkpt lat="43.62045" lon="6.02285">
        <ele>538.2</ele>
        <time>2023-12-06T09:34:18.999Z</time>
      </trkpt>
      <trkpt lat="43.62042" lon="6.02291">
        <ele>538.2</ele>
        <time>2023-12-06T09:34:23Z</time>
      </trkpt>
      <trkpt lat="43.62038" lon="6.02296">
        <ele>538.2</ele>
        <time>2023-12-06T09:34:27.197Z</time>
      </trkpt>
      <trkpt lat="43.62033" lon="6.02301">
        <ele>538.2</ele>
        <time>2023-12-06T09:34:32Z</time>
      </trkpt>
      <trkpt lat="43.62029" lon="6.02305">
        <ele>538</ele>
        <time>2023-12-06T09:34:35.802Z</time>
      </trkpt>
      <trkpt lat="43.62024" lon="6.02308">
        <ele>538.1</ele>
        <time>2023-12-06T09:34:40Z</time>
      </trkpt>
      <trkpt lat="43.62019" lon="6.02311">
        <ele>538.2</ele>
        <time>2023-12-06T09:34:43.999Z</time>
      </trkpt>
      <trkpt lat="43.62014" lon="6.02314">
        <ele>538.3</ele>
        <time>2023-12-06T09:34:48Z</time>
      </trkpt>
      <trkpt lat="43.62009" lon="6.02314">
        <ele>538.3</ele>
        <time>2023-12-06T09:34:51.636Z</time>
      </trkpt>
      <trkpt lat="43.62003" lon="6.02314">
        <ele>538.3</ele>
        <time>2023-12-06T09:34:56Z</time>
      </trkpt>
      <trkpt lat="43.61999" lon="6.02316">
        <ele>538.3</ele>
        <time>2023-12-06T09:35:00.114Z</time>
      </trkpt>
      <trkpt lat="43.61994" lon="6.02317">
        <ele>538.2</ele>
        <time>2023-12-06T09:35:05Z</time>
      </trkpt>
      <trkpt lat="43.61991" lon="6.02323">
        <ele>538.3</ele>
        <time>2023-12-06T09:35:09.499Z</time>
      </trkpt>
      <trkpt lat="43.61988" lon="6.02329">
        <ele>538.4</ele>
        <time>2023-12-06T09:35:14Z</time>
      </trkpt>
      <trkpt lat="43.61986" lon="6.02337">
        <ele>538.5</ele>
        <time>2023-12-06T09:35:20.118Z</time>
      </trkpt>
      <trkpt lat="43.61983" lon="6.02344">
        <ele>538.4</ele>
        <time>2023-12-06T09:35:26Z</time>
      </trkpt>
      <trkpt lat="43.61981" lon="6.02351">
        <ele>538.3</ele>
        <time>2023-12-06T09:35:30.999Z</time>
      </trkpt>
      <trkpt lat="43.61979" lon="6.02358">
        <ele>538.2</ele>
        <time>2023-12-06T09:35:36Z</time>
      </trkpt>
      <trkpt lat="43.61976" lon="6.02367">
        <ele>538.3</ele>
        <time>2023-12-06T09:35:41.551Z</time>
      </trkpt>
      <trkpt lat="43.61972" lon="6.02375">
        <ele>538.5</ele>
        <time>2023-12-06T09:35:47Z</time>
      </trkpt>
      <trkpt lat="43.61969" lon="6.02383">
        <ele>538.7</ele>
        <time>2023-12-06T09:35:51.999Z</time>
      </trkpt>
      <trkpt lat="43.61966" lon="6.02391">
        <ele>538.8</ele>
        <time>2023-12-06T09:35:57Z</time>
      </trkpt>
      <trkpt lat="43.61963" lon="6.02398">
        <ele>538.8</ele>
        <time>2023-12-06T09:36:01.493Z</time>
      </trkpt>
      <trkpt lat="43.61959" lon="6.02404">
        <ele>538.8</ele>
        <time>2023-12-06T09:36:06Z</time>
      </trkpt>
      <trkpt lat="43.61957" lon="6.0241">
        <ele>538.9</ele>
        <time>2023-12-06T09:36:09.802Z</time>
      </trkpt>
      <trkpt lat="43.61954" lon="6.02416">
        <ele>539</ele>
        <time>2023-12-06T09:36:14Z</time>
      </trkpt>
      <trkpt lat="43.61952" lon="6.02422">
        <ele>539.2</ele>
        <time>2023-12-06T09:36:17.529Z</time>
      </trkpt>
      <trkpt lat="43.61949" lon="6.02427">
        <ele>539.4</ele>
        <time>2023-12-06T09:36:21Z</time>
      </trkpt>
      <trkpt lat="43.61946" lon="6.02433">
        <ele>539.6</ele>
        <time>2023-12-06T09:36:24.499Z</time>
      </trkpt>
      <trkpt lat="43.61943" lon="6.02439">
        <ele>539.8</ele>
        <time>2023-12-06T09:36:28Z</time>
      </trkpt>
      <trkpt lat="43.61937" lon="6.02447">
        <ele>540.1</ele>
        <time>2023-12-06T09:36:34Z</time>
      </trkpt>
      <trkpt lat="43.61934" lon="6.02451">
        <ele>540.2</ele>
        <time>2023-12-06T09:36:36.746Z</time>
      </trkpt>
      <trkpt lat="43.6193" lon="6.02455">
        <ele>540.4</ele>
        <time>2023-12-06T09:36:40Z</time>
      </trkpt>
      <trkpt lat="43.61927" lon="6.0246">
        <ele>540.6</ele>
        <time>2023-12-06T09:36:42.999Z</time>
      </trkpt>
      <trkpt lat="43.61924" lon="6.02465">
        <ele>540.7</ele>
        <time>2023-12-06T09:36:46Z</time>
      </trkpt>
      <trkpt lat="43.61919" lon="6.02474">
        <ele>541</ele>
        <time>2023-12-06T09:36:52Z</time>
      </trkpt>
      <trkpt lat="43.61916" lon="6.02482">
        <ele>541</ele>
        <time>2023-12-06T09:36:58Z</time>
      </trkpt>
      <trkpt lat="43.61914" lon="6.02492">
        <ele>541</ele>
        <time>2023-12-06T09:37:04Z</time>
      </trkpt>
      <trkpt lat="43.61912" lon="6.02503">
        <ele>541.1</ele>
        <time>2023-12-06T09:37:11.035Z</time>
      </trkpt>
      <trkpt lat="43.6191" lon="6.02515">
        <ele>541.4</ele>
        <time>2023-12-06T09:37:18.673Z</time>
      </trkpt>
      <trkpt lat="43.61907" lon="6.02526">
        <ele>541.6</ele>
        <time>2023-12-06T09:37:25.964Z</time>
      </trkpt>
      <trkpt lat="43.61905" lon="6.02537">
        <ele>541.7</ele>
        <time>2023-12-06T09:37:33Z</time>
      </trkpt>
      <trkpt lat="43.61903" lon="6.02548">
        <ele>541.9</ele>
        <time>2023-12-06T09:37:44Z</time>
      </trkpt>
      <trkpt lat="43.61898" lon="6.02549">
        <ele>541.8</ele>
        <time>2023-12-06T09:37:48.097Z</time>
      </trkpt>
      <trkpt lat="43.61892" lon="6.0255">
        <ele>541.8</ele>
        <time>2023-12-06T09:37:53Z</time>
      </trkpt>
      <trkpt lat="43.61888" lon="6.02547">
        <ele>541.6</ele>
        <time>2023-12-06T09:38:08.543Z</time>
      </trkpt>
      <trkpt lat="43.61883" lon="6.02544">
        <ele>541.5</ele>
        <time>2023-12-06T09:38:27.158Z</time>
      </trkpt>
      <trkpt lat="43.61879" lon="6.0254">
        <ele>541.3</ele>
        <time>2023-12-06T09:38:44.021Z</time>
      </trkpt>
      <trkpt lat="43.61875" lon="6.02537">
        <ele>541.2</ele>
        <time>2023-12-06T09:38:59.564Z</time>
      </trkpt>
      <trkpt lat="43.6187" lon="6.02534">
        <ele>541.1</ele>
        <time>2023-12-06T09:39:18.180Z</time>
      </trkpt>
      <trkpt lat="43.61866" lon="6.02531">
        <ele>541</ele>
        <time>2023-12-06T09:39:33.723Z</time>
      </trkpt>
      <trkpt lat="43.61861" lon="6.02527">
        <ele>541</ele>
        <time>2023-12-06T09:39:53.455Z</time>
      </trkpt>
      <trkpt lat="43.61857" lon="6.02524">
        <ele>540.9</ele>
        <time>2023-12-06T09:40:09Z</time>
      </trkpt>
      <trkpt lat="43.61853" lon="6.02521">
        <ele>540.8</ele>
        <time>2023-12-06T09:40:13.999Z</time>
      </trkpt>
      <trkpt lat="43.61849" lon="6.02518">
        <ele>540.8</ele>
        <time>2023-12-06T09:40:19Z</time>
      </trkpt>
      <trkpt lat="43.61845" lon="6.02516">
        <ele>540.8</ele>
        <time>2023-12-06T09:40:23.497Z</time>
      </trkpt>
      <trkpt lat="43.6184" lon="6.02514">
        <ele>540.9</ele>
        <time>2023-12-06T09:40:29Z</time>
      </trkpt>
      <trkpt lat="43.61832" lon="6.02516">
        <ele>541</ele>
        <time>2023-12-06T09:40:38Z</time>
      </trkpt>
      <trkpt lat="43.61829" lon="6.02524">
        <ele>541.1</ele>
        <time>2023-12-06T09:40:51Z</time>
      </trkpt>
      <trkpt lat="43.61827" lon="6.02524">
        <ele>541.2</ele>
        <time>2023-12-06T09:41:23Z</time>
      </trkpt>
      <trkpt lat="43.61832" lon="6.02526">
        <ele>541.1</ele>
        <time>2023-12-06T09:41:31.422Z</time>
      </trkpt>
      <trkpt lat="43.61836" lon="6.02527">
        <ele>541</ele>
        <time>2023-12-06T09:41:38Z</time>
      </trkpt>
      <trkpt lat="43.61841" lon="6.02531">
        <ele>541.1</ele>
        <time>2023-12-06T09:41:49.322Z</time>
      </trkpt>
      <trkpt lat="43.61845" lon="6.02535">
        <ele>541.2</ele>
        <time>2023-12-06T09:41:59Z</time>
      </trkpt>
      <trkpt lat="43.61841" lon="6.02529">
        <ele>541</ele>
        <time>2023-12-06T09:42:32Z</time>
      </trkpt>
      <trkpt lat="43.61838" lon="6.02523">
        <ele>541</ele>
        <time>2023-12-06T09:42:37.672Z</time>
      </trkpt>
      <trkpt lat="43.61835" lon="6.02516">
        <ele>541</ele>
        <time>2023-12-06T09:42:44Z</time>
      </trkpt>
      <trkpt lat="43.61833" lon="6.02509">
        <ele>541</ele>
        <time>2023-12-06T09:42:48.096Z</time>
      </trkpt>
      <trkpt lat="43.6183" lon="6.02501">
        <ele>541</ele>
        <time>2023-12-06T09:42:53Z</time>
      </trkpt>
      <trkpt lat="43.61828" lon="6.02495">
        <ele>541</ele>
        <time>2023-12-06T09:42:56.802Z</time>
      </trkpt>
      <trkpt lat="43.61825" lon="6.02489">
        <ele>541.1</ele>
        <time>2023-12-06T09:43:01Z</time>
      </trkpt>
      <trkpt lat="43.61823" lon="6.02483">
        <ele>541.2</ele>
        <time>2023-12-06T09:43:05.929Z</time>
      </trkpt>
      <trkpt lat="43.6182" lon="6.02476">
        <ele>541.4</ele>
        <time>2023-12-06T09:43:12Z</time>
      </trkpt>
      <trkpt lat="43.61818" lon="6.0247">
        <ele>541.6</ele>
        <time>2023-12-06T09:43:16.207Z</time>
      </trkpt>
      <trkpt lat="43.61816" lon="6.02463">
        <ele>542</ele>
        <time>2023-12-06T09:43:21Z</time>
      </trkpt>
      <trkpt lat="43.61813" lon="6.02457">
        <ele>542.3</ele>
        <time>2023-12-06T09:43:25.726Z</time>
      </trkpt>
      <trkpt lat="43.6181" lon="6.0245">
        <ele>542.6</ele>
        <time>2023-12-06T09:43:31Z</time>
      </trkpt>
      <trkpt lat="43.61807" lon="6.02445">
        <ele>542.9</ele>
        <time>2023-12-06T09:43:35.239Z</time>
      </trkpt>
      <trkpt lat="43.61804" lon="6.02439">
        <ele>543.1</ele>
        <time>2023-12-06T09:43:40Z</time>
      </trkpt>
      <trkpt lat="43.618" lon="6.02436">
        <ele>543.2</ele>
        <time>2023-12-06T09:43:43.837Z</time>
      </trkpt>
      <trkpt lat="43.61796" lon="6.02432">
        <ele>543.3</ele>
        <time>2023-12-06T09:43:48Z</time>
      </trkpt>
      <trkpt lat="43.61791" lon="6.02429">
        <ele>543.5</ele>
        <time>2023-12-06T09:43:52.369Z</time>
      </trkpt>
      <trkpt lat="43.61786" lon="6.02425">
        <ele>543.7</ele>
        <time>2023-12-06T09:43:57Z</time>
      </trkpt>
      <trkpt lat="43.61782" lon="6.0242">
        <ele>543.8</ele>
        <time>2023-12-06T09:44:01.774Z</time>
      </trkpt>
      <trkpt lat="43.61778" lon="6.02414">
        <ele>544.1</ele>
        <time>2023-12-06T09:44:07Z</time>
      </trkpt>
      <trkpt lat="43.61776" lon="6.02408">
        <ele>544.4</ele>
        <time>2023-12-06T09:44:12.825Z</time>
      </trkpt>
      <trkpt lat="43.61773" lon="6.02401">
        <ele>544.7</ele>
        <time>2023-12-06T09:44:20Z</time>
      </trkpt>
      <trkpt lat="43.61774" lon="6.02391">
        <ele>545.1</ele>
        <time>2023-12-06T09:44:25.500Z</time>
      </trkpt>
      <trkpt lat="43.61775" lon="6.02381">
        <ele>545.1</ele>
        <time>2023-12-06T09:44:31Z</time>
      </trkpt>
      <trkpt lat="43.61778" lon="6.02373">
        <ele>545</ele>
        <time>2023-12-06T09:44:35.500Z</time>
      </trkpt>
      <trkpt lat="43.61781" lon="6.02365">
        <ele>544.9</ele>
        <time>2023-12-06T09:44:40Z</time>
      </trkpt>
      <trkpt lat="43.61783" lon="6.02355">
        <ele>545</ele>
        <time>2023-12-06T09:44:57Z</time>
      </trkpt>
      <trkpt lat="43.61784" lon="6.02348">
        <ele>545.2</ele>
        <time>2023-12-06T09:45:02.185Z</time>
      </trkpt>
      <trkpt lat="43.61784" lon="6.0234">
        <ele>545.4</ele>
        <time>2023-12-06T09:45:08Z</time>
      </trkpt>
      <trkpt lat="43.61783" lon="6.02332">
        <ele>545.7</ele>
        <time>2023-12-06T09:45:12.406Z</time>
      </trkpt>
      <trkpt lat="43.61781" lon="6.02324">
        <ele>546.1</ele>
        <time>2023-12-06T09:45:17Z</time>
      </trkpt>
      <trkpt lat="43.61778" lon="6.02317">
        <ele>546.6</ele>
        <time>2023-12-06T09:45:21.270Z</time>
      </trkpt>
      <trkpt lat="43.61775" lon="6.02309">
        <ele>547</ele>
        <time>2023-12-06T09:45:26Z</time>
      </trkpt>
      <trkpt lat="43.61774" lon="6.02302">
        <ele>547.3</ele>
        <time>2023-12-06T09:45:31.353Z</time>
      </trkpt>
      <trkpt lat="43.61772" lon="6.02295">
        <ele>547.6</ele>
        <time>2023-12-06T09:45:37Z</time>
      </trkpt>
      <trkpt lat="43.6177" lon="6.02288">
        <ele>547.9</ele>
        <time>2023-12-06T09:45:42.006Z</time>
      </trkpt>
      <trkpt lat="43.61767" lon="6.0228">
        <ele>548.3</ele>
        <time>2023-12-06T09:45:48Z</time>
      </trkpt>
      <trkpt lat="43.61764" lon="6.02272">
        <ele>548.6</ele>
        <time>2023-12-06T09:46:00Z</time>
      </trkpt>
      <trkpt lat="43.61762" lon="6.02266">
        <ele>548.8</ele>
        <time>2023-12-06T09:46:35Z</time>
      </trkpt>
      <trkpt lat="43.61757" lon="6.02271">
        <ele>548.9</ele>
        <time>2023-12-06T09:46:42Z</time>
      </trkpt>
      <trkpt lat="43.61755" lon="6.02272">
        <ele>549</ele>
        <time>2023-12-06T09:46:43.451Z</time>
      </trkpt>
      <trkpt lat="43.61749" lon="6.02276">
        <ele>549.1</ele>
        <time>2023-12-06T09:46:48Z</time>
      </trkpt>
      <trkpt lat="43.61745" lon="6.02278">
        <ele>549.2</ele>
        <time>2023-12-06T09:46:50.698Z</time>
      </trkpt>
      <trkpt lat="43.6174" lon="6.0228">
        <ele>549.3</ele>
        <time>2023-12-06T09:46:54Z</time>
      </trkpt>
      <trkpt lat="43.61736" lon="6.02283">
        <ele>549.4</ele>
        <time>2023-12-06T09:46:57.185Z</time>
      </trkpt>
      <trkpt lat="43.61731" lon="6.02286">
        <ele>549.6</ele>
        <time>2023-12-06T09:47:01Z</time>
      </trkpt>
      <trkpt lat="43.61726" lon="6.02289">
        <ele>549.8</ele>
        <time>2023-12-06T09:47:04.999Z</time>
      </trkpt>
      <trkpt lat="43.61721" lon="6.02292">
        <ele>550.1</ele>
        <time>2023-12-06T09:47:09Z</time>
      </trkpt>
      <trkpt lat="43.61719" lon="6.02294">
        <ele>550.3</ele>
        <time>2023-12-06T09:47:42Z</time>
      </trkpt>
      <trkpt lat="43.61716" lon="6.02294">
        <ele>550.5</ele>
        <time>2023-12-06T09:48:12Z</time>
      </trkpt>
      <trkpt lat="43.61708" lon="6.02298">
        <ele>551.2</ele>
        <time>2023-12-06T09:48:33Z</time>
      </trkpt>
      <trkpt lat="43.61703" lon="6.02301">
        <ele>551.5</ele>
        <time>2023-12-06T09:49:08Z</time>
      </trkpt>
      <trkpt lat="43.61698" lon="6.02305">
        <ele>551.8</ele>
        <time>2023-12-06T09:49:13.145Z</time>
      </trkpt>
      <trkpt lat="43.61693" lon="6.02308">
        <ele>552</ele>
        <time>2023-12-06T09:49:18Z</time>
      </trkpt>
      <trkpt lat="43.61688" lon="6.02311">
        <ele>552.3</ele>
        <time>2023-12-06T09:49:22.603Z</time>
      </trkpt>
      <trkpt lat="43.61683" lon="6.02313">
        <ele>552.6</ele>
        <time>2023-12-06T09:49:27Z</time>
      </trkpt>
      <trkpt lat="43.61677" lon="6.02316">
        <ele>552.9</ele>
        <time>2023-12-06T09:49:32.499Z</time>
      </trkpt>
      <trkpt lat="43.61671" lon="6.02319">
        <ele>553.2</ele>
        <time>2023-12-06T09:49:38Z</time>
      </trkpt>
      <trkpt lat="43.61666" lon="6.02325">
        <ele>553.4</ele>
        <time>2023-12-06T09:49:42.999Z</time>
      </trkpt>
      <trkpt lat="43.61661" lon="6.02331">
        <ele>553.5</ele>
        <time>2023-12-06T09:49:48Z</time>
      </trkpt>
      <trkpt lat="43.61656" lon="6.02336">
        <ele>553.8</ele>
        <time>2023-12-06T09:49:52.328Z</time>
      </trkpt>
      <trkpt lat="43.6165" lon="6.0234">
        <ele>554.1</ele>
        <time>2023-12-06T09:49:57Z</time>
      </trkpt>
      <trkpt lat="43.61645" lon="6.02344">
        <ele>554.5</ele>
        <time>2023-12-06T09:50:00.999Z</time>
      </trkpt>
      <trkpt lat="43.6164" lon="6.02348">
        <ele>554.9</ele>
        <time>2023-12-06T09:50:05Z</time>
      </trkpt>
      <trkpt lat="43.61636" lon="6.02351">
        <ele>555.1</ele>
        <time>2023-12-06T09:50:08.999Z</time>
      </trkpt>
      <trkpt lat="43.61632" lon="6.02354">
        <ele>555.3</ele>
        <time>2023-12-06T09:50:13Z</time>
      </trkpt>
      <trkpt lat="43.61628" lon="6.02357">
        <ele>555.5</ele>
        <time>2023-12-06T09:50:16.640Z</time>
      </trkpt>
      <trkpt lat="43.61623" lon="6.0236">
        <ele>555.6</ele>
        <time>2023-12-06T09:50:21Z</time>
      </trkpt>
      <trkpt lat="43.61618" lon="6.02364">
        <ele>555.5</ele>
        <time>2023-12-06T09:50:24.999Z</time>
      </trkpt>
      <trkpt lat="43.61613" lon="6.02368">
        <ele>555.4</ele>
        <time>2023-12-06T09:50:29Z</time>
      </trkpt>
      <trkpt lat="43.61608" lon="6.02372">
        <ele>555.5</ele>
        <time>2023-12-06T09:50:33.499Z</time>
      </trkpt>
      <trkpt lat="43.61603" lon="6.02376">
        <ele>555.7</ele>
        <time>2023-12-06T09:50:38Z</time>
      </trkpt>
      <trkpt lat="43.61598" lon="6.0238">
        <ele>556</ele>
        <time>2023-12-06T09:50:42.276Z</time>
      </trkpt>
      <trkpt lat="43.61592" lon="6.02383">
        <ele>556.3</ele>
        <time>2023-12-06T09:50:47Z</time>
      </trkpt>
      <trkpt lat="43.61587" lon="6.02385">
        <ele>556.8</ele>
        <time>2023-12-06T09:50:52.499Z</time>
      </trkpt>
      <trkpt lat="43.61582" lon="6.02387">
        <ele>557.3</ele>
        <time>2023-12-06T09:50:58Z</time>
      </trkpt>
      <trkpt lat="43.61576" lon="6.02391">
        <ele>558</ele>
        <time>2023-12-06T09:51:02.999Z</time>
      </trkpt>
      <trkpt lat="43.6157" lon="6.02395">
        <ele>558.8</ele>
        <time>2023-12-06T09:51:08Z</time>
      </trkpt>
      <trkpt lat="43.61565" lon="6.02397">
        <ele>559.4</ele>
        <time>2023-12-06T09:51:12.499Z</time>
      </trkpt>
      <trkpt lat="43.6156" lon="6.02399">
        <ele>560.1</ele>
        <time>2023-12-06T09:51:17Z</time>
      </trkpt>
      <trkpt lat="43.61555" lon="6.02401">
        <ele>560.7</ele>
        <time>2023-12-06T09:51:21.575Z</time>
      </trkpt>
      <trkpt lat="43.61549" lon="6.02403">
        <ele>561.3</ele>
        <time>2023-12-06T09:51:27Z</time>
      </trkpt>
      <trkpt lat="43.61544" lon="6.02408">
        <ele>561.7</ele>
        <time>2023-12-06T09:51:32.165Z</time>
      </trkpt>
      <trkpt lat="43.61539" lon="6.02412">
        <ele>562.1</ele>
        <time>2023-12-06T09:51:37Z</time>
      </trkpt>
      <trkpt lat="43.61534" lon="6.02416">
        <ele>562.4</ele>
        <time>2023-12-06T09:51:41.630Z</time>
      </trkpt>
      <trkpt lat="43.61529" lon="6.02419">
        <ele>562.7</ele>
        <time>2023-12-06T09:51:46Z</time>
      </trkpt>
      <trkpt lat="43.61524" lon="6.02421">
        <ele>563.3</ele>
        <time>2023-12-06T09:51:50.627Z</time>
      </trkpt>
      <trkpt lat="43.61518" lon="6.02422">
        <ele>564</ele>
        <time>2023-12-06T09:51:56Z</time>
      </trkpt>
      <trkpt lat="43.61513" lon="6.02426">
        <ele>564.3</ele>
        <time>2023-12-06T09:52:00.630Z</time>
      </trkpt>
      <trkpt lat="43.61508" lon="6.02429">
        <ele>564.6</ele>
        <time>2023-12-06T09:52:05Z</time>
      </trkpt>
      <trkpt lat="43.61503" lon="6.02431">
        <ele>565.1</ele>
        <time>2023-12-06T09:52:09.999Z</time>
      </trkpt>
      <trkpt lat="43.61498" lon="6.02433">
        <ele>565.5</ele>
        <time>2023-12-06T09:52:15Z</time>
      </trkpt>
      <trkpt lat="43.61493" lon="6.02437">
        <ele>565.7</ele>
        <time>2023-12-06T09:52:19.752Z</time>
      </trkpt>
      <trkpt lat="43.61487" lon="6.0244">
        <ele>566</ele>
        <time>2023-12-06T09:52:25Z</time>
      </trkpt>
      <trkpt lat="43.61483" lon="6.02442">
        <ele>566.3</ele>
        <time>2023-12-06T09:52:28.656Z</time>
      </trkpt>
      <trkpt lat="43.61478" lon="6.02443">
        <ele>566.6</ele>
        <time>2023-12-06T09:52:33Z</time>
      </trkpt>
      <trkpt lat="43.61473" lon="6.02445">
        <ele>566.9</ele>
        <time>2023-12-06T09:52:36.999Z</time>
      </trkpt>
      <trkpt lat="43.61468" lon="6.02447">
        <ele>567.5</ele>
        <time>2023-12-06T09:52:41Z</time>
      </trkpt>
      <trkpt lat="43.61463" lon="6.02452">
        <ele>568</ele>
        <time>2023-12-06T09:52:45.648Z</time>
      </trkpt>
      <trkpt lat="43.61458" lon="6.02456">
        <ele>568.4</ele>
        <time>2023-12-06T09:52:50Z</time>
      </trkpt>
      <trkpt lat="43.61453" lon="6.02458">
        <ele>569</ele>
        <time>2023-12-06T09:52:54.117Z</time>
      </trkpt>
      <trkpt lat="43.61447" lon="6.0246">
        <ele>569.6</ele>
        <time>2023-12-06T09:52:59Z</time>
      </trkpt>
      <trkpt lat="43.61442" lon="6.02464">
        <ele>569.8</ele>
        <time>2023-12-06T09:53:03.644Z</time>
      </trkpt>
      <trkpt lat="43.61436" lon="6.02468">
        <ele>570</ele>
        <time>2023-12-06T09:53:09Z</time>
      </trkpt>
      <trkpt lat="43.6143" lon="6.02471">
        <ele>570.2</ele>
        <time>2023-12-06T09:53:14.591Z</time>
      </trkpt>
      <trkpt lat="43.61424" lon="6.02473">
        <ele>570.4</ele>
        <time>2023-12-06T09:53:20Z</time>
      </trkpt>
      <trkpt lat="43.61418" lon="6.02474">
        <ele>570.8</ele>
        <time>2023-12-06T09:53:24.620Z</time>
      </trkpt>
      <trkpt lat="43.61411" lon="6.02475">
        <ele>571.2</ele>
        <time>2023-12-06T09:53:30Z</time>
      </trkpt>
      <trkpt lat="43.61406" lon="6.02476">
        <ele>571.6</ele>
        <time>2023-12-06T09:53:34.571Z</time>
      </trkpt>
      <trkpt lat="43.614" lon="6.02476">
        <ele>572</ele>
        <time>2023-12-06T09:53:40Z</time>
      </trkpt>
      <trkpt lat="43.61395" lon="6.02479">
        <ele>572.3</ele>
        <time>2023-12-06T09:53:44.603Z</time>
      </trkpt>
      <trkpt lat="43.6139" lon="6.02481">
        <ele>572.6</ele>
        <time>2023-12-06T09:53:49Z</time>
      </trkpt>
      <trkpt lat="43.61384" lon="6.02484">
        <ele>573.2</ele>
        <time>2023-12-06T09:53:53.716Z</time>
      </trkpt>
      <trkpt lat="43.61377" lon="6.02486">
        <ele>573.8</ele>
        <time>2023-12-06T09:53:59Z</time>
      </trkpt>
      <trkpt lat="43.61372" lon="6.02491">
        <ele>574.2</ele>
        <time>2023-12-06T09:54:04.290Z</time>
      </trkpt>
      <trkpt lat="43.61366" lon="6.02495">
        <ele>574.7</ele>
        <time>2023-12-06T09:54:10Z</time>
      </trkpt>
      <trkpt lat="43.61361" lon="6.025">
        <ele>575.1</ele>
        <time>2023-12-06T09:54:15.771Z</time>
      </trkpt>
      <trkpt lat="43.61355" lon="6.02504">
        <ele>575.6</ele>
        <time>2023-12-06T09:54:22Z</time>
      </trkpt>
      <trkpt lat="43.6135" lon="6.02508">
        <ele>576.1</ele>
        <time>2023-12-06T09:54:27.573Z</time>
      </trkpt>
      <trkpt lat="43.61344" lon="6.02512">
        <ele>576.6</ele>
        <time>2023-12-06T09:54:34Z</time>
      </trkpt>
      <trkpt lat="43.61339" lon="6.02516">
        <ele>577</ele>
        <time>2023-12-06T09:54:39.499Z</time>
      </trkpt>
      <trkpt lat="43.61334" lon="6.0252">
        <ele>577.5</ele>
        <time>2023-12-06T09:54:45Z</time>
      </trkpt>
      <trkpt lat="43.61331" lon="6.02526">
        <ele>577.8</ele>
        <time>2023-12-06T09:56:36.776Z</time>
      </trkpt>
      <trkpt lat="43.61327" lon="6.02531">
        <ele>578.2</ele>
        <time>2023-12-06T09:58:31Z</time>
      </trkpt>
      <trkpt lat="43.61326" lon="6.02533">
        <ele>578.3</ele>
        <time>2023-12-06T09:59:13.162Z</time>
      </trkpt>
      <trkpt lat="43.61322" lon="6.02533">
        <ele>579.2</ele>
        <time>2023-12-06T10:00:49Z</time>
      </trkpt>
      <trkpt lat="43.61317" lon="6.02528">
        <ele>580.5</ele>
        <time>2023-12-06T10:01:07Z</time>
      </trkpt>
      <trkpt lat="43.61312" lon="6.02527">
        <ele>581.7</ele>
        <time>2023-12-06T10:01:14.880Z</time>
      </trkpt>
      <trkpt lat="43.61307" lon="6.02525">
        <ele>582.8</ele>
        <time>2023-12-06T10:01:23Z</time>
      </trkpt>
      <trkpt lat="43.61299" lon="6.02523">
        <ele>584.6</ele>
        <time>2023-12-06T10:01:39Z</time>
      </trkpt>
      <trkpt lat="43.61294" lon="6.02517">
        <ele>586</ele>
        <time>2023-12-06T10:01:45.608Z</time>
      </trkpt>
      <trkpt lat="43.61288" lon="6.02511">
        <ele>587.4</ele>
        <time>2023-12-06T10:01:53Z</time>
      </trkpt>
      <trkpt lat="43.61284" lon="6.025">
        <ele>588.7</ele>
        <time>2023-12-06T10:02:05Z</time>
      </trkpt>
      <trkpt lat="43.6128" lon="6.0249">
        <ele>589.9</ele>
        <time>2023-12-06T10:02:15Z</time>
      </trkpt>
      <trkpt lat="43.61274" lon="6.02481">
        <ele>591.5</ele>
        <time>2023-12-06T10:02:26Z</time>
      </trkpt>
      <trkpt lat="43.61269" lon="6.02473">
        <ele>592.9</ele>
        <time>2023-12-06T10:03:14Z</time>
      </trkpt>
      <trkpt lat="43.61265" lon="6.02468">
        <ele>593.9</ele>
        <time>2023-12-06T10:03:20.499Z</time>
      </trkpt>
      <trkpt lat="43.61261" lon="6.02463">
        <ele>595</ele>
        <time>2023-12-06T10:03:27Z</time>
      </trkpt>
      <trkpt lat="43.61257" lon="6.02457">
        <ele>596</ele>
        <time>2023-12-06T10:03:38Z</time>
      </trkpt>
      <trkpt lat="43.61251" lon="6.0245">
        <ele>597.6</ele>
        <time>2023-12-06T10:03:50Z</time>
      </trkpt>
      <trkpt lat="43.61248" lon="6.02445">
        <ele>598.3</ele>
        <time>2023-12-06T10:04:06Z</time>
      </trkpt>
      <trkpt lat="43.6124" lon="6.02441">
        <ele>599.8</ele>
        <time>2023-12-06T10:04:20Z</time>
      </trkpt>
      <trkpt lat="43.61234" lon="6.02434">
        <ele>600.9</ele>
        <time>2023-12-06T10:04:36Z</time>
      </trkpt>
      <trkpt lat="43.61231" lon="6.02429">
        <ele>601.5</ele>
        <time>2023-12-06T10:04:42.205Z</time>
      </trkpt>
      <trkpt lat="43.61227" lon="6.02423">
        <ele>602.1</ele>
        <time>2023-12-06T10:04:50Z</time>
      </trkpt>
      <trkpt lat="43.61223" lon="6.02422">
        <ele>602.9</ele>
        <time>2023-12-06T10:04:54.384Z</time>
      </trkpt>
      <trkpt lat="43.61218" lon="6.0242">
        <ele>603.2</ele>
        <time>2023-12-06T10:05:00Z</time>
      </trkpt>
      <trkpt lat="43.61215" lon="6.02419">
        <ele>603.3</ele>
        <time>2023-12-06T10:05:02.138Z</time>
      </trkpt>
      <trkpt lat="43.61213" lon="6.02419">
        <ele>603.4</ele>
        <time>2023-12-06T10:05:03.524Z</time>
      </trkpt>
      <trkpt lat="43.61209" lon="6.02412">
        <ele>603.5</ele>
        <time>2023-12-06T10:05:08Z</time>
      </trkpt>
      <trkpt lat="43.61205" lon="6.02401">
        <ele>603.6</ele>
        <time>2023-12-06T10:05:16Z</time>
      </trkpt>
      <trkpt lat="43.61202" lon="6.02392">
        <ele>603.7</ele>
        <time>2023-12-06T10:05:24Z</time>
      </trkpt>
      <trkpt lat="43.61197" lon="6.02384">
        <ele>604.1</ele>
        <time>2023-12-06T10:05:39Z</time>
      </trkpt>
      <trkpt lat="43.61194" lon="6.02385">
        <ele>604.1</ele>
        <time>2023-12-06T10:06:00Z</time>
      </trkpt>
      <trkpt lat="43.61198" lon="6.02381">
        <ele>604.2</ele>
        <time>2023-12-06T10:06:04.908Z</time>
      </trkpt>
      <trkpt lat="43.612" lon="6.02373">
        <ele>604.5</ele>
        <time>2023-12-06T10:06:11Z</time>
      </trkpt>
      <trkpt lat="43.61203" lon="6.02367">
        <ele>604.7</ele>
        <time>2023-12-06T10:06:13.804Z</time>
      </trkpt>
      <trkpt lat="43.61206" lon="6.02361">
        <ele>605</ele>
        <time>2023-12-06T10:06:16.609Z</time>
      </trkpt>
      <trkpt lat="43.61212" lon="6.02358">
        <ele>605.4</ele>
        <time>2023-12-06T10:06:20Z</time>
      </trkpt>
      <trkpt lat="43.61217" lon="6.02355">
        <ele>605.9</ele>
        <time>2023-12-06T10:06:24.197Z</time>
      </trkpt>
      <trkpt lat="43.61221" lon="6.02351">
        <ele>606.4</ele>
        <time>2023-12-06T10:06:28Z</time>
      </trkpt>
      <trkpt lat="43.61226" lon="6.02348">
        <ele>606.8</ele>
        <time>2023-12-06T10:06:32.500Z</time>
      </trkpt>
      <trkpt lat="43.61231" lon="6.02345">
        <ele>607</ele>
        <time>2023-12-06T10:06:37Z</time>
      </trkpt>
      <trkpt lat="43.61235" lon="6.02342">
        <ele>607.4</ele>
        <time>2023-12-06T10:06:40.837Z</time>
      </trkpt>
      <trkpt lat="43.61239" lon="6.02338">
        <ele>607.7</ele>
        <time>2023-12-06T10:06:45Z</time>
      </trkpt>
      <trkpt lat="43.61243" lon="6.02335">
        <ele>608</ele>
        <time>2023-12-06T10:06:48.198Z</time>
      </trkpt>
      <trkpt lat="43.61247" lon="6.02332">
        <ele>608.3</ele>
        <time>2023-12-06T10:06:51.396Z</time>
      </trkpt>
      <trkpt lat="43.6125" lon="6.02329">
        <ele>608.6</ele>
        <time>2023-12-06T10:06:54Z</time>
      </trkpt>
      <trkpt lat="43.6125" lon="6.02323">
        <ele>609.5</ele>
        <time>2023-12-06T10:06:58.514Z</time>
      </trkpt>
      <trkpt lat="43.61247" lon="6.02317">
        <ele>610.5</ele>
        <time>2023-12-06T10:07:04Z</time>
      </trkpt>
      <trkpt lat="43.61242" lon="6.02312">
        <ele>611.4</ele>
        <time>2023-12-06T10:07:08.179Z</time>
      </trkpt>
      <trkpt lat="43.61237" lon="6.02305">
        <ele>612.5</ele>
        <time>2023-12-06T10:07:13Z</time>
      </trkpt>
      <trkpt lat="43.61234" lon="6.023">
        <ele>613.1</ele>
        <time>2023-12-06T10:07:17.999Z</time>
      </trkpt>
      <trkpt lat="43.61231" lon="6.02295">
        <ele>613.7</ele>
        <time>2023-12-06T10:07:23Z</time>
      </trkpt>
      <trkpt lat="43.6123" lon="6.02289">
        <ele>614.3</ele>
        <time>2023-12-06T10:07:28.558Z</time>
      </trkpt>
      <trkpt lat="43.61229" lon="6.02282">
        <ele>614.9</ele>
        <time>2023-12-06T10:07:35Z</time>
      </trkpt>
      <trkpt lat="43.61229" lon="6.02276">
        <ele>615.5</ele>
        <time>2023-12-06T10:07:40.481Z</time>
      </trkpt>
      <trkpt lat="43.61228" lon="6.02269">
        <ele>616.2</ele>
        <time>2023-12-06T10:07:47Z</time>
      </trkpt>
      <trkpt lat="43.61226" lon="6.02258">
        <ele>617.3</ele>
        <time>2023-12-06T10:07:59Z</time>
      </trkpt>
      <trkpt lat="43.61225" lon="6.02251">
        <ele>618</ele>
        <time>2023-12-06T10:08:04.613Z</time>
      </trkpt>
      <trkpt lat="43.61224" lon="6.02243">
        <ele>618.8</ele>
        <time>2023-12-06T10:08:11Z</time>
      </trkpt>
      <trkpt lat="43.61225" lon="6.02236">
        <ele>619.7</ele>
        <time>2023-12-06T10:08:16.613Z</time>
      </trkpt>
      <trkpt lat="43.61226" lon="6.02228">
        <ele>620.5</ele>
        <time>2023-12-06T10:08:23Z</time>
      </trkpt>
      <trkpt lat="43.6123" lon="6.02224">
        <ele>621.1</ele>
        <time>2023-12-06T10:08:28.421Z</time>
      </trkpt>
      <trkpt lat="43.61233" lon="6.0222">
        <ele>621.6</ele>
        <time>2023-12-06T10:08:33Z</time>
      </trkpt>
      <trkpt lat="43.61236" lon="6.02217">
        <ele>622</ele>
        <time>2023-12-06T10:08:37.535Z</time>
      </trkpt>
      <trkpt lat="43.61239" lon="6.02211">
        <ele>622.6</ele>
        <time>2023-12-06T10:08:44Z</time>
      </trkpt>
      <trkpt lat="43.61243" lon="6.022">
        <ele>623.5</ele>
        <time>2023-12-06T10:08:55Z</time>
      </trkpt>
      <trkpt lat="43.61244" lon="6.02188">
        <ele>624.5</ele>
        <time>2023-12-06T10:09:07Z</time>
      </trkpt>
      <trkpt lat="43.61243" lon="6.02178">
        <ele>625.2</ele>
        <time>2023-12-06T10:09:14.199Z</time>
      </trkpt>
      <trkpt lat="43.61246" lon="6.02171">
        <ele>625.7</ele>
        <time>2023-12-06T10:09:20Z</time>
      </trkpt>
      <trkpt lat="43.61251" lon="6.02167">
        <ele>625.9</ele>
        <time>2023-12-06T10:09:25.000Z</time>
      </trkpt>
      <trkpt lat="43.61256" lon="6.02163">
        <ele>626</ele>
        <time>2023-12-06T10:09:30Z</time>
      </trkpt>
      <trkpt lat="43.61259" lon="6.02158">
        <ele>626.3</ele>
        <time>2023-12-06T10:09:35.000Z</time>
      </trkpt>
      <trkpt lat="43.61262" lon="6.02153">
        <ele>626.6</ele>
        <time>2023-12-06T10:09:40Z</time>
      </trkpt>
      <trkpt lat="43.61266" lon="6.02149">
        <ele>626.8</ele>
        <time>2023-12-06T10:09:45.122Z</time>
      </trkpt>
      <trkpt lat="43.61269" lon="6.02144">
        <ele>626.9</ele>
        <time>2023-12-06T10:09:50Z</time>
      </trkpt>
      <trkpt lat="43.61273" lon="6.02133">
        <ele>627.6</ele>
        <time>2023-12-06T10:09:59Z</time>
      </trkpt>
      <trkpt lat="43.61275" lon="6.02127">
        <ele>628</ele>
        <time>2023-12-06T10:10:03.807Z</time>
      </trkpt>
      <trkpt lat="43.61276" lon="6.0212">
        <ele>628.4</ele>
        <time>2023-12-06T10:10:09Z</time>
      </trkpt>
      <trkpt lat="43.61278" lon="6.02108">
        <ele>629.1</ele>
        <time>2023-12-06T10:10:18Z</time>
      </trkpt>
      <trkpt lat="43.6128" lon="6.02096">
        <ele>629.4</ele>
        <time>2023-12-06T10:10:27Z</time>
      </trkpt>
      <trkpt lat="43.61281" lon="6.0209">
        <ele>629.5</ele>
        <time>2023-12-06T10:10:31.168Z</time>
      </trkpt>
      <trkpt lat="43.61282" lon="6.02083">
        <ele>629.7</ele>
        <time>2023-12-06T10:10:36Z</time>
      </trkpt>
      <trkpt lat="43.61281" lon="6.02077">
        <ele>630.3</ele>
        <time>2023-12-06T10:10:41.095Z</time>
      </trkpt>
      <trkpt lat="43.6128" lon="6.0207">
        <ele>630.8</ele>
        <time>2023-12-06T10:10:47Z</time>
      </trkpt>
      <trkpt lat="43.61279" lon="6.02058">
        <ele>631.7</ele>
        <time>2023-12-06T10:11:01Z</time>
      </trkpt>
      <trkpt lat="43.61283" lon="6.0205">
        <ele>632</ele>
        <time>2023-12-06T10:11:21Z</time>
      </trkpt>
      <trkpt lat="43.61287" lon="6.02046">
        <ele>632.1</ele>
        <time>2023-12-06T10:11:32.928Z</time>
      </trkpt>
      <trkpt lat="43.6129" lon="6.02042">
        <ele>632.1</ele>
        <time>2023-12-06T10:11:43Z</time>
      </trkpt>
      <trkpt lat="43.61287" lon="6.02033">
        <ele>633</ele>
        <time>2023-12-06T10:12:00Z</time>
      </trkpt>
      <trkpt lat="43.61284" lon="6.02028">
        <ele>633.5</ele>
        <time>2023-12-06T10:12:35Z</time>
      </trkpt>
      <trkpt lat="43.61285" lon="6.02023">
        <ele>633.8</ele>
        <time>2023-12-06T10:13:33Z</time>
      </trkpt>
      <trkpt lat="43.61288" lon="6.02031">
        <ele>633</ele>
        <time>2023-12-06T10:13:57Z</time>
      </trkpt>
      <trkpt lat="43.61285" lon="6.02036">
        <ele>632.9</ele>
        <time>2023-12-06T10:14:12.999Z</time>
      </trkpt>
      <trkpt lat="43.61282" lon="6.02041">
        <ele>632.7</ele>
        <time>2023-12-06T10:14:29Z</time>
      </trkpt>
      <trkpt lat="43.61277" lon="6.02035">
        <ele>633.5</ele>
        <time>2023-12-06T10:14:55Z</time>
      </trkpt>
      <trkpt lat="43.61269" lon="6.02034">
        <ele>633.9</ele>
        <time>2023-12-06T10:15:11Z</time>
      </trkpt>
      <trkpt lat="43.61265" lon="6.02025">
        <ele>634.6</ele>
        <time>2023-12-06T10:15:32Z</time>
      </trkpt>
      <trkpt lat="43.61266" lon="6.0202">
        <ele>634.9</ele>
        <time>2023-12-06T10:15:56Z</time>
      </trkpt>
      <trkpt lat="43.61268" lon="6.02019">
        <ele>634.9</ele>
        <time>2023-12-06T10:16:26Z</time>
      </trkpt>
      <trkpt lat="43.61264" lon="6.02017">
        <ele>635.1</ele>
        <time>2023-12-06T10:16:59Z</time>
      </trkpt>
      <trkpt lat="43.61258" lon="6.02022">
        <ele>635</ele>
        <time>2023-12-06T10:17:23Z</time>
      </trkpt>
      <trkpt lat="43.61252" lon="6.02031">
        <ele>634.8</ele>
        <time>2023-12-06T10:17:46Z</time>
      </trkpt>
      <trkpt lat="43.61248" lon="6.02026">
        <ele>635.1</ele>
        <time>2023-12-06T10:24:15Z</time>
      </trkpt>
      <trkpt lat="43.61247" lon="6.0202">
        <ele>635.3</ele>
        <time>2023-12-06T10:24:19.949Z</time>
      </trkpt>
      <trkpt lat="43.61245" lon="6.02013">
        <ele>635.4</ele>
        <time>2023-12-06T10:24:26Z</time>
      </trkpt>
      <trkpt lat="43.61243" lon="6.02007">
        <ele>635.5</ele>
        <time>2023-12-06T10:24:30.753Z</time>
      </trkpt>
      <trkpt lat="43.6124" lon="6.02001">
        <ele>635.6</ele>
        <time>2023-12-06T10:24:36Z</time>
      </trkpt>
      <trkpt lat="43.61238" lon="6.01996">
        <ele>635.7</ele>
        <time>2023-12-06T10:24:39.953Z</time>
      </trkpt>
      <trkpt lat="43.61235" lon="6.0199">
        <ele>635.8</ele>
        <time>2023-12-06T10:24:45Z</time>
      </trkpt>
      <trkpt lat="43.61234" lon="6.01983">
        <ele>636</ele>
        <time>2023-12-06T10:24:49.866Z</time>
      </trkpt>
      <trkpt lat="43.61232" lon="6.01976">
        <ele>636.2</ele>
        <time>2023-12-06T10:24:55Z</time>
      </trkpt>
      <trkpt lat="43.61232" lon="6.01969">
        <ele>636.3</ele>
        <time>2023-12-06T10:24:59.666Z</time>
      </trkpt>
      <trkpt lat="43.61232" lon="6.01961">
        <ele>636.1</ele>
        <time>2023-12-06T10:25:05Z</time>
      </trkpt>
      <trkpt lat="43.61234" lon="6.01954">
        <ele>636</ele>
        <time>2023-12-06T10:25:09.706Z</time>
      </trkpt>
      <trkpt lat="43.61236" lon="6.01946">
        <ele>636</ele>
        <time>2023-12-06T10:25:15Z</time>
      </trkpt>
      <trkpt lat="43.61238" lon="6.01939">
        <ele>636.1</ele>
        <time>2023-12-06T10:25:20.133Z</time>
      </trkpt>
      <trkpt lat="43.61239" lon="6.01932">
        <ele>636.2</ele>
        <time>2023-12-06T10:25:25Z</time>
      </trkpt>
      <trkpt lat="43.61241" lon="6.01925">
        <ele>636.3</ele>
        <time>2023-12-06T10:25:29.619Z</time>
      </trkpt>
      <trkpt lat="43.61242" lon="6.01918">
        <ele>636.4</ele>
        <time>2023-12-06T10:25:34Z</time>
      </trkpt>
      <trkpt lat="43.61243" lon="6.01911">
        <ele>636.4</ele>
        <time>2023-12-06T10:25:37.742Z</time>
      </trkpt>
      <trkpt lat="43.61244" lon="6.01903">
        <ele>636.5</ele>
        <time>2023-12-06T10:25:42Z</time>
      </trkpt>
      <trkpt lat="43.61247" lon="6.01897">
        <ele>636.7</ele>
        <time>2023-12-06T10:25:46.722Z</time>
      </trkpt>
      <trkpt lat="43.61249" lon="6.01891">
        <ele>636.9</ele>
        <time>2023-12-06T10:25:51Z</time>
      </trkpt>
      <trkpt lat="43.61251" lon="6.01884">
        <ele>637</ele>
        <time>2023-12-06T10:25:55.500Z</time>
      </trkpt>
      <trkpt lat="43.61253" lon="6.01877">
        <ele>637.1</ele>
        <time>2023-12-06T10:26:00Z</time>
      </trkpt>
      <trkpt lat="43.61253" lon="6.0187">
        <ele>637.1</ele>
        <time>2023-12-06T10:26:04.500Z</time>
      </trkpt>
      <trkpt lat="43.61253" lon="6.01863">
        <ele>637.1</ele>
        <time>2023-12-06T10:26:09Z</time>
      </trkpt>
      <trkpt lat="43.61254" lon="6.01856">
        <ele>637</ele>
        <time>2023-12-06T10:26:13.542Z</time>
      </trkpt>
      <trkpt lat="43.61254" lon="6.01849">
        <ele>636.8</ele>
        <time>2023-12-06T10:26:18Z</time>
      </trkpt>
      <trkpt lat="43.61256" lon="6.01842">
        <ele>636.6</ele>
        <time>2023-12-06T10:26:22.329Z</time>
      </trkpt>
      <trkpt lat="43.61257" lon="6.01834">
        <ele>636.5</ele>
        <time>2023-12-06T10:26:27Z</time>
      </trkpt>
      <trkpt lat="43.61258" lon="6.01826">
        <ele>636.6</ele>
        <time>2023-12-06T10:26:31.500Z</time>
      </trkpt>
      <trkpt lat="43.61259" lon="6.01818">
        <ele>636.6</ele>
        <time>2023-12-06T10:26:36Z</time>
      </trkpt>
      <trkpt lat="43.6126" lon="6.0181">
        <ele>636.7</ele>
        <time>2023-12-06T10:26:40.533Z</time>
      </trkpt>
      <trkpt lat="43.6126" lon="6.01802">
        <ele>636.6</ele>
        <time>2023-12-06T10:26:45Z</time>
      </trkpt>
      <trkpt lat="43.61261" lon="6.01795">
        <ele>636.4</ele>
        <time>2023-12-06T10:26:49.542Z</time>
      </trkpt>
      <trkpt lat="43.61261" lon="6.01788">
        <ele>636.2</ele>
        <time>2023-12-06T10:26:54Z</time>
      </trkpt>
      <trkpt lat="43.61261" lon="6.01781">
        <ele>635.9</ele>
        <time>2023-12-06T10:26:58.000Z</time>
      </trkpt>
      <trkpt lat="43.61261" lon="6.01774">
        <ele>635.7</ele>
        <time>2023-12-06T10:27:02Z</time>
      </trkpt>
      <trkpt lat="43.61262" lon="6.01768">
        <ele>635.6</ele>
        <time>2023-12-06T10:27:06.211Z</time>
      </trkpt>
      <trkpt lat="43.61262" lon="6.01761">
        <ele>635.5</ele>
        <time>2023-12-06T10:27:11Z</time>
      </trkpt>
      <trkpt lat="43.61262" lon="6.01753">
        <ele>635.3</ele>
        <time>2023-12-06T10:27:15.705Z</time>
      </trkpt>
      <trkpt lat="43.61262" lon="6.01744">
        <ele>635.1</ele>
        <time>2023-12-06T10:27:21Z</time>
      </trkpt>
      <trkpt lat="43.61258" lon="6.01741">
        <ele>634.5</ele>
        <time>2023-12-06T10:27:28.280Z</time>
      </trkpt>
      <trkpt lat="43.61253" lon="6.01738">
        <ele>633.9</ele>
        <time>2023-12-06T10:27:37Z</time>
      </trkpt>
      <trkpt lat="43.61246" lon="6.01732">
        <ele>632.8</ele>
        <time>2023-12-06T10:27:57Z</time>
      </trkpt>
      <trkpt lat="43.61245" lon="6.01729">
        <ele>632.5</ele>
        <time>2023-12-06T10:28:26Z</time>
      </trkpt>
      <trkpt lat="43.61241" lon="6.01733">
        <ele>632.1</ele>
        <time>2023-12-06T10:28:51Z</time>
      </trkpt>
      <trkpt lat="43.61236" lon="6.01729">
        <ele>631.2</ele>
        <time>2023-12-06T10:29:13Z</time>
      </trkpt>
      <trkpt lat="43.61236" lon="6.01735">
        <ele>631.4</ele>
        <time>2023-12-06T10:29:37Z</time>
      </trkpt>
      <trkpt lat="43.61231" lon="6.01739">
        <ele>630.9</ele>
        <time>2023-12-06T10:30:02Z</time>
      </trkpt>
      <trkpt lat="43.61231" lon="6.01732">
        <ele>630.6</ele>
        <time>2023-12-06T10:30:33Z</time>
      </trkpt>
      <trkpt lat="43.61231" lon="6.01722">
        <ele>630.3</ele>
        <time>2023-12-06T10:31:14Z</time>
      </trkpt>
      <trkpt lat="43.61234" lon="6.01729">
        <ele>630.9</ele>
        <time>2023-12-06T10:31:48Z</time>
      </trkpt>
      <trkpt lat="43.61242" lon="6.01726">
        <ele>632</ele>
        <time>2023-12-06T10:32:17Z</time>
      </trkpt>
      <trkpt lat="43.61244" lon="6.01714">
        <ele>631.8</ele>
        <time>2023-12-06T10:32:35Z</time>
      </trkpt>
      <trkpt lat="43.6125" lon="6.01711">
        <ele>632.6</ele>
        <time>2023-12-06T10:32:54Z</time>
      </trkpt>
      <trkpt lat="43.61248" lon="6.01702">
        <ele>632</ele>
        <time>2023-12-06T10:33:20Z</time>
      </trkpt>
      <trkpt lat="43.61253" lon="6.01692">
        <ele>632.2</ele>
        <time>2023-12-06T10:33:49Z</time>
      </trkpt>
      <trkpt lat="43.61257" lon="6.01687">
        <ele>632.4</ele>
        <time>2023-12-06T10:33:58.097Z</time>
      </trkpt>
      <trkpt lat="43.6126" lon="6.01681">
        <ele>632.6</ele>
        <time>2023-12-06T10:34:07Z</time>
      </trkpt>
      <trkpt lat="43.6126" lon="6.01676">
        <ele>632.4</ele>
        <time>2023-12-06T10:34:40Z</time>
      </trkpt>
      <trkpt lat="43.61262" lon="6.01667">
        <ele>632.3</ele>
        <time>2023-12-06T10:35:17Z</time>
      </trkpt>
      <trkpt lat="43.6127" lon="6.01662">
        <ele>633</ele>
        <time>2023-12-06T10:35:41Z</time>
      </trkpt>
      <trkpt lat="43.61272" lon="6.01653">
        <ele>632.9</ele>
        <time>2023-12-06T10:35:57Z</time>
      </trkpt>
      <trkpt lat="43.61273" lon="6.01661">
        <ele>633.3</ele>
        <time>2023-12-06T10:36:11.500Z</time>
      </trkpt>
      <trkpt lat="43.61274" lon="6.01669">
        <ele>633.7</ele>
        <time>2023-12-06T10:36:26Z</time>
      </trkpt>
      <trkpt lat="43.61277" lon="6.01675">
        <ele>634.2</ele>
        <time>2023-12-06T10:36:32.821Z</time>
      </trkpt>
      <trkpt lat="43.61279" lon="6.01681">
        <ele>634.6</ele>
        <time>2023-12-06T10:36:39Z</time>
      </trkpt>
      <trkpt lat="43.61284" lon="6.01687">
        <ele>635.2</ele>
        <time>2023-12-06T10:36:45.728Z</time>
      </trkpt>
      <trkpt lat="43.61289" lon="6.01692">
        <ele>635.7</ele>
        <time>2023-12-06T10:36:52Z</time>
      </trkpt>
      <trkpt lat="43.61296" lon="6.01694">
        <ele>636.3</ele>
        <time>2023-12-06T10:36:59.512Z</time>
      </trkpt>
      <trkpt lat="43.61302" lon="6.01696">
        <ele>636.8</ele>
        <time>2023-12-06T10:37:06Z</time>
      </trkpt>
      <trkpt lat="43.61309" lon="6.01692">
        <ele>637</ele>
        <time>2023-12-06T10:37:11.000Z</time>
      </trkpt>
      <trkpt lat="43.61316" lon="6.01688">
        <ele>637.1</ele>
        <time>2023-12-06T10:37:16Z</time>
      </trkpt>
      <trkpt lat="43.6132" lon="6.01683">
        <ele>637.1</ele>
        <time>2023-12-06T10:37:20.548Z</time>
      </trkpt>
      <trkpt lat="43.61323" lon="6.01677">
        <ele>637</ele>
        <time>2023-12-06T10:37:25Z</time>
      </trkpt>
      <trkpt lat="43.61327" lon="6.01671">
        <ele>636.9</ele>
        <time>2023-12-06T10:37:30.254Z</time>
      </trkpt>
      <trkpt lat="43.61331" lon="6.01664">
        <ele>636.9</ele>
        <time>2023-12-06T10:37:36Z</time>
      </trkpt>
      <trkpt lat="43.61335" lon="6.01659">
        <ele>637</ele>
        <time>2023-12-06T10:37:40.043Z</time>
      </trkpt>
      <trkpt lat="43.61338" lon="6.01653">
        <ele>637</ele>
        <time>2023-12-06T10:37:44Z</time>
      </trkpt>
      <trkpt lat="43.61341" lon="6.01646">
        <ele>637</ele>
        <time>2023-12-06T10:37:48.675Z</time>
      </trkpt>
      <trkpt lat="43.61343" lon="6.01639">
        <ele>637</ele>
        <time>2023-12-06T10:37:53Z</time>
      </trkpt>
      <trkpt lat="43.61346" lon="6.01633">
        <ele>636.8</ele>
        <time>2023-12-06T10:37:57.726Z</time>
      </trkpt>
      <trkpt lat="43.61349" lon="6.01626">
        <ele>636.5</ele>
        <time>2023-12-06T10:38:03Z</time>
      </trkpt>
      <trkpt lat="43.61352" lon="6.01619">
        <ele>636.3</ele>
        <time>2023-12-06T10:38:07.675Z</time>
      </trkpt>
      <trkpt lat="43.61354" lon="6.01612">
        <ele>636</ele>
        <time>2023-12-06T10:38:12Z</time>
      </trkpt>
      <trkpt lat="43.61357" lon="6.01603">
        <ele>636</ele>
        <time>2023-12-06T10:38:17.640Z</time>
      </trkpt>
      <trkpt lat="43.61359" lon="6.01594">
        <ele>636</ele>
        <time>2023-12-06T10:38:23Z</time>
      </trkpt>
      <trkpt lat="43.61361" lon="6.01586">
        <ele>636</ele>
        <time>2023-12-06T10:38:28.299Z</time>
      </trkpt>
      <trkpt lat="43.61362" lon="6.01577">
        <ele>636</ele>
        <time>2023-12-06T10:38:34Z</time>
      </trkpt>
      <trkpt lat="43.61361" lon="6.01569">
        <ele>636</ele>
        <time>2023-12-06T10:38:39.875Z</time>
      </trkpt>
      <trkpt lat="43.61359" lon="6.01561">
        <ele>635.9</ele>
        <time>2023-12-06T10:38:46Z</time>
      </trkpt>
      <trkpt lat="43.61359" lon="6.01552">
        <ele>635.7</ele>
        <time>2023-12-06T10:38:49.770Z</time>
      </trkpt>
      <trkpt lat="43.61358" lon="6.01542">
        <ele>635.3</ele>
        <time>2023-12-06T10:38:54Z</time>
      </trkpt>
      <trkpt lat="43.61358" lon="6.01535">
        <ele>635</ele>
        <time>2023-12-06T10:38:58.457Z</time>
      </trkpt>
      <trkpt lat="43.61357" lon="6.01528">
        <ele>634.7</ele>
        <time>2023-12-06T10:39:03Z</time>
      </trkpt>
      <trkpt lat="43.61356" lon="6.0152">
        <ele>634.4</ele>
        <time>2023-12-06T10:39:08.499Z</time>
      </trkpt>
      <trkpt lat="43.61355" lon="6.01512">
        <ele>634</ele>
        <time>2023-12-06T10:39:14Z</time>
      </trkpt>
      <trkpt lat="43.61353" lon="6.01503">
        <ele>633.5</ele>
        <time>2023-12-06T10:39:45Z</time>
      </trkpt>
      <trkpt lat="43.61348" lon="6.01494">
        <ele>632.7</ele>
        <time>2023-12-06T10:39:59Z</time>
      </trkpt>
      <trkpt lat="43.61344" lon="6.01494">
        <ele>632.5</ele>
        <time>2023-12-06T10:41:03Z</time>
      </trkpt>
      <trkpt lat="43.61344" lon="6.01491">
        <ele>632.3</ele>
        <time>2023-12-06T10:41:31Z</time>
      </trkpt>
      <trkpt lat="43.61343" lon="6.01481">
        <ele>631.8</ele>
        <time>2023-12-06T10:41:41Z</time>
      </trkpt>
      <trkpt lat="43.61342" lon="6.01473">
        <ele>631.3</ele>
        <time>2023-12-06T10:41:45.999Z</time>
      </trkpt>
      <trkpt lat="43.61341" lon="6.01465">
        <ele>630.8</ele>
        <time>2023-12-06T10:41:51Z</time>
      </trkpt>
      <trkpt lat="43.61342" lon="6.01458">
        <ele>630.4</ele>
        <time>2023-12-06T10:41:56.000Z</time>
      </trkpt>
      <trkpt lat="43.61343" lon="6.01451">
        <ele>630.1</ele>
        <time>2023-12-06T10:42:01Z</time>
      </trkpt>
      <trkpt lat="43.61344" lon="6.01443">
        <ele>629.6</ele>
        <time>2023-12-06T10:42:06.500Z</time>
      </trkpt>
      <trkpt lat="43.61345" lon="6.01435">
        <ele>629</ele>
        <time>2023-12-06T10:42:12Z</time>
      </trkpt>
      <trkpt lat="43.61346" lon="6.01426">
        <ele>628.1</ele>
        <time>2023-12-06T10:42:17.719Z</time>
      </trkpt>
      <trkpt lat="43.61346" lon="6.01416">
        <ele>627.3</ele>
        <time>2023-12-06T10:42:24Z</time>
      </trkpt>
      <trkpt lat="43.61343" lon="6.01409">
        <ele>626.2</ele>
        <time>2023-12-06T10:42:28.999Z</time>
      </trkpt>
      <trkpt lat="43.6134" lon="6.01402">
        <ele>625.1</ele>
        <time>2023-12-06T10:42:34Z</time>
      </trkpt>
      <trkpt lat="43.61336" lon="6.01399">
        <ele>624.3</ele>
        <time>2023-12-06T10:42:39.005Z</time>
      </trkpt>
      <trkpt lat="43.61331" lon="6.01396">
        <ele>623.5</ele>
        <time>2023-12-06T10:42:45Z</time>
      </trkpt>
      <trkpt lat="43.61325" lon="6.01397">
        <ele>623</ele>
        <time>2023-12-06T10:42:51.500Z</time>
      </trkpt>
      <trkpt lat="43.61319" lon="6.01398">
        <ele>622.4</ele>
        <time>2023-12-06T10:42:58Z</time>
      </trkpt>
      <trkpt lat="43.61313" lon="6.014">
        <ele>622</ele>
        <time>2023-12-06T10:43:06.999Z</time>
      </trkpt>
      <trkpt lat="43.61307" lon="6.01402">
        <ele>621.6</ele>
        <time>2023-12-06T10:43:16Z</time>
      </trkpt>
      <trkpt lat="43.61308" lon="6.01402">
        <ele>621.7</ele>
        <time>2023-12-06T10:43:44Z</time>
      </trkpt>
      <trkpt lat="43.61306" lon="6.01398">
        <ele>621</ele>
        <time>2023-12-06T10:44:20Z</time>
      </trkpt>
      <trkpt lat="43.61302" lon="6.01403">
        <ele>621</ele>
        <time>2023-12-06T10:44:26.277Z</time>
      </trkpt>
      <trkpt lat="43.61297" lon="6.01407">
        <ele>620.8</ele>
        <time>2023-12-06T10:44:33Z</time>
      </trkpt>
      <trkpt lat="43.61292" lon="6.01411">
        <ele>620.5</ele>
        <time>2023-12-06T10:44:38.999Z</time>
      </trkpt>
      <trkpt lat="43.61287" lon="6.01415">
        <ele>620.2</ele>
        <time>2023-12-06T10:44:45Z</time>
      </trkpt>
      <trkpt lat="43.61287" lon="6.01413">
        <ele>620</ele>
        <time>2023-12-06T10:45:06Z</time>
      </trkpt>
      <trkpt lat="43.61287" lon="6.01417">
        <ele>620.3</ele>
        <time>2023-12-06T10:45:30Z</time>
      </trkpt>
      <trkpt lat="43.61282" lon="6.01413">
        <ele>619.3</ele>
        <time>2023-12-06T10:45:46Z</time>
      </trkpt>
      <trkpt lat="43.61282" lon="6.01413">
        <ele>619.3</ele>
        <time>2023-12-06T10:46:20Z</time>
      </trkpt>
      <trkpt lat="43.61286" lon="6.01417">
        <ele>620.1</ele>
        <time>2023-12-06T10:46:30.301Z</time>
      </trkpt>
      <trkpt lat="43.61289" lon="6.01421">
        <ele>620.9</ele>
        <time>2023-12-06T10:46:39Z</time>
      </trkpt>
      <trkpt lat="43.61289" lon="6.01425">
        <ele>621.2</ele>
        <time>2023-12-06T10:47:06Z</time>
      </trkpt>
      <trkpt lat="43.61287" lon="6.01429">
        <ele>621.1</ele>
        <time>2023-12-06T10:47:11.963Z</time>
      </trkpt>
      <trkpt lat="43.61285" lon="6.01434">
        <ele>621</ele>
        <time>2023-12-06T10:47:18.970Z</time>
      </trkpt>
      <trkpt lat="43.61287" lon="6.01438">
        <ele>621.6</ele>
        <time>2023-12-06T10:47:24.934Z</time>
      </trkpt>
      <trkpt lat="43.6129" lon="6.01442">
        <ele>622.5</ele>
        <time>2023-12-06T10:47:32Z</time>
      </trkpt>
      <trkpt lat="43.61292" lon="6.01445">
        <ele>623.1</ele>
        <time>2023-12-06T10:47:40.055Z</time>
      </trkpt>
      <trkpt lat="43.61295" lon="6.01446">
        <ele>623.9</ele>
        <time>2023-12-06T10:47:48.475Z</time>
      </trkpt>
      <trkpt lat="43.61296" lon="6.01443">
        <ele>623.8</ele>
        <time>2023-12-06T10:47:55Z</time>
      </trkpt>
      <trkpt lat="43.61301" lon="6.01442">
        <ele>624.8</ele>
        <time>2023-12-06T10:48:03.217Z</time>
      </trkpt>
      <trkpt lat="43.61304" lon="6.01438">
        <ele>625</ele>
        <time>2023-12-06T10:48:10Z</time>
      </trkpt>
      <trkpt lat="43.61308" lon="6.01442">
        <ele>626</ele>
        <time>2023-12-06T10:48:37Z</time>
      </trkpt>
      <trkpt lat="43.61308" lon="6.01434">
        <ele>625.1</ele>
        <time>2023-12-06T10:49:13Z</time>
      </trkpt>
      <trkpt lat="43.61313" lon="6.01426">
        <ele>624.8</ele>
        <time>2023-12-06T10:49:37Z</time>
      </trkpt>
      <trkpt lat="43.61309" lon="6.01422">
        <ele>623.9</ele>
        <time>2023-12-06T10:50:10Z</time>
      </trkpt>
      <trkpt lat="43.61307" lon="6.01425">
        <ele>624.1</ele>
        <time>2023-12-06T10:50:58Z</time>
      </trkpt>
      <trkpt lat="43.6131" lon="6.01423">
        <ele>624.2</ele>
        <time>2023-12-06T10:51:59Z</time>
      </trkpt>
      <trkpt lat="43.61313" lon="6.01413">
        <ele>623.4</ele>
        <time>2023-12-06T10:52:25Z</time>
      </trkpt>
      <trkpt lat="43.61319" lon="6.01421">
        <ele>624.9</ele>
        <time>2023-12-06T10:52:56Z</time>
      </trkpt>
      <trkpt lat="43.6132" lon="6.01413">
        <ele>624.2</ele>
        <time>2023-12-06T10:53:23Z</time>
      </trkpt>
      <trkpt lat="43.61312" lon="6.01408">
        <ele>622.8</ele>
        <time>2023-12-06T10:53:49Z</time>
      </trkpt>
      <trkpt lat="43.61311" lon="6.01405">
        <ele>622.3</ele>
        <time>2023-12-06T10:54:20Z</time>
      </trkpt>
      <trkpt lat="43.61314" lon="6.01403">
        <ele>622.4</ele>
        <time>2023-12-06T10:54:55Z</time>
      </trkpt>
      <trkpt lat="43.61313" lon="6.01402">
        <ele>622.2</ele>
        <time>2023-12-06T10:55:35Z</time>
      </trkpt>
      <trkpt lat="43.61312" lon="6.014">
        <ele>621.9</ele>
        <time>2023-12-06T10:56:44Z</time>
      </trkpt>
      <trkpt lat="43.61313" lon="6.01402">
        <ele>622.2</ele>
        <time>2023-12-06T10:57:36Z</time>
      </trkpt>
      <trkpt lat="43.61308" lon="6.01401">
        <ele>621.5</ele>
        <time>2023-12-06T10:57:46.927Z</time>
      </trkpt>
      <trkpt lat="43.61302" lon="6.014">
        <ele>620.8</ele>
        <time>2023-12-06T10:58:00Z</time>
      </trkpt>
      <trkpt lat="43.613" lon="6.01404">
        <ele>620.9</ele>
        <time>2023-12-06T10:58:16Z</time>
      </trkpt>
      <trkpt lat="43.61302" lon="6.01411">
        <ele>621.9</ele>
        <time>2023-12-06T10:58:36Z</time>
      </trkpt>
      <trkpt lat="43.61296" lon="6.01408">
        <ele>620.8</ele>
        <time>2023-12-06T10:58:53Z</time>
      </trkpt>
      <trkpt lat="43.61292" lon="6.01405">
        <ele>619.9</ele>
        <time>2023-12-06T10:58:58.915Z</time>
      </trkpt>
      <trkpt lat="43.61287" lon="6.01402">
        <ele>619.1</ele>
        <time>2023-12-06T10:59:06Z</time>
      </trkpt>
      <trkpt lat="43.61283" lon="6.01398">
        <ele>618.2</ele>
        <time>2023-12-06T10:59:10.888Z</time>
      </trkpt>
      <trkpt lat="43.61278" lon="6.01393">
        <ele>617.3</ele>
        <time>2023-12-06T10:59:17Z</time>
      </trkpt>
      <trkpt lat="43.61274" lon="6.0139">
        <ele>616.3</ele>
        <time>2023-12-06T10:59:22.287Z</time>
      </trkpt>
      <trkpt lat="43.61269" lon="6.01386">
        <ele>615.3</ele>
        <time>2023-12-06T10:59:29Z</time>
      </trkpt>
      <trkpt lat="43.61265" lon="6.01382">
        <ele>614.3</ele>
        <time>2023-12-06T10:59:36.555Z</time>
      </trkpt>
      <trkpt lat="43.6126" lon="6.01377">
        <ele>613.4</ele>
        <time>2023-12-06T10:59:46Z</time>
      </trkpt>
      <trkpt lat="43.61256" lon="6.01374">
        <ele>612.4</ele>
        <time>2023-12-06T10:59:51.728Z</time>
      </trkpt>
      <trkpt lat="43.61251" lon="6.0137">
        <ele>611.5</ele>
        <time>2023-12-06T10:59:59Z</time>
      </trkpt>
      <trkpt lat="43.61245" lon="6.01374">
        <ele>610</ele>
        <time>2023-12-06T11:00:07.884Z</time>
      </trkpt>
      <trkpt lat="43.61242" lon="6.01375">
        <ele>609.2</ele>
        <time>2023-12-06T11:00:12Z</time>
      </trkpt>
      <trkpt lat="43.61238" lon="6.01366">
        <ele>607.7</ele>
        <time>2023-12-06T11:00:28Z</time>
      </trkpt>
      <trkpt lat="43.61238" lon="6.01365">
        <ele>607.7</ele>
        <time>2023-12-06T11:01:33Z</time>
      </trkpt>
      <trkpt lat="43.61239" lon="6.01371">
        <ele>608.2</ele>
        <time>2023-12-06T11:35:22Z</time>
      </trkpt>
      <trkpt lat="43.61244" lon="6.01372">
        <ele>609.5</ele>
        <time>2023-12-06T11:35:33.162Z</time>
      </trkpt>
      <trkpt lat="43.61248" lon="6.01372">
        <ele>610.8</ele>
        <time>2023-12-06T11:35:42Z</time>
      </trkpt>
      <trkpt lat="43.61253" lon="6.01372">
        <ele>611.9</ele>
        <time>2023-12-06T11:35:49.000Z</time>
      </trkpt>
      <trkpt lat="43.61258" lon="6.01372">
        <ele>612.8</ele>
        <time>2023-12-06T11:35:56Z</time>
      </trkpt>
      <trkpt lat="43.61265" lon="6.01377">
        <ele>614.3</ele>
        <time>2023-12-06T11:36:16Z</time>
      </trkpt>
      <trkpt lat="43.61271" lon="6.01382">
        <ele>615.5</ele>
        <time>2023-12-06T11:36:24.500Z</time>
      </trkpt>
      <trkpt lat="43.61277" lon="6.01387">
        <ele>616.8</ele>
        <time>2023-12-06T11:36:33Z</time>
      </trkpt>
      <trkpt lat="43.61281" lon="6.01392">
        <ele>617.6</ele>
        <time>2023-12-06T11:36:41.500Z</time>
      </trkpt>
      <trkpt lat="43.61285" lon="6.01397">
        <ele>618.4</ele>
        <time>2023-12-06T11:36:50Z</time>
      </trkpt>
      <trkpt lat="43.61292" lon="6.014">
        <ele>619.5</ele>
        <time>2023-12-06T11:36:58.500Z</time>
      </trkpt>
      <trkpt lat="43.61299" lon="6.01403">
        <ele>620.7</ele>
        <time>2023-12-06T11:37:07Z</time>
      </trkpt>
      <trkpt lat="43.61305" lon="6.01403">
        <ele>621.5</ele>
        <time>2023-12-06T11:37:14.000Z</time>
      </trkpt>
      <trkpt lat="43.61311" lon="6.01403">
        <ele>622.1</ele>
        <time>2023-12-06T11:37:21Z</time>
      </trkpt>
      <trkpt lat="43.61317" lon="6.01399">
        <ele>622.3</ele>
        <time>2023-12-06T11:37:27.000Z</time>
      </trkpt>
      <trkpt lat="43.61323" lon="6.01395">
        <ele>622.5</ele>
        <time>2023-12-06T11:37:33Z</time>
      </trkpt>
      <trkpt lat="43.61329" lon="6.01395">
        <ele>623.1</ele>
        <time>2023-12-06T11:37:39.545Z</time>
      </trkpt>
      <trkpt lat="43.61334" lon="6.01395">
        <ele>623.7</ele>
        <time>2023-12-06T11:37:45Z</time>
      </trkpt>
      <trkpt lat="43.61339" lon="6.014">
        <ele>624.8</ele>
        <time>2023-12-06T11:37:51.937Z</time>
      </trkpt>
      <trkpt lat="43.61343" lon="6.01405">
        <ele>625.8</ele>
        <time>2023-12-06T11:37:58Z</time>
      </trkpt>
      <trkpt lat="43.61343" lon="6.01412">
        <ele>626.5</ele>
        <time>2023-12-06T11:38:03.500Z</time>
      </trkpt>
      <trkpt lat="43.61343" lon="6.01419">
        <ele>627.3</ele>
        <time>2023-12-06T11:38:09Z</time>
      </trkpt>
      <trkpt lat="43.61344" lon="6.01427">
        <ele>628</ele>
        <time>2023-12-06T11:38:14.369Z</time>
      </trkpt>
      <trkpt lat="43.61344" lon="6.01434">
        <ele>628.8</ele>
        <time>2023-12-06T11:38:19Z</time>
      </trkpt>
      <trkpt lat="43.61344" lon="6.01441">
        <ele>629.4</ele>
        <time>2023-12-06T11:38:24.320Z</time>
      </trkpt>
      <trkpt lat="43.61343" lon="6.01447">
        <ele>629.8</ele>
        <time>2023-12-06T11:38:29Z</time>
      </trkpt>
      <trkpt lat="43.61342" lon="6.01454">
        <ele>630.2</ele>
        <time>2023-12-06T11:38:34.499Z</time>
      </trkpt>
      <trkpt lat="43.61341" lon="6.01461">
        <ele>630.6</ele>
        <time>2023-12-06T11:38:40Z</time>
      </trkpt>
      <trkpt lat="43.61342" lon="6.01469">
        <ele>631.1</ele>
        <time>2023-12-06T11:38:45.906Z</time>
      </trkpt>
      <trkpt lat="43.61342" lon="6.01476">
        <ele>631.5</ele>
        <time>2023-12-06T11:38:51Z</time>
      </trkpt>
      <trkpt lat="43.61344" lon="6.01483">
        <ele>631.9</ele>
        <time>2023-12-06T11:38:56.000Z</time>
      </trkpt>
      <trkpt lat="43.61346" lon="6.0149">
        <ele>632.4</ele>
        <time>2023-12-06T11:39:01Z</time>
      </trkpt>
      <trkpt lat="43.61349" lon="6.01497">
        <ele>632.9</ele>
        <time>2023-12-06T11:39:06.273Z</time>
      </trkpt>
      <trkpt lat="43.61352" lon="6.01503">
        <ele>633.5</ele>
        <time>2023-12-06T11:39:11Z</time>
      </trkpt>
      <trkpt lat="43.61355" lon="6.0151">
        <ele>633.9</ele>
        <time>2023-12-06T11:39:16.518Z</time>
      </trkpt>
      <trkpt lat="43.61357" lon="6.01516">
        <ele>634.3</ele>
        <time>2023-12-06T11:39:21Z</time>
      </trkpt>
      <trkpt lat="43.61358" lon="6.01523">
        <ele>634.6</ele>
        <time>2023-12-06T11:39:26.367Z</time>
      </trkpt>
      <trkpt lat="43.61359" lon="6.01529">
        <ele>634.9</ele>
        <time>2023-12-06T11:39:31Z</time>
      </trkpt>
      <trkpt lat="43.6136" lon="6.01537">
        <ele>635.2</ele>
        <time>2023-12-06T11:39:35.832Z</time>
      </trkpt>
      <trkpt lat="43.6136" lon="6.01544">
        <ele>635.5</ele>
        <time>2023-12-06T11:39:40Z</time>
      </trkpt>
      <trkpt lat="43.61359" lon="6.01552">
        <ele>635.7</ele>
        <time>2023-12-06T11:39:44.790Z</time>
      </trkpt>
      <trkpt lat="43.61358" lon="6.01559">
        <ele>635.8</ele>
        <time>2023-12-06T11:39:49Z</time>
      </trkpt>
      <trkpt lat="43.61358" lon="6.01566">
        <ele>635.8</ele>
        <time>2023-12-06T11:39:53.500Z</time>
      </trkpt>
      <trkpt lat="43.61358" lon="6.01573">
        <ele>635.8</ele>
        <time>2023-12-06T11:39:58Z</time>
      </trkpt>
      <trkpt lat="43.6136" lon="6.01583">
        <ele>636</ele>
        <time>2023-12-06T11:40:08Z</time>
      </trkpt>
      <trkpt lat="43.61358" lon="6.01592">
        <ele>635.9</ele>
        <time>2023-12-06T11:40:13.109Z</time>
      </trkpt>
      <trkpt lat="43.61355" lon="6.016">
        <ele>635.9</ele>
        <time>2023-12-06T11:40:18Z</time>
      </trkpt>
      <trkpt lat="43.61353" lon="6.01607">
        <ele>636</ele>
        <time>2023-12-06T11:40:22.260Z</time>
      </trkpt>
      <trkpt lat="43.61351" lon="6.01613">
        <ele>636.1</ele>
        <time>2023-12-06T11:40:26Z</time>
      </trkpt>
      <trkpt lat="43.61349" lon="6.01619">
        <ele>636.3</ele>
        <time>2023-12-06T11:40:30.499Z</time>
      </trkpt>
      <trkpt lat="43.61347" lon="6.01625">
        <ele>636.5</ele>
        <time>2023-12-06T11:40:35Z</time>
      </trkpt>
      <trkpt lat="43.61344" lon="6.01633">
        <ele>636.8</ele>
        <time>2023-12-06T11:40:39.499Z</time>
      </trkpt>
      <trkpt lat="43.61341" lon="6.01641">
        <ele>637</ele>
        <time>2023-12-06T11:40:44Z</time>
      </trkpt>
      <trkpt lat="43.61338" lon="6.01648">
        <ele>637</ele>
        <time>2023-12-06T11:40:49.273Z</time>
      </trkpt>
      <trkpt lat="43.61335" lon="6.01654">
        <ele>637</ele>
        <time>2023-12-06T11:40:54Z</time>
      </trkpt>
      <trkpt lat="43.61331" lon="6.0166">
        <ele>636.9</ele>
        <time>2023-12-06T11:40:58.999Z</time>
      </trkpt>
      <trkpt lat="43.61327" lon="6.01666">
        <ele>636.8</ele>
        <time>2023-12-06T11:41:04Z</time>
      </trkpt>
      <trkpt lat="43.61324" lon="6.01672">
        <ele>636.9</ele>
        <time>2023-12-06T11:41:08.499Z</time>
      </trkpt>
      <trkpt lat="43.61321" lon="6.01678">
        <ele>637</ele>
        <time>2023-12-06T11:41:13Z</time>
      </trkpt>
      <trkpt lat="43.61317" lon="6.01683">
        <ele>637</ele>
        <time>2023-12-06T11:41:17.499Z</time>
      </trkpt>
      <trkpt lat="43.61313" lon="6.01688">
        <ele>637</ele>
        <time>2023-12-06T11:41:22Z</time>
      </trkpt>
      <trkpt lat="43.61308" lon="6.01692">
        <ele>637</ele>
        <time>2023-12-06T11:41:26.999Z</time>
      </trkpt>
      <trkpt lat="43.61303" lon="6.01696">
        <ele>636.8</ele>
        <time>2023-12-06T11:41:32Z</time>
      </trkpt>
      <trkpt lat="43.61299" lon="6.017">
        <ele>636.5</ele>
        <time>2023-12-06T11:41:36.753Z</time>
      </trkpt>
      <trkpt lat="43.61294" lon="6.01703">
        <ele>636.3</ele>
        <time>2023-12-06T11:41:42Z</time>
      </trkpt>
      <trkpt lat="43.61289" lon="6.01708">
        <ele>636.1</ele>
        <time>2023-12-06T11:41:47.681Z</time>
      </trkpt>
      <trkpt lat="43.61284" lon="6.01712">
        <ele>635.9</ele>
        <time>2023-12-06T11:41:53Z</time>
      </trkpt>
      <trkpt lat="43.61279" lon="6.01719">
        <ele>635.9</ele>
        <time>2023-12-06T11:41:58.180Z</time>
      </trkpt>
      <trkpt lat="43.61274" lon="6.01725">
        <ele>635.7</ele>
        <time>2023-12-06T11:42:03Z</time>
      </trkpt>
      <trkpt lat="43.6127" lon="6.01731">
        <ele>635.4</ele>
        <time>2023-12-06T11:42:08.184Z</time>
      </trkpt>
      <trkpt lat="43.61265" lon="6.01737">
        <ele>635.2</ele>
        <time>2023-12-06T11:42:14Z</time>
      </trkpt>
      <trkpt lat="43.61263" lon="6.01746">
        <ele>635.2</ele>
        <time>2023-12-06T11:42:19.846Z</time>
      </trkpt>
      <trkpt lat="43.6126" lon="6.01755">
        <ele>635.2</ele>
        <time>2023-12-06T11:42:26Z</time>
      </trkpt>
      <trkpt lat="43.61259" lon="6.01764">
        <ele>635.3</ele>
        <time>2023-12-06T11:42:30.664Z</time>
      </trkpt>
      <trkpt lat="43.61257" lon="6.01772">
        <ele>635.3</ele>
        <time>2023-12-06T11:42:35Z</time>
      </trkpt>
      <trkpt lat="43.61257" lon="6.01779">
        <ele>635.5</ele>
        <time>2023-12-06T11:42:38.961Z</time>
      </trkpt>
      <trkpt lat="43.61256" lon="6.01786">
        <ele>635.7</ele>
        <time>2023-12-06T11:42:43Z</time>
      </trkpt>
      <trkpt lat="43.61255" lon="6.01793">
        <ele>635.9</ele>
        <time>2023-12-06T11:42:47.294Z</time>
      </trkpt>
      <trkpt lat="43.61254" lon="6.01799">
        <ele>636.1</ele>
        <time>2023-12-06T11:42:51Z</time>
      </trkpt>
      <trkpt lat="43.61254" lon="6.01811">
        <ele>636.3</ele>
        <time>2023-12-06T11:42:59Z</time>
      </trkpt>
      <trkpt lat="43.61254" lon="6.01818">
        <ele>636.3</ele>
        <time>2023-12-06T11:43:03.457Z</time>
      </trkpt>
      <trkpt lat="43.61253" lon="6.01825">
        <ele>636.2</ele>
        <time>2023-12-06T11:43:08Z</time>
      </trkpt>
      <trkpt lat="43.61252" lon="6.01832">
        <ele>636.1</ele>
        <time>2023-12-06T11:43:12.499Z</time>
      </trkpt>
      <trkpt lat="43.61251" lon="6.01839">
        <ele>636.3</ele>
        <time>2023-12-06T11:43:17Z</time>
      </trkpt>
      <trkpt lat="43.61251" lon="6.01848">
        <ele>636.5</ele>
        <time>2023-12-06T11:43:21.206Z</time>
      </trkpt>
      <trkpt lat="43.6125" lon="6.01856">
        <ele>636.8</ele>
        <time>2023-12-06T11:43:25Z</time>
      </trkpt>
      <trkpt lat="43.61249" lon="6.01863">
        <ele>636.9</ele>
        <time>2023-12-06T11:43:28.999Z</time>
      </trkpt>
      <trkpt lat="43.61248" lon="6.0187">
        <ele>636.8</ele>
        <time>2023-12-06T11:43:33Z</time>
      </trkpt>
      <trkpt lat="43.61248" lon="6.01877">
        <ele>636.7</ele>
        <time>2023-12-06T11:43:37.256Z</time>
      </trkpt>
      <trkpt lat="43.61247" lon="6.01883">
        <ele>636.7</ele>
        <time>2023-12-06T11:43:41Z</time>
      </trkpt>
      <trkpt lat="43.61245" lon="6.01889">
        <ele>636.4</ele>
        <time>2023-12-06T11:43:44.327Z</time>
      </trkpt>
      <trkpt lat="43.61242" lon="6.01895">
        <ele>636.2</ele>
        <time>2023-12-06T11:43:48Z</time>
      </trkpt>
      <trkpt lat="43.61241" lon="6.01902">
        <ele>636.2</ele>
        <time>2023-12-06T11:43:51.757Z</time>
      </trkpt>
      <trkpt lat="43.6124" lon="6.01908">
        <ele>636.2</ele>
        <time>2023-12-06T11:43:55Z</time>
      </trkpt>
      <trkpt lat="43.61239" lon="6.01915">
        <ele>636.1</ele>
        <time>2023-12-06T11:43:58.634Z</time>
      </trkpt>
      <trkpt lat="43.61237" lon="6.01921">
        <ele>636.1</ele>
        <time>2023-12-06T11:44:02Z</time>
      </trkpt>
      <trkpt lat="43.61235" lon="6.01927">
        <ele>635.9</ele>
        <time>2023-12-06T11:44:05.327Z</time>
      </trkpt>
      <trkpt lat="43.61232" lon="6.01933">
        <ele>635.7</ele>
        <time>2023-12-06T11:44:09Z</time>
      </trkpt>
      <trkpt lat="43.61231" lon="6.0194">
        <ele>635.6</ele>
        <time>2023-12-06T11:44:12.757Z</time>
      </trkpt>
      <trkpt lat="43.6123" lon="6.01946">
        <ele>635.6</ele>
        <time>2023-12-06T11:44:16Z</time>
      </trkpt>
      <trkpt lat="43.6123" lon="6.01953">
        <ele>635.8</ele>
        <time>2023-12-06T11:44:19.769Z</time>
      </trkpt>
      <trkpt lat="43.6123" lon="6.01959">
        <ele>635.9</ele>
        <time>2023-12-06T11:44:23Z</time>
      </trkpt>
      <trkpt lat="43.6123" lon="6.01966">
        <ele>636.1</ele>
        <time>2023-12-06T11:44:26.724Z</time>
      </trkpt>
      <trkpt lat="43.61229" lon="6.01972">
        <ele>636.2</ele>
        <time>2023-12-06T11:44:30Z</time>
      </trkpt>
      <trkpt lat="43.61228" lon="6.01984">
        <ele>635.8</ele>
        <time>2023-12-06T11:44:38Z</time>
      </trkpt>
      <trkpt lat="43.61227" lon="6.01991">
        <ele>635.5</ele>
        <time>2023-12-06T11:44:43.711Z</time>
      </trkpt>
      <trkpt lat="43.61225" lon="6.01997">
        <ele>635.2</ele>
        <time>2023-12-06T11:44:49Z</time>
      </trkpt>
      <trkpt lat="43.61217" lon="6.01999">
        <ele>634.7</ele>
        <time>2023-12-06T11:44:57Z</time>
      </trkpt>
      <trkpt lat="43.61212" lon="6.01998">
        <ele>634.3</ele>
        <time>2023-12-06T11:45:00.500Z</time>
      </trkpt>
      <trkpt lat="43.61207" lon="6.01997">
        <ele>634</ele>
        <time>2023-12-06T11:45:04Z</time>
      </trkpt>
      <trkpt lat="43.61202" lon="6.01995">
        <ele>633.6</ele>
        <time>2023-12-06T11:45:07.999Z</time>
      </trkpt>
      <trkpt lat="43.61197" lon="6.01993">
        <ele>633.2</ele>
        <time>2023-12-06T11:45:12Z</time>
      </trkpt>
      <trkpt lat="43.61192" lon="6.01991">
        <ele>632.7</ele>
        <time>2023-12-06T11:45:16.117Z</time>
      </trkpt>
      <trkpt lat="43.61186" lon="6.01989">
        <ele>632.1</ele>
        <time>2023-12-06T11:45:21Z</time>
      </trkpt>
      <trkpt lat="43.6118" lon="6.01986">
        <ele>631.4</ele>
        <time>2023-12-06T11:45:25.999Z</time>
      </trkpt>
      <trkpt lat="43.61174" lon="6.01983">
        <ele>630.8</ele>
        <time>2023-12-06T11:45:31Z</time>
      </trkpt>
      <trkpt lat="43.61169" lon="6.01984">
        <ele>630.3</ele>
        <time>2023-12-06T11:45:35.610Z</time>
      </trkpt>
      <trkpt lat="43.61165" lon="6.0199">
        <ele>629.8</ele>
        <time>2023-12-06T11:45:41Z</time>
      </trkpt>
      <trkpt lat="43.61162" lon="6.01997">
        <ele>629.5</ele>
        <time>2023-12-06T11:45:45.499Z</time>
      </trkpt>
      <trkpt lat="43.61159" lon="6.02004">
        <ele>629.2</ele>
        <time>2023-12-06T11:45:50Z</time>
      </trkpt>
      <trkpt lat="43.61157" lon="6.02011">
        <ele>629</ele>
        <time>2023-12-06T11:45:55.858Z</time>
      </trkpt>
      <trkpt lat="43.61155" lon="6.02017">
        <ele>628.7</ele>
        <time>2023-12-06T11:46:01Z</time>
      </trkpt>
      <trkpt lat="43.61156" lon="6.02027">
        <ele>628.8</ele>
        <time>2023-12-06T11:46:07.344Z</time>
      </trkpt>
      <trkpt lat="43.61156" lon="6.02036">
        <ele>628.8</ele>
        <time>2023-12-06T11:46:13Z</time>
      </trkpt>
      <trkpt lat="43.61156" lon="6.02045">
        <ele>628.8</ele>
        <time>2023-12-06T11:46:17.764Z</time>
      </trkpt>
      <trkpt lat="43.61156" lon="6.02053">
        <ele>628.8</ele>
        <time>2023-12-06T11:46:22Z</time>
      </trkpt>
      <trkpt lat="43.61156" lon="6.02061">
        <ele>628.8</ele>
        <time>2023-12-06T11:46:26.800Z</time>
      </trkpt>
      <trkpt lat="43.61156" lon="6.02068">
        <ele>628.7</ele>
        <time>2023-12-06T11:46:31Z</time>
      </trkpt>
      <trkpt lat="43.61155" lon="6.02076">
        <ele>628.4</ele>
        <time>2023-12-06T11:46:35.895Z</time>
      </trkpt>
      <trkpt lat="43.61153" lon="6.02084">
        <ele>628</ele>
        <time>2023-12-06T11:46:41Z</time>
      </trkpt>
      <trkpt lat="43.61153" lon="6.02093">
        <ele>627.8</ele>
        <time>2023-12-06T11:46:46.257Z</time>
      </trkpt>
      <trkpt lat="43.61152" lon="6.02101">
        <ele>627.6</ele>
        <time>2023-12-06T11:46:51Z</time>
      </trkpt>
      <trkpt lat="43.61151" lon="6.0211">
        <ele>627.3</ele>
        <time>2023-12-06T11:46:55.999Z</time>
      </trkpt>
      <trkpt lat="43.6115" lon="6.02119">
        <ele>626.8</ele>
        <time>2023-12-06T11:47:01Z</time>
      </trkpt>
      <trkpt lat="43.61151" lon="6.02126">
        <ele>626.5</ele>
        <time>2023-12-06T11:47:05.038Z</time>
      </trkpt>
      <trkpt lat="43.61151" lon="6.02133">
        <ele>626.2</ele>
        <time>2023-12-06T11:47:09Z</time>
      </trkpt>
      <trkpt lat="43.61151" lon="6.02141">
        <ele>625.7</ele>
        <time>2023-12-06T11:47:13.500Z</time>
      </trkpt>
      <trkpt lat="43.61151" lon="6.02149">
        <ele>625.1</ele>
        <time>2023-12-06T11:47:18Z</time>
      </trkpt>
      <trkpt lat="43.61151" lon="6.02156">
        <ele>624.6</ele>
        <time>2023-12-06T11:47:22.256Z</time>
      </trkpt>
      <trkpt lat="43.6115" lon="6.02162">
        <ele>624.1</ele>
        <time>2023-12-06T11:47:26Z</time>
      </trkpt>
      <trkpt lat="43.61153" lon="6.02169">
        <ele>623.8</ele>
        <time>2023-12-06T11:47:30.414Z</time>
      </trkpt>
      <trkpt lat="43.61155" lon="6.02175">
        <ele>623.3</ele>
        <time>2023-12-06T11:47:34Z</time>
      </trkpt>
      <trkpt lat="43.61158" lon="6.02182">
        <ele>622.7</ele>
        <time>2023-12-06T11:47:38.966Z</time>
      </trkpt>
      <trkpt lat="43.6116" lon="6.02188">
        <ele>622.2</ele>
        <time>2023-12-06T11:47:43Z</time>
      </trkpt>
      <trkpt lat="43.61164" lon="6.02193">
        <ele>622</ele>
        <time>2023-12-06T11:47:49.204Z</time>
      </trkpt>
      <trkpt lat="43.61167" lon="6.02197">
        <ele>621.6</ele>
        <time>2023-12-06T11:47:54Z</time>
      </trkpt>
      <trkpt lat="43.61172" lon="6.02203">
        <ele>621.1</ele>
        <time>2023-12-06T11:48:00.613Z</time>
      </trkpt>
      <trkpt lat="43.61176" lon="6.02208">
        <ele>620.5</ele>
        <time>2023-12-06T11:48:06Z</time>
      </trkpt>
      <trkpt lat="43.61184" lon="6.0221">
        <ele>620.7</ele>
        <time>2023-12-06T11:48:33Z</time>
      </trkpt>
      <trkpt lat="43.61187" lon="6.02215">
        <ele>620.3</ele>
        <time>2023-12-06T11:48:41.000Z</time>
      </trkpt>
      <trkpt lat="43.6119" lon="6.0222">
        <ele>619.9</ele>
        <time>2023-12-06T11:48:49Z</time>
      </trkpt>
      <trkpt lat="43.61193" lon="6.02226">
        <ele>619.5</ele>
        <time>2023-12-06T11:48:55.167Z</time>
      </trkpt>
      <trkpt lat="43.61195" lon="6.02231">
        <ele>619.1</ele>
        <time>2023-12-06T11:49:00Z</time>
      </trkpt>
      <trkpt lat="43.612" lon="6.02237">
        <ele>618.6</ele>
        <time>2023-12-06T11:49:51Z</time>
      </trkpt>
      <trkpt lat="43.61205" lon="6.02246">
        <ele>617.8</ele>
        <time>2023-12-06T11:49:59Z</time>
      </trkpt>
      <trkpt lat="43.61208" lon="6.02257">
        <ele>616.7</ele>
        <time>2023-12-06T11:50:07Z</time>
      </trkpt>
      <trkpt lat="43.61211" lon="6.02268">
        <ele>615.7</ele>
        <time>2023-12-06T11:50:15Z</time>
      </trkpt>
      <trkpt lat="43.61214" lon="6.02275">
        <ele>615</ele>
        <time>2023-12-06T11:50:19.000Z</time>
      </trkpt>
      <trkpt lat="43.61217" lon="6.02282">
        <ele>614.5</ele>
        <time>2023-12-06T11:50:23Z</time>
      </trkpt>
      <trkpt lat="43.61221" lon="6.02287">
        <ele>614.3</ele>
        <time>2023-12-06T11:50:27.176Z</time>
      </trkpt>
      <trkpt lat="43.61225" lon="6.02291">
        <ele>614.1</ele>
        <time>2023-12-06T11:50:31Z</time>
      </trkpt>
      <trkpt lat="43.61229" lon="6.02296">
        <ele>613.6</ele>
        <time>2023-12-06T11:50:36.343Z</time>
      </trkpt>
      <trkpt lat="43.61232" lon="6.02301">
        <ele>613.1</ele>
        <time>2023-12-06T11:50:41Z</time>
      </trkpt>
      <trkpt lat="43.61237" lon="6.02307">
        <ele>612.3</ele>
        <time>2023-12-06T11:50:46.226Z</time>
      </trkpt>
      <trkpt lat="43.61241" lon="6.02313">
        <ele>611.3</ele>
        <time>2023-12-06T11:50:50.885Z</time>
      </trkpt>
      <trkpt lat="43.61246" lon="6.02321">
        <ele>609.9</ele>
        <time>2023-12-06T11:50:56.923Z</time>
      </trkpt>
      <trkpt lat="43.61247" lon="6.02328">
        <ele>608.9</ele>
        <time>2023-12-06T11:51:01Z</time>
      </trkpt>
      <trkpt lat="43.61244" lon="6.02333">
        <ele>608.4</ele>
        <time>2023-12-06T11:51:04.414Z</time>
      </trkpt>
      <trkpt lat="43.6124" lon="6.02337">
        <ele>607.8</ele>
        <time>2023-12-06T11:51:08Z</time>
      </trkpt>
      <trkpt lat="43.61236" lon="6.02341">
        <ele>607.5</ele>
        <time>2023-12-06T11:51:11.802Z</time>
      </trkpt>
      <trkpt lat="43.61231" lon="6.02344">
        <ele>607.1</ele>
        <time>2023-12-06T11:51:16Z</time>
      </trkpt>
      <trkpt lat="43.61227" lon="6.02348">
        <ele>606.8</ele>
        <time>2023-12-06T11:51:20.162Z</time>
      </trkpt>
      <trkpt lat="43.61223" lon="6.02351">
        <ele>606.4</ele>
        <time>2023-12-06T11:51:24Z</time>
      </trkpt>
      <trkpt lat="43.61216" lon="6.02357">
        <ele>605.6</ele>
        <time>2023-12-06T11:51:33Z</time>
      </trkpt>
      <trkpt lat="43.61211" lon="6.02361">
        <ele>605.1</ele>
        <time>2023-12-06T11:51:37.630Z</time>
      </trkpt>
      <trkpt lat="43.61206" lon="6.02364">
        <ele>604.9</ele>
        <time>2023-12-06T11:51:42Z</time>
      </trkpt>
      <trkpt lat="43.61204" lon="6.02371">
        <ele>604.5</ele>
        <time>2023-12-06T11:51:45.844Z</time>
      </trkpt>
      <trkpt lat="43.61201" lon="6.02378">
        <ele>604.2</ele>
        <time>2023-12-06T11:51:50Z</time>
      </trkpt>
      <trkpt lat="43.61201" lon="6.02385">
        <ele>604</ele>
        <time>2023-12-06T11:51:53.961Z</time>
      </trkpt>
      <trkpt lat="43.612" lon="6.02392">
        <ele>603.8</ele>
        <time>2023-12-06T11:51:58Z</time>
      </trkpt>
      <trkpt lat="43.61203" lon="6.02398">
        <ele>603.7</ele>
        <time>2023-12-06T11:52:02.000Z</time>
      </trkpt>
      <trkpt lat="43.61206" lon="6.02404">
        <ele>603.6</ele>
        <time>2023-12-06T11:52:06Z</time>
      </trkpt>
      <trkpt lat="43.61207" lon="6.02411">
        <ele>603.5</ele>
        <time>2023-12-06T11:52:10.294Z</time>
      </trkpt>
      <trkpt lat="43.61208" lon="6.02417">
        <ele>603.5</ele>
        <time>2023-12-06T11:52:14Z</time>
      </trkpt>
      <trkpt lat="43.61211" lon="6.02424">
        <ele>603.5</ele>
        <time>2023-12-06T11:52:18.000Z</time>
      </trkpt>
      <trkpt lat="43.61214" lon="6.02431">
        <ele>603.4</ele>
        <time>2023-12-06T11:52:22Z</time>
      </trkpt>
      <trkpt lat="43.61213" lon="6.02438">
        <ele>603.6</ele>
        <time>2023-12-06T11:52:25.499Z</time>
      </trkpt>
      <trkpt lat="43.61212" lon="6.02445">
        <ele>603.8</ele>
        <time>2023-12-06T11:52:29Z</time>
      </trkpt>
      <trkpt lat="43.61211" lon="6.02452">
        <ele>604</ele>
        <time>2023-12-06T11:52:33.294Z</time>
      </trkpt>
      <trkpt lat="43.6121" lon="6.02458">
        <ele>604.3</ele>
        <time>2023-12-06T11:52:37Z</time>
      </trkpt>
      <trkpt lat="43.61209" lon="6.02466">
        <ele>604.7</ele>
        <time>2023-12-06T11:52:41.790Z</time>
      </trkpt>
      <trkpt lat="43.61208" lon="6.02473">
        <ele>605.1</ele>
        <time>2023-12-06T11:52:46Z</time>
      </trkpt>
      <trkpt lat="43.61207" lon="6.0248">
        <ele>605.4</ele>
        <time>2023-12-06T11:52:50.673Z</time>
      </trkpt>
      <trkpt lat="43.61205" lon="6.02486">
        <ele>605.8</ele>
        <time>2023-12-06T11:52:55Z</time>
      </trkpt>
      <trkpt lat="43.61203" lon="6.02493">
        <ele>606.4</ele>
        <time>2023-12-06T11:53:00.766Z</time>
      </trkpt>
      <trkpt lat="43.612" lon="6.025">
        <ele>607</ele>
        <time>2023-12-06T11:53:07Z</time>
      </trkpt>
      <trkpt lat="43.61195" lon="6.02503">
        <ele>607.8</ele>
        <time>2023-12-06T11:53:13.650Z</time>
      </trkpt>
      <trkpt lat="43.6119" lon="6.02505">
        <ele>608.3</ele>
        <time>2023-12-06T11:53:20Z</time>
      </trkpt>
      <trkpt lat="43.61185" lon="6.02507">
        <ele>608.9</ele>
        <time>2023-12-06T11:53:25.090Z</time>
      </trkpt>
      <trkpt lat="43.61179" lon="6.02508">
        <ele>609.5</ele>
        <time>2023-12-06T11:53:31Z</time>
      </trkpt>
      <trkpt lat="43.61174" lon="6.02512">
        <ele>610.1</ele>
        <time>2023-12-06T11:53:36.660Z</time>
      </trkpt>
      <trkpt lat="43.61169" lon="6.02515">
        <ele>610.7</ele>
        <time>2023-12-06T11:53:42Z</time>
      </trkpt>
      <trkpt lat="43.61165" lon="6.02522">
        <ele>611.1</ele>
        <time>2023-12-06T11:53:47.745Z</time>
      </trkpt>
      <trkpt lat="43.61161" lon="6.02528">
        <ele>611.4</ele>
        <time>2023-12-06T11:53:53Z</time>
      </trkpt>
      <trkpt lat="43.61158" lon="6.02536">
        <ele>611.5</ele>
        <time>2023-12-06T11:53:58.771Z</time>
      </trkpt>
      <trkpt lat="43.61154" lon="6.02544">
        <ele>611.6</ele>
        <time>2023-12-06T11:54:05Z</time>
      </trkpt>
      <trkpt lat="43.61151" lon="6.02552">
        <ele>611.8</ele>
        <time>2023-12-06T11:54:09.729Z</time>
      </trkpt>
      <trkpt lat="43.61148" lon="6.02559">
        <ele>611.9</ele>
        <time>2023-12-06T11:54:14Z</time>
      </trkpt>
      <trkpt lat="43.61146" lon="6.02565">
        <ele>611.9</ele>
        <time>2023-12-06T11:54:19.546Z</time>
      </trkpt>
      <trkpt lat="43.61143" lon="6.0257">
        <ele>612</ele>
        <time>2023-12-06T11:54:25Z</time>
      </trkpt>
      <trkpt lat="43.61139" lon="6.02572">
        <ele>612.4</ele>
        <time>2023-12-06T11:54:30.396Z</time>
      </trkpt>
      <trkpt lat="43.61134" lon="6.02574">
        <ele>612.5</ele>
        <time>2023-12-06T11:54:37Z</time>
      </trkpt>
      <trkpt lat="43.61128" lon="6.02576">
        <ele>612.7</ele>
        <time>2023-12-06T11:54:41.672Z</time>
      </trkpt>
      <trkpt lat="43.61121" lon="6.02577">
        <ele>612.9</ele>
        <time>2023-12-06T11:54:47Z</time>
      </trkpt>
      <trkpt lat="43.61117" lon="6.02578">
        <ele>613</ele>
        <time>2023-12-06T11:54:50.587Z</time>
      </trkpt>
      <trkpt lat="43.61112" lon="6.02578">
        <ele>613.2</ele>
        <time>2023-12-06T11:54:55Z</time>
      </trkpt>
      <trkpt lat="43.61106" lon="6.02578">
        <ele>613.2</ele>
        <time>2023-12-06T11:54:58.692Z</time>
      </trkpt>
      <trkpt lat="43.61099" lon="6.02578">
        <ele>613.2</ele>
        <time>2023-12-06T11:55:03Z</time>
      </trkpt>
      <trkpt lat="43.61094" lon="6.02578">
        <ele>613.2</ele>
        <time>2023-12-06T11:55:07.000Z</time>
      </trkpt>
      <trkpt lat="43.61089" lon="6.02578">
        <ele>613.2</ele>
        <time>2023-12-06T11:55:11Z</time>
      </trkpt>
      <trkpt lat="43.61084" lon="6.02579">
        <ele>613.2</ele>
        <time>2023-12-06T11:55:13.061Z</time>
      </trkpt>
      <trkpt lat="43.6108" lon="6.0258">
        <ele>613</ele>
        <time>2023-12-06T11:55:14.720Z</time>
      </trkpt>
      <trkpt lat="43.61075" lon="6.02582">
        <ele>612.7</ele>
        <time>2023-12-06T11:55:16.844Z</time>
      </trkpt>
      <trkpt lat="43.61072" lon="6.02588">
        <ele>612.4</ele>
        <time>2023-12-06T11:55:19Z</time>
      </trkpt>
      <trkpt lat="43.61071" lon="6.02595">
        <ele>612.1</ele>
        <time>2023-12-06T11:55:22.017Z</time>
      </trkpt>
      <trkpt lat="43.61073" lon="6.02604">
        <ele>611.9</ele>
        <time>2023-12-06T11:55:26Z</time>
      </trkpt>
      <trkpt lat="43.61077" lon="6.02612">
        <ele>611.8</ele>
        <time>2023-12-06T11:55:33Z</time>
      </trkpt>
      <trkpt lat="43.6108" lon="6.02618">
        <ele>611.9</ele>
        <time>2023-12-06T11:55:36.925Z</time>
      </trkpt>
      <trkpt lat="43.61082" lon="6.02623">
        <ele>612</ele>
        <time>2023-12-06T11:55:40Z</time>
      </trkpt>
      <trkpt lat="43.61085" lon="6.02629">
        <ele>612</ele>
        <time>2023-12-06T11:55:43.925Z</time>
      </trkpt>
      <trkpt lat="43.61087" lon="6.02634">
        <ele>612</ele>
        <time>2023-12-06T11:55:47Z</time>
      </trkpt>
      <trkpt lat="43.61091" lon="6.02639">
        <ele>612</ele>
        <time>2023-12-06T11:55:50.740Z</time>
      </trkpt>
      <trkpt lat="43.61094" lon="6.02644">
        <ele>611.9</ele>
        <time>2023-12-06T11:55:54Z</time>
      </trkpt>
      <trkpt lat="43.61098" lon="6.02654">
        <ele>611.7</ele>
        <time>2023-12-06T11:56:01Z</time>
      </trkpt>
      <trkpt lat="43.61101" lon="6.02659">
        <ele>611.5</ele>
        <time>2023-12-06T11:56:04.500Z</time>
      </trkpt>
      <trkpt lat="43.61104" lon="6.02664">
        <ele>611.3</ele>
        <time>2023-12-06T11:56:08Z</time>
      </trkpt>
      <trkpt lat="43.61108" lon="6.02675">
        <ele>611.1</ele>
        <time>2023-12-06T11:56:15Z</time>
      </trkpt>
      <trkpt lat="43.61112" lon="6.02681">
        <ele>610.9</ele>
        <time>2023-12-06T11:56:18.897Z</time>
      </trkpt>
      <trkpt lat="43.61115" lon="6.02686">
        <ele>610.4</ele>
        <time>2023-12-06T11:56:22Z</time>
      </trkpt>
      <trkpt lat="43.6112" lon="6.02694">
        <ele>609.7</ele>
        <time>2023-12-06T11:56:29Z</time>
      </trkpt>
      <trkpt lat="43.61123" lon="6.02705">
        <ele>609.1</ele>
        <time>2023-12-06T11:56:36Z</time>
      </trkpt>
      <trkpt lat="43.61123" lon="6.02717">
        <ele>608.8</ele>
        <time>2023-12-06T11:56:44Z</time>
      </trkpt>
      <trkpt lat="43.61122" lon="6.02729">
        <ele>608.8</ele>
        <time>2023-12-06T11:56:52Z</time>
      </trkpt>
      <trkpt lat="43.61119" lon="6.02735">
        <ele>609.1</ele>
        <time>2023-12-06T11:56:56.499Z</time>
      </trkpt>
      <trkpt lat="43.61116" lon="6.02741">
        <ele>609.5</ele>
        <time>2023-12-06T11:57:01Z</time>
      </trkpt>
      <trkpt lat="43.61109" lon="6.02748">
        <ele>610</ele>
        <time>2023-12-06T11:57:09Z</time>
      </trkpt>
      <trkpt lat="43.61105" lon="6.02749">
        <ele>610</ele>
        <time>2023-12-06T11:57:12.566Z</time>
      </trkpt>
      <trkpt lat="43.611" lon="6.0275">
        <ele>610</ele>
        <time>2023-12-06T11:57:17Z</time>
      </trkpt>
      <trkpt lat="43.61095" lon="6.02754">
        <ele>609.9</ele>
        <time>2023-12-06T11:57:21.630Z</time>
      </trkpt>
      <trkpt lat="43.6109" lon="6.02757">
        <ele>609.8</ele>
        <time>2023-12-06T11:57:26Z</time>
      </trkpt>
      <trkpt lat="43.61087" lon="6.02762">
        <ele>609.6</ele>
        <time>2023-12-06T11:57:29.725Z</time>
      </trkpt>
      <trkpt lat="43.61083" lon="6.02767">
        <ele>609.4</ele>
        <time>2023-12-06T11:57:34Z</time>
      </trkpt>
      <trkpt lat="43.6108" lon="6.02778">
        <ele>608.9</ele>
        <time>2023-12-06T11:57:42Z</time>
      </trkpt>
      <trkpt lat="43.61082" lon="6.02789">
        <ele>608.5</ele>
        <time>2023-12-06T11:57:50Z</time>
      </trkpt>
      <trkpt lat="43.61082" lon="6.02796">
        <ele>608.3</ele>
        <time>2023-12-06T11:57:54.846Z</time>
      </trkpt>
      <trkpt lat="43.61082" lon="6.02802">
        <ele>608</ele>
        <time>2023-12-06T11:57:59Z</time>
      </trkpt>
      <trkpt lat="43.61084" lon="6.02811">
        <ele>608</ele>
        <time>2023-12-06T11:58:04.798Z</time>
      </trkpt>
      <trkpt lat="43.61088" lon="6.02815">
        <ele>608</ele>
        <time>2023-12-06T11:58:09Z</time>
      </trkpt>
      <trkpt lat="43.61094" lon="6.02818">
        <ele>608</ele>
        <time>2023-12-06T11:58:13.956Z</time>
      </trkpt>
      <trkpt lat="43.61099" lon="6.0282">
        <ele>608</ele>
        <time>2023-12-06T11:58:18Z</time>
      </trkpt>
      <trkpt lat="43.61103" lon="6.02824">
        <ele>608</ele>
        <time>2023-12-06T11:58:22.000Z</time>
      </trkpt>
      <trkpt lat="43.61107" lon="6.02828">
        <ele>608</ele>
        <time>2023-12-06T11:58:26Z</time>
      </trkpt>
      <trkpt lat="43.61111" lon="6.02833">
        <ele>608</ele>
        <time>2023-12-06T11:58:31.000Z</time>
      </trkpt>
      <trkpt lat="43.61115" lon="6.02838">
        <ele>607.9</ele>
        <time>2023-12-06T11:58:36Z</time>
      </trkpt>
      <trkpt lat="43.6112" lon="6.02843">
        <ele>607.7</ele>
        <time>2023-12-06T11:58:40.269Z</time>
      </trkpt>
      <trkpt lat="43.61124" lon="6.02848">
        <ele>607.5</ele>
        <time>2023-12-06T11:58:44Z</time>
      </trkpt>
      <trkpt lat="43.61127" lon="6.02854">
        <ele>607.4</ele>
        <time>2023-12-06T11:58:47.925Z</time>
      </trkpt>
      <trkpt lat="43.61129" lon="6.02859">
        <ele>607.4</ele>
        <time>2023-12-06T11:58:51Z</time>
      </trkpt>
      <trkpt lat="43.61131" lon="6.02871">
        <ele>607.3</ele>
        <time>2023-12-06T11:58:58Z</time>
      </trkpt>
      <trkpt lat="43.61132" lon="6.02878">
        <ele>607.3</ele>
        <time>2023-12-06T11:59:02.345Z</time>
      </trkpt>
      <trkpt lat="43.61132" lon="6.02884">
        <ele>607.2</ele>
        <time>2023-12-06T11:59:06Z</time>
      </trkpt>
      <trkpt lat="43.61133" lon="6.02891">
        <ele>607.3</ele>
        <time>2023-12-06T11:59:09.802Z</time>
      </trkpt>
      <trkpt lat="43.61133" lon="6.02897">
        <ele>607.4</ele>
        <time>2023-12-06T11:59:13Z</time>
      </trkpt>
      <trkpt lat="43.61132" lon="6.02904">
        <ele>607.5</ele>
        <time>2023-12-06T11:59:16.893Z</time>
      </trkpt>
      <trkpt lat="43.6113" lon="6.02911">
        <ele>607.6</ele>
        <time>2023-12-06T11:59:21Z</time>
      </trkpt>
      <trkpt lat="43.61129" lon="6.02918">
        <ele>607.6</ele>
        <time>2023-12-06T11:59:25.673Z</time>
      </trkpt>
      <trkpt lat="43.61127" lon="6.02924">
        <ele>607.6</ele>
        <time>2023-12-06T11:59:30Z</time>
      </trkpt>
      <trkpt lat="43.61127" lon="6.02933">
        <ele>607.6</ele>
        <time>2023-12-06T11:59:36.462Z</time>
      </trkpt>
      <trkpt lat="43.61126" lon="6.02942">
        <ele>607.5</ele>
        <time>2023-12-06T11:59:43Z</time>
      </trkpt>
      <trkpt lat="43.61125" lon="6.0295">
        <ele>607.6</ele>
        <time>2023-12-06T11:59:48.189Z</time>
      </trkpt>
      <trkpt lat="43.61123" lon="6.02957">
        <ele>607.6</ele>
        <time>2023-12-06T11:59:53Z</time>
      </trkpt>
      <trkpt lat="43.61125" lon="6.02965">
        <ele>607.9</ele>
        <time>2023-12-06T11:59:58.500Z</time>
      </trkpt>
      <trkpt lat="43.61127" lon="6.02973">
        <ele>608.2</ele>
        <time>2023-12-06T12:00:04Z</time>
      </trkpt>
      <trkpt lat="43.61131" lon="6.0298">
        <ele>608.7</ele>
        <time>2023-12-06T12:00:09.500Z</time>
      </trkpt>
      <trkpt lat="43.61135" lon="6.02987">
        <ele>609.3</ele>
        <time>2023-12-06T12:00:15Z</time>
      </trkpt>
      <trkpt lat="43.61139" lon="6.02995">
        <ele>609.8</ele>
        <time>2023-12-06T12:00:20.500Z</time>
      </trkpt>
      <trkpt lat="43.61143" lon="6.03003">
        <ele>610.1</ele>
        <time>2023-12-06T12:00:26Z</time>
      </trkpt>
      <trkpt lat="43.61147" lon="6.0301">
        <ele>610.4</ele>
        <time>2023-12-06T12:00:31.501Z</time>
      </trkpt>
      <trkpt lat="43.6115" lon="6.03016">
        <ele>610.8</ele>
        <time>2023-12-06T12:00:36Z</time>
      </trkpt>
      <trkpt lat="43.61151" lon="6.03023">
        <ele>611.2</ele>
        <time>2023-12-06T12:00:41.000Z</time>
      </trkpt>
      <trkpt lat="43.61152" lon="6.0303">
        <ele>611.6</ele>
        <time>2023-12-06T12:00:46Z</time>
      </trkpt>
      <trkpt lat="43.61152" lon="6.03037">
        <ele>611.8</ele>
        <time>2023-12-06T12:00:50.952Z</time>
      </trkpt>
      <trkpt lat="43.61151" lon="6.03044">
        <ele>612</ele>
        <time>2023-12-06T12:00:56Z</time>
      </trkpt>
      <trkpt lat="43.61152" lon="6.03053">
        <ele>612.4</ele>
        <time>2023-12-06T12:01:01.026Z</time>
      </trkpt>
      <trkpt lat="43.61155" lon="6.03061">
        <ele>612.7</ele>
        <time>2023-12-06T12:01:06Z</time>
      </trkpt>
      <trkpt lat="43.6116" lon="6.03069">
        <ele>613.1</ele>
        <time>2023-12-06T12:01:12.451Z</time>
      </trkpt>
      <trkpt lat="43.61164" lon="6.03074">
        <ele>613.5</ele>
        <time>2023-12-06T12:01:17Z</time>
      </trkpt>
      <trkpt lat="43.61168" lon="6.0308">
        <ele>613.9</ele>
        <time>2023-12-06T12:01:22.010Z</time>
      </trkpt>
      <trkpt lat="43.61171" lon="6.03085">
        <ele>614.2</ele>
        <time>2023-12-06T12:01:26Z</time>
      </trkpt>
      <trkpt lat="43.61175" lon="6.03091">
        <ele>614.6</ele>
        <time>2023-12-06T12:01:31.500Z</time>
      </trkpt>
      <trkpt lat="43.61179" lon="6.03097">
        <ele>614.9</ele>
        <time>2023-12-06T12:01:37Z</time>
      </trkpt>
      <trkpt lat="43.61183" lon="6.03102">
        <ele>615.2</ele>
        <time>2023-12-06T12:01:42.343Z</time>
      </trkpt>
      <trkpt lat="43.61186" lon="6.03107">
        <ele>615.5</ele>
        <time>2023-12-06T12:01:47Z</time>
      </trkpt>
      <trkpt lat="43.6119" lon="6.03114">
        <ele>615.9</ele>
        <time>2023-12-06T12:01:52.745Z</time>
      </trkpt>
      <trkpt lat="43.61194" lon="6.0312">
        <ele>616.3</ele>
        <time>2023-12-06T12:01:58Z</time>
      </trkpt>
      <trkpt lat="43.61198" lon="6.03125">
        <ele>616.6</ele>
        <time>2023-12-06T12:02:03.640Z</time>
      </trkpt>
      <trkpt lat="43.61201" lon="6.03129">
        <ele>616.9</ele>
        <time>2023-12-06T12:02:08Z</time>
      </trkpt>
      <trkpt lat="43.61205" lon="6.0314">
        <ele>617.4</ele>
        <time>2023-12-06T12:02:17Z</time>
      </trkpt>
      <trkpt lat="43.61204" lon="6.03147">
        <ele>617.3</ele>
        <time>2023-12-06T12:02:20.999Z</time>
      </trkpt>
      <trkpt lat="43.61203" lon="6.03154">
        <ele>617.3</ele>
        <time>2023-12-06T12:02:25Z</time>
      </trkpt>
      <trkpt lat="43.61203" lon="6.03161">
        <ele>617.3</ele>
        <time>2023-12-06T12:02:28.724Z</time>
      </trkpt>
      <trkpt lat="43.61202" lon="6.03167">
        <ele>617.3</ele>
        <time>2023-12-06T12:02:32Z</time>
      </trkpt>
      <trkpt lat="43.61203" lon="6.03174">
        <ele>617.3</ele>
        <time>2023-12-06T12:02:36.345Z</time>
      </trkpt>
      <trkpt lat="43.61203" lon="6.0318">
        <ele>617.3</ele>
        <time>2023-12-06T12:02:40Z</time>
      </trkpt>
      <trkpt lat="43.61205" lon="6.03187">
        <ele>617.4</ele>
        <time>2023-12-06T12:02:44.400Z</time>
      </trkpt>
      <trkpt lat="43.61206" lon="6.03193">
        <ele>617.4</ele>
        <time>2023-12-06T12:02:48Z</time>
      </trkpt>
      <trkpt lat="43.61208" lon="6.03199">
        <ele>617.4</ele>
        <time>2023-12-06T12:02:51.616Z</time>
      </trkpt>
      <trkpt lat="43.61213" lon="6.03206">
        <ele>617.5</ele>
        <time>2023-12-06T12:02:57Z</time>
      </trkpt>
      <trkpt lat="43.61218" lon="6.0321">
        <ele>617.8</ele>
        <time>2023-12-06T12:03:01.500Z</time>
      </trkpt>
      <trkpt lat="43.61223" lon="6.03214">
        <ele>618</ele>
        <time>2023-12-06T12:03:06Z</time>
      </trkpt>
      <trkpt lat="43.61228" lon="6.03219">
        <ele>618.4</ele>
        <time>2023-12-06T12:03:11.336Z</time>
      </trkpt>
      <trkpt lat="43.61232" lon="6.03224">
        <ele>618.7</ele>
        <time>2023-12-06T12:03:16Z</time>
      </trkpt>
      <trkpt lat="43.61236" lon="6.0323">
        <ele>618.9</ele>
        <time>2023-12-06T12:03:20.703Z</time>
      </trkpt>
      <trkpt lat="43.6124" lon="6.03235">
        <ele>619</ele>
        <time>2023-12-06T12:03:25Z</time>
      </trkpt>
      <trkpt lat="43.61244" lon="6.03241">
        <ele>619</ele>
        <time>2023-12-06T12:03:29.500Z</time>
      </trkpt>
      <trkpt lat="43.61248" lon="6.03247">
        <ele>619</ele>
        <time>2023-12-06T12:03:34Z</time>
      </trkpt>
      <trkpt lat="43.61252" lon="6.03253">
        <ele>619.1</ele>
        <time>2023-12-06T12:03:40.124Z</time>
      </trkpt>
      <trkpt lat="43.61255" lon="6.03258">
        <ele>619.3</ele>
        <time>2023-12-06T12:03:45Z</time>
      </trkpt>
      <trkpt lat="43.6126" lon="6.03264">
        <ele>619.5</ele>
        <time>2023-12-06T12:03:50.000Z</time>
      </trkpt>
      <trkpt lat="43.61265" lon="6.0327">
        <ele>619.7</ele>
        <time>2023-12-06T12:03:55Z</time>
      </trkpt>
      <trkpt lat="43.6127" lon="6.03275">
        <ele>619.9</ele>
        <time>2023-12-06T12:03:59.802Z</time>
      </trkpt>
      <trkpt lat="43.61274" lon="6.0328">
        <ele>620.1</ele>
        <time>2023-12-06T12:04:04Z</time>
      </trkpt>
      <trkpt lat="43.61277" lon="6.03288">
        <ele>620.3</ele>
        <time>2023-12-06T12:04:09.780Z</time>
      </trkpt>
      <trkpt lat="43.6128" lon="6.03295">
        <ele>620.5</ele>
        <time>2023-12-06T12:04:15Z</time>
      </trkpt>
      <trkpt lat="43.61283" lon="6.03303">
        <ele>620.5</ele>
        <time>2023-12-06T12:04:20.379Z</time>
      </trkpt>
      <trkpt lat="43.61285" lon="6.03312">
        <ele>620.8</ele>
        <time>2023-12-06T12:04:26Z</time>
      </trkpt>
      <trkpt lat="43.61286" lon="6.03324">
        <ele>621.3</ele>
        <time>2023-12-06T12:04:36Z</time>
      </trkpt>
      <trkpt lat="43.61286" lon="6.03332">
        <ele>621.6</ele>
        <time>2023-12-06T12:04:41.866Z</time>
      </trkpt>
      <trkpt lat="43.61286" lon="6.03339">
        <ele>622</ele>
        <time>2023-12-06T12:04:47Z</time>
      </trkpt>
      <trkpt lat="43.61286" lon="6.03349">
        <ele>622.4</ele>
        <time>2023-12-06T12:04:52.150Z</time>
      </trkpt>
      <trkpt lat="43.61288" lon="6.03358">
        <ele>622.8</ele>
        <time>2023-12-06T12:04:57Z</time>
      </trkpt>
      <trkpt lat="43.61292" lon="6.03368">
        <ele>623.4</ele>
        <time>2023-12-06T12:05:06Z</time>
      </trkpt>
      <trkpt lat="43.61295" lon="6.03374">
        <ele>623.7</ele>
        <time>2023-12-06T12:05:10.197Z</time>
      </trkpt>
      <trkpt lat="43.61297" lon="6.0338">
        <ele>624.2</ele>
        <time>2023-12-06T12:05:14Z</time>
      </trkpt>
      <trkpt lat="43.61299" lon="6.03386">
        <ele>624.6</ele>
        <time>2023-12-06T12:05:18.500Z</time>
      </trkpt>
      <trkpt lat="43.61301" lon="6.03392">
        <ele>625.1</ele>
        <time>2023-12-06T12:05:23Z</time>
      </trkpt>
      <trkpt lat="43.61304" lon="6.03397">
        <ele>625.5</ele>
        <time>2023-12-06T12:05:27.000Z</time>
      </trkpt>
      <trkpt lat="43.61307" lon="6.03402">
        <ele>625.9</ele>
        <time>2023-12-06T12:05:31Z</time>
      </trkpt>
      <trkpt lat="43.61312" lon="6.0341">
        <ele>626.5</ele>
        <time>2023-12-06T12:05:39Z</time>
      </trkpt>
      <trkpt lat="43.61315" lon="6.03416">
        <ele>627</ele>
        <time>2023-12-06T12:05:45.000Z</time>
      </trkpt>
      <trkpt lat="43.61318" lon="6.03422">
        <ele>627.4</ele>
        <time>2023-12-06T12:05:51Z</time>
      </trkpt>
      <trkpt lat="43.61323" lon="6.03432">
        <ele>628.1</ele>
        <time>2023-12-06T12:05:59Z</time>
      </trkpt>
      <trkpt lat="43.61328" lon="6.03441">
        <ele>628.8</ele>
        <time>2023-12-06T12:06:07Z</time>
      </trkpt>
      <trkpt lat="43.6133" lon="6.03447">
        <ele>629.2</ele>
        <time>2023-12-06T12:06:11.500Z</time>
      </trkpt>
      <trkpt lat="43.61332" lon="6.03453">
        <ele>629.6</ele>
        <time>2023-12-06T12:06:16Z</time>
      </trkpt>
      <trkpt lat="43.61334" lon="6.03465">
        <ele>630.5</ele>
        <time>2023-12-06T12:06:25Z</time>
      </trkpt>
      <trkpt lat="43.61337" lon="6.03476">
        <ele>631.2</ele>
        <time>2023-12-06T12:06:34Z</time>
      </trkpt>
      <trkpt lat="43.61338" lon="6.03484">
        <ele>631.5</ele>
        <time>2023-12-06T12:06:38.500Z</time>
      </trkpt>
      <trkpt lat="43.61339" lon="6.03492">
        <ele>631.9</ele>
        <time>2023-12-06T12:06:43Z</time>
      </trkpt>
      <trkpt lat="43.61341" lon="6.03499">
        <ele>632.2</ele>
        <time>2023-12-06T12:06:48.500Z</time>
      </trkpt>
      <trkpt lat="43.61342" lon="6.03505">
        <ele>632.6</ele>
        <time>2023-12-06T12:06:53Z</time>
      </trkpt>
      <trkpt lat="43.61343" lon="6.03514">
        <ele>633.2</ele>
        <time>2023-12-06T12:07:03Z</time>
      </trkpt>
      <trkpt lat="43.61345" lon="6.03521">
        <ele>633.6</ele>
        <time>2023-12-06T12:07:07.392Z</time>
      </trkpt>
      <trkpt lat="43.61347" lon="6.03527">
        <ele>634</ele>
        <time>2023-12-06T12:07:11.248Z</time>
      </trkpt>
      <trkpt lat="43.61347" lon="6.0353">
        <ele>634.1</ele>
        <time>2023-12-06T12:07:13Z</time>
      </trkpt>
      <trkpt lat="43.6135" lon="6.03537">
        <ele>634.5</ele>
        <time>2023-12-06T12:07:22Z</time>
      </trkpt>
      <trkpt lat="43.61352" lon="6.03549">
        <ele>635.3</ele>
        <time>2023-12-06T12:07:31Z</time>
      </trkpt>
      <trkpt lat="43.61355" lon="6.03559">
        <ele>635.9</ele>
        <time>2023-12-06T12:09:31Z</time>
      </trkpt>
      <trkpt lat="43.61356" lon="6.03564">
        <ele>636.1</ele>
        <time>2023-12-06T12:10:16Z</time>
      </trkpt>
      <trkpt lat="43.61359" lon="6.03574">
        <ele>636.6</ele>
        <time>2023-12-06T12:10:36Z</time>
      </trkpt>
      <trkpt lat="43.61361" lon="6.03581">
        <ele>636.9</ele>
        <time>2023-12-06T12:10:41.500Z</time>
      </trkpt>
      <trkpt lat="43.61362" lon="6.03587">
        <ele>637.3</ele>
        <time>2023-12-06T12:10:46Z</time>
      </trkpt>
      <trkpt lat="43.61366" lon="6.03597">
        <ele>638</ele>
        <time>2023-12-06T12:10:56Z</time>
      </trkpt>
      <trkpt lat="43.61368" lon="6.03603">
        <ele>638.4</ele>
        <time>2023-12-06T12:11:01.000Z</time>
      </trkpt>
      <trkpt lat="43.6137" lon="6.03609">
        <ele>638.8</ele>
        <time>2023-12-06T12:11:06Z</time>
      </trkpt>
      <trkpt lat="43.61374" lon="6.0362">
        <ele>639.3</ele>
        <time>2023-12-06T12:11:15Z</time>
      </trkpt>
      <trkpt lat="43.61377" lon="6.03626">
        <ele>639.5</ele>
        <time>2023-12-06T12:11:20.046Z</time>
      </trkpt>
      <trkpt lat="43.61379" lon="6.03631">
        <ele>639.7</ele>
        <time>2023-12-06T12:11:24Z</time>
      </trkpt>
      <trkpt lat="43.61381" lon="6.03637">
        <ele>639.9</ele>
        <time>2023-12-06T12:11:28.658Z</time>
      </trkpt>
      <trkpt lat="43.61382" lon="6.03643">
        <ele>640.3</ele>
        <time>2023-12-06T12:11:33Z</time>
      </trkpt>
      <trkpt lat="43.61384" lon="6.03649">
        <ele>640.7</ele>
        <time>2023-12-06T12:11:37.658Z</time>
      </trkpt>
      <trkpt lat="43.61385" lon="6.03655">
        <ele>641.1</ele>
        <time>2023-12-06T12:11:42Z</time>
      </trkpt>
      <trkpt lat="43.61389" lon="6.03666">
        <ele>642</ele>
        <time>2023-12-06T12:11:51Z</time>
      </trkpt>
      <trkpt lat="43.61391" lon="6.03673">
        <ele>642.5</ele>
        <time>2023-12-06T12:11:56.500Z</time>
      </trkpt>
      <trkpt lat="43.61392" lon="6.03679">
        <ele>643</ele>
        <time>2023-12-06T12:12:01Z</time>
      </trkpt>
      <trkpt lat="43.61395" lon="6.0369">
        <ele>643.9</ele>
        <time>2023-12-06T12:12:11Z</time>
      </trkpt>
      <trkpt lat="43.61397" lon="6.03697">
        <ele>644.5</ele>
        <time>2023-12-06T12:12:16.858Z</time>
      </trkpt>
      <trkpt lat="43.61399" lon="6.03703">
        <ele>645.3</ele>
        <time>2023-12-06T12:12:22Z</time>
      </trkpt>
      <trkpt lat="43.61403" lon="6.03712">
        <ele>646.4</ele>
        <time>2023-12-06T12:12:32Z</time>
      </trkpt>
      <trkpt lat="43.61405" lon="6.03718">
        <ele>647.1</ele>
        <time>2023-12-06T12:12:37.000Z</time>
      </trkpt>
      <trkpt lat="43.61407" lon="6.03724">
        <ele>647.8</ele>
        <time>2023-12-06T12:12:42Z</time>
      </trkpt>
      <trkpt lat="43.61411" lon="6.03729">
        <ele>648.2</ele>
        <time>2023-12-06T12:12:47.076Z</time>
      </trkpt>
      <trkpt lat="43.61414" lon="6.03733">
        <ele>648.6</ele>
        <time>2023-12-06T12:12:51Z</time>
      </trkpt>
      <trkpt lat="43.61417" lon="6.03739">
        <ele>649.2</ele>
        <time>2023-12-06T12:12:55.760Z</time>
      </trkpt>
      <trkpt lat="43.6142" lon="6.03744">
        <ele>649.7</ele>
        <time>2023-12-06T12:13:00Z</time>
      </trkpt>
      <trkpt lat="43.61424" lon="6.03754">
        <ele>650.6</ele>
        <time>2023-12-06T12:13:10Z</time>
      </trkpt>
      <trkpt lat="43.61426" lon="6.0376">
        <ele>651.1</ele>
        <time>2023-12-06T12:13:15.500Z</time>
      </trkpt>
      <trkpt lat="43.61428" lon="6.03766">
        <ele>651.6</ele>
        <time>2023-12-06T12:13:21Z</time>
      </trkpt>
      <trkpt lat="43.61431" lon="6.03777">
        <ele>652.5</ele>
        <time>2023-12-06T12:13:31Z</time>
      </trkpt>
      <trkpt lat="43.61433" lon="6.03783">
        <ele>652.9</ele>
        <time>2023-12-06T12:13:36.175Z</time>
      </trkpt>
      <trkpt lat="43.61434" lon="6.03789">
        <ele>653.4</ele>
        <time>2023-12-06T12:13:41Z</time>
      </trkpt>
      <trkpt lat="43.61436" lon="6.03796">
        <ele>654</ele>
        <time>2023-12-06T12:13:46.500Z</time>
      </trkpt>
      <trkpt lat="43.61437" lon="6.03802">
        <ele>654.5</ele>
        <time>2023-12-06T12:13:51Z</time>
      </trkpt>
      <trkpt lat="43.61438" lon="6.03809">
        <ele>655</ele>
        <time>2023-12-06T12:13:55.542Z</time>
      </trkpt>
      <trkpt lat="43.61438" lon="6.03816">
        <ele>655.4</ele>
        <time>2023-12-06T12:14:00Z</time>
      </trkpt>
      <trkpt lat="43.61439" lon="6.03823">
        <ele>655.9</ele>
        <time>2023-12-06T12:14:04.888Z</time>
      </trkpt>
      <trkpt lat="43.61439" lon="6.03829">
        <ele>656.3</ele>
        <time>2023-12-06T12:14:09Z</time>
      </trkpt>
      <trkpt lat="43.6144" lon="6.03836">
        <ele>656.7</ele>
        <time>2023-12-06T12:14:13.542Z</time>
      </trkpt>
      <trkpt lat="43.6144" lon="6.03843">
        <ele>657</ele>
        <time>2023-12-06T12:14:18Z</time>
      </trkpt>
      <trkpt lat="43.61442" lon="6.03849">
        <ele>657.4</ele>
        <time>2023-12-06T12:14:22.658Z</time>
      </trkpt>
      <trkpt lat="43.61443" lon="6.03855">
        <ele>657.7</ele>
        <time>2023-12-06T12:14:27Z</time>
      </trkpt>
      <trkpt lat="43.61445" lon="6.03861">
        <ele>658</ele>
        <time>2023-12-06T12:14:31.658Z</time>
      </trkpt>
      <trkpt lat="43.61446" lon="6.03867">
        <ele>658.1</ele>
        <time>2023-12-06T12:14:36Z</time>
      </trkpt>
      <trkpt lat="43.61448" lon="6.03879">
        <ele>658.2</ele>
        <time>2023-12-06T12:14:44Z</time>
      </trkpt>
      <trkpt lat="43.61451" lon="6.03885">
        <ele>658.4</ele>
        <time>2023-12-06T12:14:48.485Z</time>
      </trkpt>
      <trkpt lat="43.61453" lon="6.0389">
        <ele>658.6</ele>
        <time>2023-12-06T12:14:52Z</time>
      </trkpt>
      <trkpt lat="43.61455" lon="6.03896">
        <ele>658.8</ele>
        <time>2023-12-06T12:14:56.658Z</time>
      </trkpt>
      <trkpt lat="43.61456" lon="6.03902">
        <ele>659</ele>
        <time>2023-12-06T12:15:01Z</time>
      </trkpt>
      <trkpt lat="43.6146" lon="6.03913">
        <ele>659.6</ele>
        <time>2023-12-06T12:15:10Z</time>
      </trkpt>
      <trkpt lat="43.61462" lon="6.0392">
        <ele>659.9</ele>
        <time>2023-12-06T12:15:15.325Z</time>
      </trkpt>
      <trkpt lat="43.61464" lon="6.03926">
        <ele>660.2</ele>
        <time>2023-12-06T12:15:20Z</time>
      </trkpt>
      <trkpt lat="43.61466" lon="6.03933">
        <ele>660.5</ele>
        <time>2023-12-06T12:15:24.500Z</time>
      </trkpt>
      <trkpt lat="43.61468" lon="6.0394">
        <ele>660.7</ele>
        <time>2023-12-06T12:15:29Z</time>
      </trkpt>
      <trkpt lat="43.6147" lon="6.03947">
        <ele>660.9</ele>
        <time>2023-12-06T12:15:33.792Z</time>
      </trkpt>
      <trkpt lat="43.61472" lon="6.03953">
        <ele>661.3</ele>
        <time>2023-12-06T12:15:38Z</time>
      </trkpt>
      <trkpt lat="43.61475" lon="6.03959">
        <ele>661.8</ele>
        <time>2023-12-06T12:15:43.246Z</time>
      </trkpt>
      <trkpt lat="43.61477" lon="6.03965">
        <ele>662.3</ele>
        <time>2023-12-06T12:15:48Z</time>
      </trkpt>
      <trkpt lat="43.61479" lon="6.03972">
        <ele>662.7</ele>
        <time>2023-12-06T12:15:52.792Z</time>
      </trkpt>
      <trkpt lat="43.61481" lon="6.03978">
        <ele>662.7</ele>
        <time>2023-12-06T12:15:57Z</time>
      </trkpt>
      <trkpt lat="43.61484" lon="6.03984">
        <ele>662.8</ele>
        <time>2023-12-06T12:16:01.722Z</time>
      </trkpt>
      <trkpt lat="43.61486" lon="6.0399">
        <ele>662.8</ele>
        <time>2023-12-06T12:16:06Z</time>
      </trkpt>
      <trkpt lat="43.61489" lon="6.03996">
        <ele>662.9</ele>
        <time>2023-12-06T12:16:10.722Z</time>
      </trkpt>
      <trkpt lat="43.61491" lon="6.04002">
        <ele>663</ele>
        <time>2023-12-06T12:16:15Z</time>
      </trkpt>
      <trkpt lat="43.61494" lon="6.04008">
        <ele>663</ele>
        <time>2023-12-06T12:16:19.722Z</time>
      </trkpt>
      <trkpt lat="43.61496" lon="6.04014">
        <ele>663.1</ele>
        <time>2023-12-06T12:16:24Z</time>
      </trkpt>
      <trkpt lat="43.61499" lon="6.0402">
        <ele>663.2</ele>
        <time>2023-12-06T12:16:28.500Z</time>
      </trkpt>
      <trkpt lat="43.61502" lon="6.04026">
        <ele>663.4</ele>
        <time>2023-12-06T12:16:33Z</time>
      </trkpt>
      <trkpt lat="43.61505" lon="6.04033">
        <ele>663.3</ele>
        <time>2023-12-06T12:16:37.675Z</time>
      </trkpt>
      <trkpt lat="43.61507" lon="6.0404">
        <ele>663.2</ele>
        <time>2023-12-06T12:16:42Z</time>
      </trkpt>
      <trkpt lat="43.61509" lon="6.04046">
        <ele>663.2</ele>
        <time>2023-12-06T12:16:46.000Z</time>
      </trkpt>
      <trkpt lat="43.61511" lon="6.04052">
        <ele>663.2</ele>
        <time>2023-12-06T12:16:50Z</time>
      </trkpt>
      <trkpt lat="43.61513" lon="6.04058">
        <ele>663.3</ele>
        <time>2023-12-06T12:16:54.000Z</time>
      </trkpt>
      <trkpt lat="43.61515" lon="6.04064">
        <ele>663.7</ele>
        <time>2023-12-06T12:16:58Z</time>
      </trkpt>
      <trkpt lat="43.61517" lon="6.04076">
        <ele>664.1</ele>
        <time>2023-12-06T12:17:07Z</time>
      </trkpt>
      <trkpt lat="43.61519" lon="6.04083">
        <ele>664.3</ele>
        <time>2023-12-06T12:17:13.050Z</time>
      </trkpt>
      <trkpt lat="43.6152" lon="6.04089">
        <ele>665</ele>
        <time>2023-12-06T12:17:18Z</time>
      </trkpt>
      <trkpt lat="43.61522" lon="6.04098">
        <ele>666</ele>
        <time>2023-12-06T12:17:25.898Z</time>
      </trkpt>
      <trkpt lat="43.61524" lon="6.04106">
        <ele>667</ele>
        <time>2023-12-06T12:17:33Z</time>
      </trkpt>
      <trkpt lat="43.61525" lon="6.04117">
        <ele>667.9</ele>
        <time>2023-12-06T12:17:54Z</time>
      </trkpt>
      <trkpt lat="43.61527" lon="6.04122">
        <ele>668.6</ele>
        <time>2023-12-06T12:18:49Z</time>
      </trkpt>
      <trkpt lat="43.61529" lon="6.0413">
        <ele>669.5</ele>
        <time>2023-12-06T12:18:59.208Z</time>
      </trkpt>
      <trkpt lat="43.6153" lon="6.04138">
        <ele>670.3</ele>
        <time>2023-12-06T12:19:09Z</time>
      </trkpt>
      <trkpt lat="43.61532" lon="6.04147">
        <ele>670.9</ele>
        <time>2023-12-06T12:19:17.133Z</time>
      </trkpt>
      <trkpt lat="43.61533" lon="6.04156">
        <ele>671.5</ele>
        <time>2023-12-06T12:19:25Z</time>
      </trkpt>
      <trkpt lat="43.61535" lon="6.04163">
        <ele>672</ele>
        <time>2023-12-06T12:19:31.159Z</time>
      </trkpt>
      <trkpt lat="43.61536" lon="6.0417">
        <ele>672.6</ele>
        <time>2023-12-06T12:19:37Z</time>
      </trkpt>
      <trkpt lat="43.61539" lon="6.04176">
        <ele>673.2</ele>
        <time>2023-12-06T12:19:43.168Z</time>
      </trkpt>
      <trkpt lat="43.61541" lon="6.04181">
        <ele>673.9</ele>
        <time>2023-12-06T12:19:48Z</time>
      </trkpt>
      <trkpt lat="43.61543" lon="6.04188">
        <ele>674.4</ele>
        <time>2023-12-06T12:19:54.050Z</time>
      </trkpt>
      <trkpt lat="43.61544" lon="6.04194">
        <ele>674.9</ele>
        <time>2023-12-06T12:19:59Z</time>
      </trkpt>
      <trkpt lat="43.61546" lon="6.042">
        <ele>675.4</ele>
        <time>2023-12-06T12:20:04.693Z</time>
      </trkpt>
      <trkpt lat="43.61547" lon="6.04206">
        <ele>675.9</ele>
        <time>2023-12-06T12:20:10Z</time>
      </trkpt>
      <trkpt lat="43.61549" lon="6.04213">
        <ele>676.4</ele>
        <time>2023-12-06T12:20:15.646Z</time>
      </trkpt>
      <trkpt lat="43.6155" lon="6.0422">
        <ele>676.9</ele>
        <time>2023-12-06T12:20:21Z</time>
      </trkpt>
      <trkpt lat="43.61552" lon="6.04227">
        <ele>677.4</ele>
        <time>2023-12-06T12:20:26.500Z</time>
      </trkpt>
      <trkpt lat="43.61553" lon="6.04233">
        <ele>677.9</ele>
        <time>2023-12-06T12:20:31Z</time>
      </trkpt>
      <trkpt lat="43.61554" lon="6.04241">
        <ele>678.4</ele>
        <time>2023-12-06T12:20:36.365Z</time>
      </trkpt>
      <trkpt lat="43.61559" lon="6.04246">
        <ele>679.4</ele>
        <time>2023-12-06T12:20:42Z</time>
      </trkpt>
      <trkpt lat="43.61566" lon="6.04249">
        <ele>680.5</ele>
        <time>2023-12-06T12:20:56Z</time>
      </trkpt>
      <trkpt lat="43.61572" lon="6.04252">
        <ele>681.4</ele>
        <time>2023-12-06T12:21:02.058Z</time>
      </trkpt>
      <trkpt lat="43.61577" lon="6.04254">
        <ele>682.2</ele>
        <time>2023-12-06T12:21:07Z</time>
      </trkpt>
      <trkpt lat="43.61585" lon="6.04256">
        <ele>683.4</ele>
        <time>2023-12-06T12:21:21Z</time>
      </trkpt>
      <trkpt lat="43.61591" lon="6.04255">
        <ele>684.2</ele>
        <time>2023-12-06T12:21:28.080Z</time>
      </trkpt>
      <trkpt lat="43.61596" lon="6.04254">
        <ele>684.9</ele>
        <time>2023-12-06T12:21:34Z</time>
      </trkpt>
      <trkpt lat="43.61601" lon="6.04252">
        <ele>685.5</ele>
        <time>2023-12-06T12:21:40.402Z</time>
      </trkpt>
      <trkpt lat="43.61605" lon="6.04249">
        <ele>686.1</ele>
        <time>2023-12-06T12:21:46Z</time>
      </trkpt>
      <trkpt lat="43.6161" lon="6.04247">
        <ele>686.6</ele>
        <time>2023-12-06T12:21:52.402Z</time>
      </trkpt>
      <trkpt lat="43.61614" lon="6.04244">
        <ele>687</ele>
        <time>2023-12-06T12:21:58Z</time>
      </trkpt>
      <trkpt lat="43.61619" lon="6.04245">
        <ele>687.3</ele>
        <time>2023-12-06T12:22:04.697Z</time>
      </trkpt>
      <trkpt lat="43.61623" lon="6.04245">
        <ele>687.7</ele>
        <time>2023-12-06T12:22:10Z</time>
      </trkpt>
      <trkpt lat="43.61629" lon="6.04246">
        <ele>688.1</ele>
        <time>2023-12-06T12:22:16.500Z</time>
      </trkpt>
      <trkpt lat="43.61635" lon="6.04247">
        <ele>688.6</ele>
        <time>2023-12-06T12:22:23Z</time>
      </trkpt>
      <trkpt lat="43.61641" lon="6.04248">
        <ele>688.9</ele>
        <time>2023-12-06T12:22:28.500Z</time>
      </trkpt>
      <trkpt lat="43.61647" lon="6.04249">
        <ele>689</ele>
        <time>2023-12-06T12:22:34Z</time>
      </trkpt>
      <trkpt lat="43.61652" lon="6.04252">
        <ele>689</ele>
        <time>2023-12-06T12:22:39.616Z</time>
      </trkpt>
      <trkpt lat="43.61656" lon="6.04254">
        <ele>689.1</ele>
        <time>2023-12-06T12:22:44Z</time>
      </trkpt>
      <trkpt lat="43.61659" lon="6.0426">
        <ele>689.2</ele>
        <time>2023-12-06T12:22:50.168Z</time>
      </trkpt>
      <trkpt lat="43.61661" lon="6.04265">
        <ele>689.4</ele>
        <time>2023-12-06T12:22:55Z</time>
      </trkpt>
      <trkpt lat="43.61663" lon="6.04273">
        <ele>689.7</ele>
        <time>2023-12-06T12:23:00.425Z</time>
      </trkpt>
      <trkpt lat="43.61664" lon="6.0428">
        <ele>689.8</ele>
        <time>2023-12-06T12:23:05Z</time>
      </trkpt>
      <trkpt lat="43.61665" lon="6.04288">
        <ele>689.6</ele>
        <time>2023-12-06T12:23:09.500Z</time>
      </trkpt>
      <trkpt lat="43.61666" lon="6.04296">
        <ele>689.3</ele>
        <time>2023-12-06T12:23:14Z</time>
      </trkpt>
      <trkpt lat="43.61667" lon="6.04303">
        <ele>689.1</ele>
        <time>2023-12-06T12:23:18.345Z</time>
      </trkpt>
      <trkpt lat="43.61667" lon="6.04309">
        <ele>688.9</ele>
        <time>2023-12-06T12:23:22Z</time>
      </trkpt>
      <trkpt lat="43.61669" lon="6.04315">
        <ele>688.6</ele>
        <time>2023-12-06T12:23:26.140Z</time>
      </trkpt>
      <trkpt lat="43.6167" lon="6.04321">
        <ele>688.3</ele>
        <time>2023-12-06T12:23:30Z</time>
      </trkpt>
      <trkpt lat="43.6167" lon="6.0433">
        <ele>687.9</ele>
        <time>2023-12-06T12:23:39Z</time>
      </trkpt>
      <trkpt lat="43.61671" lon="6.04334">
        <ele>687.6</ele>
        <time>2023-12-06T12:29:02Z</time>
      </trkpt>
      <trkpt lat="43.61673" lon="6.04341">
        <ele>686.9</ele>
        <time>2023-12-06T12:30:04.150Z</time>
      </trkpt>
      <trkpt lat="43.61674" lon="6.04347">
        <ele>686.1</ele>
        <time>2023-12-06T12:30:55Z</time>
      </trkpt>
      <trkpt lat="43.61676" lon="6.04354">
        <ele>685.4</ele>
        <time>2023-12-06T12:31:00.133Z</time>
      </trkpt>
      <trkpt lat="43.61677" lon="6.04361">
        <ele>684.6</ele>
        <time>2023-12-06T12:31:05Z</time>
      </trkpt>
      <trkpt lat="43.61679" lon="6.04368">
        <ele>684.1</ele>
        <time>2023-12-06T12:31:09.950Z</time>
      </trkpt>
      <trkpt lat="43.6168" lon="6.04374">
        <ele>683.6</ele>
        <time>2023-12-06T12:31:14Z</time>
      </trkpt>
      <trkpt lat="43.61683" lon="6.0438">
        <ele>683.2</ele>
        <time>2023-12-06T12:31:17.925Z</time>
      </trkpt>
      <trkpt lat="43.61685" lon="6.04385">
        <ele>682.9</ele>
        <time>2023-12-06T12:31:21Z</time>
      </trkpt>
      <trkpt lat="43.61688" lon="6.0439">
        <ele>682.7</ele>
        <time>2023-12-06T12:31:24.500Z</time>
      </trkpt>
      <trkpt lat="43.61691" lon="6.04395">
        <ele>682.8</ele>
        <time>2023-12-06T12:31:28Z</time>
      </trkpt>
      <trkpt lat="43.61694" lon="6.04401">
        <ele>682.9</ele>
        <time>2023-12-06T12:31:31.925Z</time>
      </trkpt>
      <trkpt lat="43.61696" lon="6.04406">
        <ele>682.8</ele>
        <time>2023-12-06T12:31:35Z</time>
      </trkpt>
      <trkpt lat="43.61701" lon="6.04416">
        <ele>682.3</ele>
        <time>2023-12-06T12:31:42Z</time>
      </trkpt>
      <trkpt lat="43.61705" lon="6.04421">
        <ele>682</ele>
        <time>2023-12-06T12:31:45.948Z</time>
      </trkpt>
      <trkpt lat="43.61708" lon="6.04425">
        <ele>681.8</ele>
        <time>2023-12-06T12:31:49Z</time>
      </trkpt>
      <trkpt lat="43.61711" lon="6.0443">
        <ele>681.8</ele>
        <time>2023-12-06T12:31:52.500Z</time>
      </trkpt>
      <trkpt lat="43.61714" lon="6.04435">
        <ele>681.8</ele>
        <time>2023-12-06T12:31:56Z</time>
      </trkpt>
      <trkpt lat="43.61717" lon="6.04441">
        <ele>682</ele>
        <time>2023-12-06T12:32:00.197Z</time>
      </trkpt>
      <trkpt lat="43.61719" lon="6.04447">
        <ele>682.2</ele>
        <time>2023-12-06T12:32:04Z</time>
      </trkpt>
      <trkpt lat="43.61722" lon="6.04453">
        <ele>682.3</ele>
        <time>2023-12-06T12:32:08.197Z</time>
      </trkpt>
      <trkpt lat="43.61724" lon="6.04459">
        <ele>682.1</ele>
        <time>2023-12-06T12:32:12Z</time>
      </trkpt>
      <trkpt lat="43.61725" lon="6.04466">
        <ele>682.2</ele>
        <time>2023-12-06T12:32:15.757Z</time>
      </trkpt>
      <trkpt lat="43.61726" lon="6.04472">
        <ele>682.3</ele>
        <time>2023-12-06T12:32:19Z</time>
      </trkpt>
      <trkpt lat="43.61726" lon="6.04479">
        <ele>682.4</ele>
        <time>2023-12-06T12:32:22.466Z</time>
      </trkpt>
      <trkpt lat="43.61725" lon="6.04486">
        <ele>682.5</ele>
        <time>2023-12-06T12:32:26Z</time>
      </trkpt>
      <trkpt lat="43.61723" lon="6.04492">
        <ele>682.9</ele>
        <time>2023-12-06T12:32:29.499Z</time>
      </trkpt>
      <trkpt lat="43.61721" lon="6.04498">
        <ele>683</ele>
        <time>2023-12-06T12:32:33Z</time>
      </trkpt>
      <trkpt lat="43.61719" lon="6.04504">
        <ele>683</ele>
        <time>2023-12-06T12:32:36.499Z</time>
      </trkpt>
      <trkpt lat="43.61717" lon="6.0451">
        <ele>683.1</ele>
        <time>2023-12-06T12:32:40Z</time>
      </trkpt>
      <trkpt lat="43.61714" lon="6.0452">
        <ele>683.2</ele>
        <time>2023-12-06T12:32:47Z</time>
      </trkpt>
      <trkpt lat="43.61713" lon="6.04526">
        <ele>683.3</ele>
        <time>2023-12-06T12:32:50.377Z</time>
      </trkpt>
      <trkpt lat="43.61711" lon="6.04532">
        <ele>683.7</ele>
        <time>2023-12-06T12:32:54Z</time>
      </trkpt>
      <trkpt lat="43.61709" lon="6.04543">
        <ele>684.6</ele>
        <time>2023-12-06T12:33:02Z</time>
      </trkpt>
      <trkpt lat="43.61708" lon="6.04555">
        <ele>685.5</ele>
        <time>2023-12-06T12:33:09Z</time>
      </trkpt>
      <trkpt lat="43.61707" lon="6.04562">
        <ele>685.5</ele>
        <time>2023-12-06T12:33:12.937Z</time>
      </trkpt>
      <trkpt lat="43.61706" lon="6.04568">
        <ele>685.6</ele>
        <time>2023-12-06T12:33:16.334Z</time>
      </trkpt>
      <trkpt lat="43.61705" lon="6.0458">
        <ele>685.6</ele>
        <time>2023-12-06T12:33:23Z</time>
      </trkpt>
      <trkpt lat="43.61705" lon="6.04587">
        <ele>685.6</ele>
        <time>2023-12-06T12:33:26.724Z</time>
      </trkpt>
      <trkpt lat="43.61704" lon="6.04593">
        <ele>685.5</ele>
        <time>2023-12-06T12:33:30Z</time>
      </trkpt>
      <trkpt lat="43.61704" lon="6.04605">
        <ele>685.4</ele>
        <time>2023-12-06T12:33:38Z</time>
      </trkpt>
      <trkpt lat="43.61703" lon="6.04612">
        <ele>685.4</ele>
        <time>2023-12-06T12:33:43.367Z</time>
      </trkpt>
      <trkpt lat="43.61702" lon="6.04618">
        <ele>685.2</ele>
        <time>2023-12-06T12:33:48Z</time>
      </trkpt>
      <trkpt lat="43.61702" lon="6.04625">
        <ele>685</ele>
        <time>2023-12-06T12:33:55.538Z</time>
      </trkpt>
      <trkpt lat="43.61702" lon="6.04631">
        <ele>684.7</ele>
        <time>2023-12-06T12:34:02Z</time>
      </trkpt>
      <trkpt lat="43.61702" lon="6.0464">
        <ele>684.5</ele>
        <time>2023-12-06T12:34:07.257Z</time>
      </trkpt>
      <trkpt lat="43.61701" lon="6.04648">
        <ele>684.1</ele>
        <time>2023-12-06T12:34:12Z</time>
      </trkpt>
      <trkpt lat="43.61702" lon="6.04656">
        <ele>683.7</ele>
        <time>2023-12-06T12:34:16.832Z</time>
      </trkpt>
      <trkpt lat="43.61702" lon="6.04663">
        <ele>683.4</ele>
        <time>2023-12-06T12:34:21Z</time>
      </trkpt>
      <trkpt lat="43.61703" lon="6.0467">
        <ele>682.9</ele>
        <time>2023-12-06T12:34:25.831Z</time>
      </trkpt>
      <trkpt lat="43.61704" lon="6.04676">
        <ele>682.3</ele>
        <time>2023-12-06T12:34:30Z</time>
      </trkpt>
      <trkpt lat="43.61706" lon="6.04683">
        <ele>681.6</ele>
        <time>2023-12-06T12:34:35.000Z</time>
      </trkpt>
      <trkpt lat="43.61708" lon="6.0469">
        <ele>680.9</ele>
        <time>2023-12-06T12:34:40Z</time>
      </trkpt>
      <trkpt lat="43.61711" lon="6.04696">
        <ele>680.1</ele>
        <time>2023-12-06T12:34:45.000Z</time>
      </trkpt>
      <trkpt lat="43.61714" lon="6.04702">
        <ele>679.3</ele>
        <time>2023-12-06T12:34:50Z</time>
      </trkpt>
      <trkpt lat="43.61716" lon="6.04709">
        <ele>678.6</ele>
        <time>2023-12-06T12:34:55.500Z</time>
      </trkpt>
      <trkpt lat="43.61718" lon="6.04716">
        <ele>677.9</ele>
        <time>2023-12-06T12:35:01Z</time>
      </trkpt>
      <trkpt lat="43.61721" lon="6.04723">
        <ele>677.1</ele>
        <time>2023-12-06T12:35:06.194Z</time>
      </trkpt>
      <trkpt lat="43.61723" lon="6.0473">
        <ele>676.3</ele>
        <time>2023-12-06T12:35:11Z</time>
      </trkpt>
      <trkpt lat="43.61725" lon="6.04738">
        <ele>675.5</ele>
        <time>2023-12-06T12:35:16.614Z</time>
      </trkpt>
      <trkpt lat="43.61726" lon="6.04746">
        <ele>674.6</ele>
        <time>2023-12-06T12:35:22Z</time>
      </trkpt>
      <trkpt lat="43.61727" lon="6.04754">
        <ele>673.8</ele>
        <time>2023-12-06T12:35:26.790Z</time>
      </trkpt>
      <trkpt lat="43.61728" lon="6.04761">
        <ele>672.9</ele>
        <time>2023-12-06T12:35:31Z</time>
      </trkpt>
      <trkpt lat="43.6173" lon="6.04773">
        <ele>671.6</ele>
        <time>2023-12-06T12:35:39Z</time>
      </trkpt>
      <trkpt lat="43.61731" lon="6.0478">
        <ele>670.9</ele>
        <time>2023-12-06T12:35:43.000Z</time>
      </trkpt>
      <trkpt lat="43.61732" lon="6.04787">
        <ele>670.3</ele>
        <time>2023-12-06T12:35:47Z</time>
      </trkpt>
      <trkpt lat="43.61733" lon="6.04799">
        <ele>669.3</ele>
        <time>2023-12-06T12:35:54Z</time>
      </trkpt>
      <trkpt lat="43.61735" lon="6.04805">
        <ele>668.7</ele>
        <time>2023-12-06T12:35:58.140Z</time>
      </trkpt>
      <trkpt lat="43.61736" lon="6.04811">
        <ele>668</ele>
        <time>2023-12-06T12:36:02Z</time>
      </trkpt>
      <trkpt lat="43.6174" lon="6.04822">
        <ele>666.7</ele>
        <time>2023-12-06T12:36:09Z</time>
      </trkpt>
      <trkpt lat="43.61741" lon="6.04829">
        <ele>666.1</ele>
        <time>2023-12-06T12:36:13.294Z</time>
      </trkpt>
      <trkpt lat="43.61742" lon="6.04835">
        <ele>665.5</ele>
        <time>2023-12-06T12:36:17Z</time>
      </trkpt>
      <trkpt lat="43.61744" lon="6.04842">
        <ele>664.9</ele>
        <time>2023-12-06T12:36:21.400Z</time>
      </trkpt>
      <trkpt lat="43.61745" lon="6.04848">
        <ele>664.3</ele>
        <time>2023-12-06T12:36:25Z</time>
      </trkpt>
      <trkpt lat="43.61747" lon="6.04854">
        <ele>663.7</ele>
        <time>2023-12-06T12:36:29.000Z</time>
      </trkpt>
      <trkpt lat="43.61749" lon="6.0486">
        <ele>663.2</ele>
        <time>2023-12-06T12:36:33Z</time>
      </trkpt>
      <trkpt lat="43.6175" lon="6.04871">
        <ele>662.3</ele>
        <time>2023-12-06T12:36:41Z</time>
      </trkpt>
      <trkpt lat="43.61752" lon="6.04882">
        <ele>661.2</ele>
        <time>2023-12-06T12:36:49Z</time>
      </trkpt>
      <trkpt lat="43.61756" lon="6.04892">
        <ele>659.9</ele>
        <time>2023-12-06T12:36:57Z</time>
      </trkpt>
      <trkpt lat="43.61759" lon="6.04903">
        <ele>658.7</ele>
        <time>2023-12-06T12:37:05Z</time>
      </trkpt>
      <trkpt lat="43.61761" lon="6.04915">
        <ele>657.5</ele>
        <time>2023-12-06T12:37:14Z</time>
      </trkpt>
      <trkpt lat="43.61765" lon="6.04926">
        <ele>656.3</ele>
        <time>2023-12-06T12:37:23Z</time>
      </trkpt>
      <trkpt lat="43.61767" lon="6.04932">
        <ele>655.8</ele>
        <time>2023-12-06T12:37:27.140Z</time>
      </trkpt>
      <trkpt lat="43.61768" lon="6.04938">
        <ele>655.4</ele>
        <time>2023-12-06T12:37:31Z</time>
      </trkpt>
      <trkpt lat="43.61771" lon="6.04948">
        <ele>654.7</ele>
        <time>2023-12-06T12:37:38Z</time>
      </trkpt>
      <trkpt lat="43.61772" lon="6.04955">
        <ele>654.5</ele>
        <time>2023-12-06T12:37:42.831Z</time>
      </trkpt>
      <trkpt lat="43.61773" lon="6.04961">
        <ele>654.4</ele>
        <time>2023-12-06T12:37:47Z</time>
      </trkpt>
      <trkpt lat="43.61775" lon="6.04968">
        <ele>654.2</ele>
        <time>2023-12-06T12:37:51.260Z</time>
      </trkpt>
      <trkpt lat="43.61777" lon="6.04974">
        <ele>654.2</ele>
        <time>2023-12-06T12:37:55Z</time>
      </trkpt>
      <trkpt lat="43.61779" lon="6.04983">
        <ele>655.1</ele>
        <time>2023-12-06T12:38:01Z</time>
      </trkpt>
      <trkpt lat="43.61781" lon="6.04994">
        <ele>656.1</ele>
        <time>2023-12-06T12:38:09Z</time>
      </trkpt>
      <trkpt lat="43.6178" lon="6.05006">
        <ele>657.1</ele>
        <time>2023-12-06T12:38:18Z</time>
      </trkpt>
      <trkpt lat="43.6178" lon="6.05014">
        <ele>657.4</ele>
        <time>2023-12-06T12:38:23.500Z</time>
      </trkpt>
      <trkpt lat="43.6178" lon="6.05022">
        <ele>657.8</ele>
        <time>2023-12-06T12:38:29Z</time>
      </trkpt>
      <trkpt lat="43.61781" lon="6.0503">
        <ele>658.1</ele>
        <time>2023-12-06T12:38:34.322Z</time>
      </trkpt>
      <trkpt lat="43.61782" lon="6.05037">
        <ele>658.3</ele>
        <time>2023-12-06T12:38:39Z</time>
      </trkpt>
      <trkpt lat="43.61782" lon="6.05044">
        <ele>658.6</ele>
        <time>2023-12-06T12:38:44.500Z</time>
      </trkpt>
      <trkpt lat="43.61782" lon="6.05051">
        <ele>658.8</ele>
        <time>2023-12-06T12:38:50Z</time>
      </trkpt>
      <trkpt lat="43.61783" lon="6.05059">
        <ele>659</ele>
        <time>2023-12-06T12:38:55.369Z</time>
      </trkpt>
      <trkpt lat="43.61783" lon="6.05066">
        <ele>659.1</ele>
        <time>2023-12-06T12:39:00Z</time>
      </trkpt>
      <trkpt lat="43.61784" lon="6.05074">
        <ele>659.1</ele>
        <time>2023-12-06T12:39:05.322Z</time>
      </trkpt>
      <trkpt lat="43.61785" lon="6.05081">
        <ele>659.2</ele>
        <time>2023-12-06T12:39:10Z</time>
      </trkpt>
      <trkpt lat="43.61786" lon="6.05089">
        <ele>659.4</ele>
        <time>2023-12-06T12:39:15.322Z</time>
      </trkpt>
      <trkpt lat="43.61787" lon="6.05096">
        <ele>659.5</ele>
        <time>2023-12-06T12:39:20Z</time>
      </trkpt>
      <trkpt lat="43.61787" lon="6.05104">
        <ele>659.6</ele>
        <time>2023-12-06T12:39:24.757Z</time>
      </trkpt>
      <trkpt lat="43.61786" lon="6.05111">
        <ele>659.7</ele>
        <time>2023-12-06T12:39:29Z</time>
      </trkpt>
      <trkpt lat="43.61787" lon="6.05118">
        <ele>659.6</ele>
        <time>2023-12-06T12:39:33.542Z</time>
      </trkpt>
      <trkpt lat="43.61787" lon="6.05125">
        <ele>659.5</ele>
        <time>2023-12-06T12:39:38Z</time>
      </trkpt>
      <trkpt lat="43.61787" lon="6.05133">
        <ele>659.4</ele>
        <time>2023-12-06T12:39:42.500Z</time>
      </trkpt>
      <trkpt lat="43.61787" lon="6.05141">
        <ele>659.3</ele>
        <time>2023-12-06T12:39:47Z</time>
      </trkpt>
      <trkpt lat="43.61787" lon="6.05149">
        <ele>659.3</ele>
        <time>2023-12-06T12:39:51.800Z</time>
      </trkpt>
      <trkpt lat="43.61787" lon="6.05156">
        <ele>659.3</ele>
        <time>2023-12-06T12:39:56Z</time>
      </trkpt>
      <trkpt lat="43.61787" lon="6.05164">
        <ele>659.4</ele>
        <time>2023-12-06T12:40:00.757Z</time>
      </trkpt>
      <trkpt lat="43.61786" lon="6.05171">
        <ele>659.5</ele>
        <time>2023-12-06T12:40:05Z</time>
      </trkpt>
      <trkpt lat="43.61787" lon="6.05179">
        <ele>659.7</ele>
        <time>2023-12-06T12:40:09.533Z</time>
      </trkpt>
      <trkpt lat="43.61787" lon="6.05187">
        <ele>659.8</ele>
        <time>2023-12-06T12:40:14Z</time>
      </trkpt>
      <trkpt lat="43.61787" lon="6.05194">
        <ele>660</ele>
        <time>2023-12-06T12:40:19.320Z</time>
      </trkpt>
      <trkpt lat="43.61786" lon="6.052">
        <ele>660.3</ele>
        <time>2023-12-06T12:40:24Z</time>
      </trkpt>
      <trkpt lat="43.61787" lon="6.05207">
        <ele>660.3</ele>
        <time>2023-12-06T12:40:28.500Z</time>
      </trkpt>
      <trkpt lat="43.61788" lon="6.05214">
        <ele>660.3</ele>
        <time>2023-12-06T12:40:33Z</time>
      </trkpt>
      <trkpt lat="43.61788" lon="6.05222">
        <ele>660.6</ele>
        <time>2023-12-06T12:40:37.609Z</time>
      </trkpt>
      <trkpt lat="43.61787" lon="6.0523">
        <ele>661.2</ele>
        <time>2023-12-06T12:40:42.287Z</time>
      </trkpt>
      <trkpt lat="43.61788" lon="6.05238">
        <ele>661.7</ele>
        <time>2023-12-06T12:40:46.965Z</time>
      </trkpt>
      <trkpt lat="43.61788" lon="6.05245">
        <ele>662.2</ele>
        <time>2023-12-06T12:40:51Z</time>
      </trkpt>
      <trkpt lat="43.61787" lon="6.05257">
        <ele>663.3</ele>
        <time>2023-12-06T12:41:00Z</time>
      </trkpt>
      <trkpt lat="43.61786" lon="6.05269">
        <ele>664.6</ele>
        <time>2023-12-06T12:41:10Z</time>
      </trkpt>
      <trkpt lat="43.61785" lon="6.05281">
        <ele>665.9</ele>
        <time>2023-12-06T12:41:20Z</time>
      </trkpt>
      <trkpt lat="43.61785" lon="6.05292">
        <ele>667.4</ele>
        <time>2023-12-06T12:41:29Z</time>
      </trkpt>
      <trkpt lat="43.61785" lon="6.05299">
        <ele>668.3</ele>
        <time>2023-12-06T12:41:34.384Z</time>
      </trkpt>
      <trkpt lat="43.61785" lon="6.05305">
        <ele>669.1</ele>
        <time>2023-12-06T12:41:39Z</time>
      </trkpt>
      <trkpt lat="43.61785" lon="6.05315">
        <ele>670.3</ele>
        <time>2023-12-06T12:41:49Z</time>
      </trkpt>
      <trkpt lat="43.61786" lon="6.05322">
        <ele>671.1</ele>
        <time>2023-12-06T12:41:54.047Z</time>
      </trkpt>
      <trkpt lat="43.61786" lon="6.05329">
        <ele>671.9</ele>
        <time>2023-12-06T12:41:59Z</time>
      </trkpt>
      <trkpt lat="43.61787" lon="6.05341">
        <ele>673.2</ele>
        <time>2023-12-06T12:42:10Z</time>
      </trkpt>
      <trkpt lat="43.61786" lon="6.05352">
        <ele>674.4</ele>
        <time>2023-12-06T12:42:20Z</time>
      </trkpt>
      <trkpt lat="43.61788" lon="6.05361">
        <ele>675.3</ele>
        <time>2023-12-06T12:42:30Z</time>
      </trkpt>
      <trkpt lat="43.61789" lon="6.05368">
        <ele>676</ele>
        <time>2023-12-06T12:42:35.552Z</time>
      </trkpt>
      <trkpt lat="43.61789" lon="6.05375">
        <ele>676.7</ele>
        <time>2023-12-06T12:42:41Z</time>
      </trkpt>
      <trkpt lat="43.61789" lon="6.05386">
        <ele>677.9</ele>
        <time>2023-12-06T12:42:51Z</time>
      </trkpt>
      <trkpt lat="43.61789" lon="6.05398">
        <ele>679</ele>
        <time>2023-12-06T12:43:01Z</time>
      </trkpt>
      <trkpt lat="43.6179" lon="6.05409">
        <ele>680</ele>
        <time>2023-12-06T12:43:11Z</time>
      </trkpt>
      <trkpt lat="43.6179" lon="6.0542">
        <ele>680.9</ele>
        <time>2023-12-06T12:43:21Z</time>
      </trkpt>
      <trkpt lat="43.6179" lon="6.05427">
        <ele>681.2</ele>
        <time>2023-12-06T12:43:26.320Z</time>
      </trkpt>
      <trkpt lat="43.61789" lon="6.05433">
        <ele>681.6</ele>
        <time>2023-12-06T12:43:31Z</time>
      </trkpt>
      <trkpt lat="43.61789" lon="6.0544">
        <ele>681.9</ele>
        <time>2023-12-06T12:43:36.384Z</time>
      </trkpt>
      <trkpt lat="43.61789" lon="6.05446">
        <ele>682.3</ele>
        <time>2023-12-06T12:43:41Z</time>
      </trkpt>
      <trkpt lat="43.61789" lon="6.05458">
        <ele>683.2</ele>
        <time>2023-12-06T12:43:50Z</time>
      </trkpt>
      <trkpt lat="43.61789" lon="6.0547">
        <ele>684</ele>
        <time>2023-12-06T12:43:59Z</time>
      </trkpt>
      <trkpt lat="43.61789" lon="6.05477">
        <ele>684.4</ele>
        <time>2023-12-06T12:44:03.846Z</time>
      </trkpt>
      <trkpt lat="43.61789" lon="6.05483">
        <ele>684.7</ele>
        <time>2023-12-06T12:44:08Z</time>
      </trkpt>
      <trkpt lat="43.61787" lon="6.05495">
        <ele>685.4</ele>
        <time>2023-12-06T12:44:17Z</time>
      </trkpt>
      <trkpt lat="43.61786" lon="6.05502">
        <ele>685.8</ele>
        <time>2023-12-06T12:44:21.499Z</time>
      </trkpt>
      <trkpt lat="43.61785" lon="6.05509">
        <ele>686</ele>
        <time>2023-12-06T12:44:26Z</time>
      </trkpt>
      <trkpt lat="43.61784" lon="6.05521">
        <ele>686.4</ele>
        <time>2023-12-06T12:44:34Z</time>
      </trkpt>
      <trkpt lat="43.61782" lon="6.05533">
        <ele>686.9</ele>
        <time>2023-12-06T12:44:42Z</time>
      </trkpt>
      <trkpt lat="43.61781" lon="6.0554">
        <ele>687</ele>
        <time>2023-12-06T12:44:46.294Z</time>
      </trkpt>
      <trkpt lat="43.6178" lon="6.05546">
        <ele>687.3</ele>
        <time>2023-12-06T12:44:50Z</time>
      </trkpt>
      <trkpt lat="43.61778" lon="6.05558">
        <ele>687.8</ele>
        <time>2023-12-06T12:44:58Z</time>
      </trkpt>
      <trkpt lat="43.61777" lon="6.05565">
        <ele>687.7</ele>
        <time>2023-12-06T12:45:02.380Z</time>
      </trkpt>
      <trkpt lat="43.61775" lon="6.05572">
        <ele>687.5</ele>
        <time>2023-12-06T12:45:07Z</time>
      </trkpt>
      <trkpt lat="43.61774" lon="6.05578">
        <ele>687.4</ele>
        <time>2023-12-06T12:45:10.859Z</time>
      </trkpt>
      <trkpt lat="43.61772" lon="6.05584">
        <ele>687.4</ele>
        <time>2023-12-06T12:45:15Z</time>
      </trkpt>
      <trkpt lat="43.6177" lon="6.0559">
        <ele>687.1</ele>
        <time>2023-12-06T12:45:18.999Z</time>
      </trkpt>
      <trkpt lat="43.61768" lon="6.05596">
        <ele>687</ele>
        <time>2023-12-06T12:45:23Z</time>
      </trkpt>
      <trkpt lat="43.61767" lon="6.05603">
        <ele>686.9</ele>
        <time>2023-12-06T12:45:27.154Z</time>
      </trkpt>
      <trkpt lat="43.61765" lon="6.05609">
        <ele>686.8</ele>
        <time>2023-12-06T12:45:31Z</time>
      </trkpt>
      <trkpt lat="43.61761" lon="6.0562">
        <ele>687.1</ele>
        <time>2023-12-06T12:45:39Z</time>
      </trkpt>
      <trkpt lat="43.6176" lon="6.05626">
        <ele>687.2</ele>
        <time>2023-12-06T12:45:42.859Z</time>
      </trkpt>
      <trkpt lat="43.61758" lon="6.05632">
        <ele>687.4</ele>
        <time>2023-12-06T12:45:47Z</time>
      </trkpt>
      <trkpt lat="43.61754" lon="6.05643">
        <ele>688.2</ele>
        <time>2023-12-06T12:45:55Z</time>
      </trkpt>
      <trkpt lat="43.61752" lon="6.05649">
        <ele>688.5</ele>
        <time>2023-12-06T12:45:58.999Z</time>
      </trkpt>
      <trkpt lat="43.6175" lon="6.05655">
        <ele>688.8</ele>
        <time>2023-12-06T12:46:03Z</time>
      </trkpt>
      <trkpt lat="43.61745" lon="6.05665">
        <ele>688.4</ele>
        <time>2023-12-06T12:46:11Z</time>
      </trkpt>
      <trkpt lat="43.61743" lon="6.05671">
        <ele>688.4</ele>
        <time>2023-12-06T12:46:15.277Z</time>
      </trkpt>
      <trkpt lat="43.6174" lon="6.05677">
        <ele>688.4</ele>
        <time>2023-12-06T12:46:20Z</time>
      </trkpt>
      <trkpt lat="43.61736" lon="6.05687">
        <ele>688.7</ele>
        <time>2023-12-06T12:46:31Z</time>
      </trkpt>
      <trkpt lat="43.61736" lon="6.05691">
        <ele>688.6</ele>
        <time>2023-12-06T12:49:28Z</time>
      </trkpt>
      <trkpt lat="43.61729" lon="6.05689">
        <ele>689.7</ele>
        <time>2023-12-06T12:49:39Z</time>
      </trkpt>
      <trkpt lat="43.6173" lon="6.05694">
        <ele>689.6</ele>
        <time>2023-12-06T12:50:31Z</time>
      </trkpt>
      <trkpt lat="43.61732" lon="6.05699">
        <ele>688.7</ele>
        <time>2023-12-06T12:52:09Z</time>
      </trkpt>
      <trkpt lat="43.61731" lon="6.057">
        <ele>688.8</ele>
        <time>2023-12-06T12:55:06Z</time>
      </trkpt>
      <trkpt lat="43.61727" lon="6.057">
        <ele>689.6</ele>
        <time>2023-12-06T12:57:08Z</time>
      </trkpt>
      <trkpt lat="43.61727" lon="6.05694">
        <ele>690.1</ele>
        <time>2023-12-06T12:57:09.446Z</time>
      </trkpt>
      <trkpt lat="43.61726" lon="6.05699">
        <ele>689.9</ele>
        <time>2023-12-06T12:57:10.696Z</time>
      </trkpt>
      <trkpt lat="43.61724" lon="6.05702">
        <ele>690.1</ele>
        <time>2023-12-06T12:57:11.678Z</time>
      </trkpt>
      <trkpt lat="43.61719" lon="6.05694">
        <ele>690.6</ele>
        <time>2023-12-06T12:57:14.225Z</time>
      </trkpt>
      <trkpt lat="43.61718" lon="6.05698">
        <ele>690.3</ele>
        <time>2023-12-06T12:57:15.245Z</time>
      </trkpt>
      <trkpt lat="43.61722" lon="6.05708">
        <ele>690</ele>
        <time>2023-12-06T12:57:18Z</time>
      </trkpt>
      <trkpt lat="43.61723" lon="6.05713">
        <ele>689.5</ele>
        <time>2023-12-06T12:58:03Z</time>
      </trkpt>
      <trkpt lat="43.61719" lon="6.05716">
        <ele>689.4</ele>
        <time>2023-12-06T12:58:08.999Z</time>
      </trkpt>
      <trkpt lat="43.61715" lon="6.05719">
        <ele>689.1</ele>
        <time>2023-12-06T12:58:15Z</time>
      </trkpt>
      <trkpt lat="43.61711" lon="6.05726">
        <ele>688.6</ele>
        <time>2023-12-06T12:58:22.312Z</time>
      </trkpt>
      <trkpt lat="43.61707" lon="6.05732">
        <ele>688</ele>
        <time>2023-12-06T12:58:29Z</time>
      </trkpt>
      <trkpt lat="43.61704" lon="6.05737">
        <ele>687.6</ele>
        <time>2023-12-06T12:58:33.389Z</time>
      </trkpt>
      <trkpt lat="43.617" lon="6.05741">
        <ele>687.4</ele>
        <time>2023-12-06T12:58:38Z</time>
      </trkpt>
      <trkpt lat="43.61697" lon="6.05747">
        <ele>687.1</ele>
        <time>2023-12-06T12:58:42.945Z</time>
      </trkpt>
      <trkpt lat="43.61693" lon="6.05752">
        <ele>686.9</ele>
        <time>2023-12-06T12:58:48Z</time>
      </trkpt>
      <trkpt lat="43.61689" lon="6.05756">
        <ele>686.6</ele>
        <time>2023-12-06T12:58:52.499Z</time>
      </trkpt>
      <trkpt lat="43.61685" lon="6.0576">
        <ele>686.4</ele>
        <time>2023-12-06T12:58:57Z</time>
      </trkpt>
      <trkpt lat="43.61684" lon="6.05767">
        <ele>686</ele>
        <time>2023-12-06T12:59:03.231Z</time>
      </trkpt>
      <trkpt lat="43.61682" lon="6.05773">
        <ele>685.7</ele>
        <time>2023-12-06T12:59:09Z</time>
      </trkpt>
      <trkpt lat="43.61684" lon="6.05778">
        <ele>685.4</ele>
        <time>2023-12-06T12:59:35Z</time>
      </trkpt>
      <trkpt lat="43.61683" lon="6.05785">
        <ele>684.9</ele>
        <time>2023-12-06T12:59:41.999Z</time>
      </trkpt>
      <trkpt lat="43.61682" lon="6.05792">
        <ele>684.4</ele>
        <time>2023-12-06T12:59:49Z</time>
      </trkpt>
      <trkpt lat="43.61682" lon="6.05803">
        <ele>683.6</ele>
        <time>2023-12-06T13:00:02Z</time>
      </trkpt>
      <trkpt lat="43.61685" lon="6.05809">
        <ele>683</ele>
        <time>2023-12-06T13:00:08.728Z</time>
      </trkpt>
      <trkpt lat="43.61687" lon="6.05814">
        <ele>682.4</ele>
        <time>2023-12-06T13:00:14Z</time>
      </trkpt>
      <trkpt lat="43.61689" lon="6.05826">
        <ele>681</ele>
        <time>2023-12-06T13:00:28Z</time>
      </trkpt>
      <trkpt lat="43.61692" lon="6.05832">
        <ele>680.3</ele>
        <time>2023-12-06T13:00:33.818Z</time>
      </trkpt>
      <trkpt lat="43.61695" lon="6.05837">
        <ele>679.5</ele>
        <time>2023-12-06T13:00:39Z</time>
      </trkpt>
      <trkpt lat="43.61699" lon="6.05848">
        <ele>677.7</ele>
        <time>2023-12-06T13:00:55Z</time>
      </trkpt>
      <trkpt lat="43.61703" lon="6.05853">
        <ele>676.8</ele>
        <time>2023-12-06T13:01:02.332Z</time>
      </trkpt>
      <trkpt lat="43.61706" lon="6.05857">
        <ele>676</ele>
        <time>2023-12-06T13:01:08Z</time>
      </trkpt>
      <trkpt lat="43.61706" lon="6.05864">
        <ele>675.4</ele>
        <time>2023-12-06T13:01:15.538Z</time>
      </trkpt>
      <trkpt lat="43.61706" lon="6.0587">
        <ele>674.6</ele>
        <time>2023-12-06T13:01:22Z</time>
      </trkpt>
      <trkpt lat="43.61706" lon="6.05877">
        <ele>673.6</ele>
        <time>2023-12-06T13:01:28.933Z</time>
      </trkpt>
      <trkpt lat="43.61705" lon="6.05884">
        <ele>672.7</ele>
        <time>2023-12-06T13:01:36Z</time>
      </trkpt>
      <trkpt lat="43.61707" lon="6.05891">
        <ele>671.8</ele>
        <time>2023-12-06T13:01:43.699Z</time>
      </trkpt>
      <trkpt lat="43.61708" lon="6.05898">
        <ele>671</ele>
        <time>2023-12-06T13:01:51Z</time>
      </trkpt>
      <trkpt lat="43.6171" lon="6.05905">
        <ele>670.3</ele>
        <time>2023-12-06T13:02:01.118Z</time>
      </trkpt>
      <trkpt lat="43.61712" lon="6.05911">
        <ele>669.6</ele>
        <time>2023-12-06T13:02:10Z</time>
      </trkpt>
      <trkpt lat="43.61714" lon="6.05918">
        <ele>668.9</ele>
        <time>2023-12-06T13:02:19.900Z</time>
      </trkpt>
      <trkpt lat="43.61715" lon="6.05924">
        <ele>668.2</ele>
        <time>2023-12-06T13:02:28Z</time>
      </trkpt>
      <trkpt lat="43.61718" lon="6.05934">
        <ele>667.1</ele>
        <time>2023-12-06T13:02:54Z</time>
      </trkpt>
      <trkpt lat="43.61712" lon="6.05943">
        <ele>666.2</ele>
        <time>2023-12-06T13:03:05Z</time>
      </trkpt>
      <trkpt lat="43.61714" lon="6.05955">
        <ele>664.5</ele>
        <time>2023-12-06T13:03:21Z</time>
      </trkpt>
      <trkpt lat="43.61714" lon="6.05962">
        <ele>663.5</ele>
        <time>2023-12-06T13:03:30.000Z</time>
      </trkpt>
      <trkpt lat="43.61714" lon="6.05969">
        <ele>662.5</ele>
        <time>2023-12-06T13:03:39Z</time>
      </trkpt>
      <trkpt lat="43.61714" lon="6.05976">
        <ele>661.4</ele>
        <time>2023-12-06T13:03:52.461Z</time>
      </trkpt>
      <trkpt lat="43.61714" lon="6.05982">
        <ele>660.1</ele>
        <time>2023-12-06T13:04:04Z</time>
      </trkpt>
      <trkpt lat="43.61712" lon="6.0599">
        <ele>658.7</ele>
        <time>2023-12-06T13:04:12.668Z</time>
      </trkpt>
      <trkpt lat="43.61709" lon="6.05997">
        <ele>657.5</ele>
        <time>2023-12-06T13:04:21Z</time>
      </trkpt>
      <trkpt lat="43.61707" lon="6.06004">
        <ele>656.2</ele>
        <time>2023-12-06T13:04:28.999Z</time>
      </trkpt>
      <trkpt lat="43.61705" lon="6.06011">
        <ele>654.7</ele>
        <time>2023-12-06T13:04:37Z</time>
      </trkpt>
      <trkpt lat="43.61702" lon="6.06019">
        <ele>653.3</ele>
        <time>2023-12-06T13:04:45.933Z</time>
      </trkpt>
      <trkpt lat="43.61699" lon="6.06026">
        <ele>651.9</ele>
        <time>2023-12-06T13:04:54Z</time>
      </trkpt>
      <trkpt lat="43.61694" lon="6.06035">
        <ele>650.2</ele>
        <time>2023-12-06T13:05:08Z</time>
      </trkpt>
      <trkpt lat="43.61692" lon="6.06041">
        <ele>648.7</ele>
        <time>2023-12-06T13:05:13.703Z</time>
      </trkpt>
      <trkpt lat="43.61689" lon="6.06047">
        <ele>647.3</ele>
        <time>2023-12-06T13:05:20Z</time>
      </trkpt>
      <trkpt lat="43.61683" lon="6.06056">
        <ele>645.3</ele>
        <time>2023-12-06T13:05:32Z</time>
      </trkpt>
      <trkpt lat="43.6168" lon="6.06061">
        <ele>644.4</ele>
        <time>2023-12-06T13:05:38.340Z</time>
      </trkpt>
      <trkpt lat="43.61676" lon="6.06065">
        <ele>643.6</ele>
        <time>2023-12-06T13:05:45Z</time>
      </trkpt>
      <trkpt lat="43.61671" lon="6.06073">
        <ele>642.4</ele>
        <time>2023-12-06T13:05:58Z</time>
      </trkpt>
      <trkpt lat="43.61668" lon="6.06078">
        <ele>641.8</ele>
        <time>2023-12-06T13:06:03.999Z</time>
      </trkpt>
      <trkpt lat="43.61665" lon="6.06083">
        <ele>640.9</ele>
        <time>2023-12-06T13:06:10Z</time>
      </trkpt>
      <trkpt lat="43.61658" lon="6.0609">
        <ele>638.1</ele>
        <time>2023-12-06T13:06:22Z</time>
      </trkpt>
      <trkpt lat="43.61653" lon="6.06096">
        <ele>636.1</ele>
        <time>2023-12-06T13:06:47Z</time>
      </trkpt>
      <trkpt lat="43.61653" lon="6.06103">
        <ele>634.2</ele>
        <time>2023-12-06T13:07:10Z</time>
      </trkpt>
      <trkpt lat="43.61652" lon="6.06113">
        <ele>631.6</ele>
        <time>2023-12-06T13:07:40Z</time>
      </trkpt>
      <trkpt lat="43.61651" lon="6.06123">
        <ele>629.7</ele>
        <time>2023-12-06T13:08:05Z</time>
      </trkpt>
      <trkpt lat="43.61656" lon="6.06123">
        <ele>629.7</ele>
        <time>2023-12-06T13:08:39.034Z</time>
      </trkpt>
      <trkpt lat="43.61661" lon="6.06122">
        <ele>629.7</ele>
        <time>2023-12-06T13:09:13.422Z</time>
      </trkpt>
      <trkpt lat="43.61666" lon="6.06119">
        <ele>630.3</ele>
        <time>2023-12-06T13:09:50.528Z</time>
      </trkpt>
      <trkpt lat="43.61673" lon="6.0612">
        <ele>629.3</ele>
        <time>2023-12-06T13:10:38.429Z</time>
      </trkpt>
      <trkpt lat="43.61678" lon="6.0612">
        <ele>628.8</ele>
        <time>2023-12-06T13:11:12.463Z</time>
      </trkpt>
      <trkpt lat="43.61683" lon="6.06119">
        <ele>628.4</ele>
        <time>2023-12-06T13:11:46.852Z</time>
      </trkpt>
      <trkpt lat="43.61687" lon="6.06122">
        <ele>627.2</ele>
        <time>2023-12-06T13:12:17.834Z</time>
      </trkpt>
      <trkpt lat="43.61691" lon="6.06125">
        <ele>625.9</ele>
        <time>2023-12-06T13:12:48.816Z</time>
      </trkpt>
      <trkpt lat="43.61696" lon="6.06128">
        <ele>624.7</ele>
        <time>2023-12-06T13:13:25.922Z</time>
      </trkpt>
      <trkpt lat="43.617" lon="6.0613">
        <ele>623.5</ele>
        <time>2023-12-06T13:13:54.878Z</time>
      </trkpt>
      <trkpt lat="43.61703" lon="6.06137">
        <ele>621.4</ele>
        <time>2023-12-06T13:14:34.964Z</time>
      </trkpt>
      <trkpt lat="43.61706" lon="6.06143">
        <ele>619.3</ele>
        <time>2023-12-06T13:15:10.898Z</time>
      </trkpt>
      <trkpt lat="43.6171" lon="6.06149">
        <ele>617.4</ele>
        <time>2023-12-06T13:15:51.092Z</time>
      </trkpt>
      <trkpt lat="43.61713" lon="6.06154">
        <ele>615.5</ele>
        <time>2023-12-06T13:16:23.094Z</time>
      </trkpt>
      <trkpt lat="43.61718" lon="6.06163">
        <ele>612.5</ele>
        <time>2023-12-06T13:17:19Z</time>
      </trkpt>
      <trkpt lat="43.61723" lon="6.06169">
        <ele>610.4</ele>
        <time>2023-12-06T13:18:08.819Z</time>
      </trkpt>
      <trkpt lat="43.61727" lon="6.06175">
        <ele>607.9</ele>
        <time>2023-12-06T13:18:53.235Z</time>
      </trkpt>
      <trkpt lat="43.61732" lon="6.06185">
        <ele>604.3</ele>
        <time>2023-12-06T13:19:59.415Z</time>
      </trkpt>
      <trkpt lat="43.61737" lon="6.06189">
        <ele>602.2</ele>
        <time>2023-12-06T13:20:42.876Z</time>
      </trkpt>
      <trkpt lat="43.61737" lon="6.06194">
        <ele>600.9</ele>
        <time>2023-12-06T13:21:10.103Z</time>
      </trkpt>
      <trkpt lat="43.61741" lon="6.06199">
        <ele>598.8</ele>
        <time>2023-12-06T13:21:50.681Z</time>
      </trkpt>
      <trkpt lat="43.61743" lon="6.06206">
        <ele>596.6</ele>
        <time>2023-12-06T13:22:31.661Z</time>
      </trkpt>
      <trkpt lat="43.61746" lon="6.06215">
        <ele>593.7</ele>
        <time>2023-12-06T13:23:25.616Z</time>
      </trkpt>
      <trkpt lat="43.61749" lon="6.06226">
        <ele>590.3</ele>
        <time>2023-12-06T13:24:29.626Z</time>
      </trkpt>
      <trkpt lat="43.61751" lon="6.06235">
        <ele>587.5</ele>
        <time>2023-12-06T13:25:20.892Z</time>
      </trkpt>
      <trkpt lat="43.61756" lon="6.06244">
        <ele>584</ele>
        <time>2023-12-06T13:26:22.669Z</time>
      </trkpt>
      <trkpt lat="43.61761" lon="6.06243">
        <ele>583</ele>
        <time>2023-12-06T13:27:00.670Z</time>
      </trkpt>
      <trkpt lat="43.61768" lon="6.06243">
        <ele>581.2</ele>
        <time>2023-12-06T13:27:53.323Z</time>
      </trkpt>
      <trkpt lat="43.61772" lon="6.06244">
        <ele>580</ele>
        <time>2023-12-06T13:28:23.899Z</time>
      </trkpt>
      <trkpt lat="43.61779" lon="6.06243">
        <ele>578.4</ele>
        <time>2023-12-06T13:29:16.833Z</time>
      </trkpt>
      <trkpt lat="43.61786" lon="6.06247">
        <ele>575.7</ele>
        <time>2023-12-06T13:30:13.814Z</time>
      </trkpt>
      <trkpt lat="43.61794" lon="6.06244">
        <ele>574.3</ele>
        <time>2023-12-06T13:31:16.167Z</time>
      </trkpt>
      <trkpt lat="43.61801" lon="6.06243">
        <ele>572.7</ele>
        <time>2023-12-06T13:32:09.101Z</time>
      </trkpt>
      <trkpt lat="43.61807" lon="6.06242">
        <ele>571.3</ele>
        <time>2023-12-06T13:32:54.560Z</time>
      </trkpt>
      <trkpt lat="43.61814" lon="6.06243">
        <ele>569.1</ele>
        <time>2023-12-06T13:33:47.494Z</time>
      </trkpt>
      <trkpt lat="43.61821" lon="6.0624">
        <ele>567.7</ele>
        <time>2023-12-06T13:34:42.623Z</time>
      </trkpt>
      <trkpt lat="43.61828" lon="6.0624">
        <ele>565.7</ele>
        <time>2023-12-06T13:35:35.276Z</time>
      </trkpt>
      <trkpt lat="43.61834" lon="6.06242">
        <ele>563.5</ele>
        <time>2023-12-06T13:36:21.703Z</time>
      </trkpt>
      <trkpt lat="43.61838" lon="6.06248">
        <ele>561.1</ele>
        <time>2023-12-06T13:37:06.120Z</time>
      </trkpt>
      <trkpt lat="43.61842" lon="6.06254">
        <ele>558.7</ele>
        <time>2023-12-06T13:37:50.537Z</time>
      </trkpt>
      <trkpt lat="43.61847" lon="6.06258">
        <ele>556.5</ele>
        <time>2023-12-06T13:38:34Z</time>
      </trkpt>
      <trkpt lat="43.61851" lon="6.06254">
        <ele>556.2</ele>
        <time>2023-12-06T13:38:45.928Z</time>
      </trkpt>
      <trkpt lat="43.61854" lon="6.0625">
        <ele>556</ele>
        <time>2023-12-06T13:38:56Z</time>
      </trkpt>
      <trkpt lat="43.61858" lon="6.06246">
        <ele>555.9</ele>
        <time>2023-12-06T13:39:05.558Z</time>
      </trkpt>
      <trkpt lat="43.61862" lon="6.06241">
        <ele>555.7</ele>
        <time>2023-12-06T13:39:16Z</time>
      </trkpt>
      <trkpt lat="43.61867" lon="6.06238">
        <ele>555</ele>
        <time>2023-12-06T13:39:23.084Z</time>
      </trkpt>
      <trkpt lat="43.61871" lon="6.06235">
        <ele>554.4</ele>
        <time>2023-12-06T13:39:29Z</time>
      </trkpt>
      <trkpt lat="43.61874" lon="6.0623">
        <ele>554.6</ele>
        <time>2023-12-06T13:39:36.000Z</time>
      </trkpt>
      <trkpt lat="43.61877" lon="6.06225">
        <ele>554.8</ele>
        <time>2023-12-06T13:39:43Z</time>
      </trkpt>
      <trkpt lat="43.61881" lon="6.0622">
        <ele>554.9</ele>
        <time>2023-12-06T13:39:51.086Z</time>
      </trkpt>
      <trkpt lat="43.61884" lon="6.06214">
        <ele>554.9</ele>
        <time>2023-12-06T13:39:59Z</time>
      </trkpt>
      <trkpt lat="43.61887" lon="6.06209">
        <ele>555</ele>
        <time>2023-12-06T13:40:07.479Z</time>
      </trkpt>
      <trkpt lat="43.6189" lon="6.06203">
        <ele>555.1</ele>
        <time>2023-12-06T13:40:17Z</time>
      </trkpt>
      <trkpt lat="43.61889" lon="6.06197">
        <ele>556.5</ele>
        <time>2023-12-06T13:41:16Z</time>
      </trkpt>
      <trkpt lat="43.61889" lon="6.06185">
        <ele>559.7</ele>
        <time>2023-12-06T13:41:38Z</time>
      </trkpt>
      <trkpt lat="43.61892" lon="6.06179">
        <ele>560.8</ele>
        <time>2023-12-06T13:41:48.334Z</time>
      </trkpt>
      <trkpt lat="43.61894" lon="6.06172">
        <ele>561.8</ele>
        <time>2023-12-06T13:41:59Z</time>
      </trkpt>
      <trkpt lat="43.61898" lon="6.06167">
        <ele>562.3</ele>
        <time>2023-12-06T13:42:06.075Z</time>
      </trkpt>
      <trkpt lat="43.61901" lon="6.06161">
        <ele>562.8</ele>
        <time>2023-12-06T13:42:13Z</time>
      </trkpt>
      <trkpt lat="43.61904" lon="6.06156">
        <ele>563.4</ele>
        <time>2023-12-06T13:42:21.000Z</time>
      </trkpt>
      <trkpt lat="43.61907" lon="6.06151">
        <ele>563.8</ele>
        <time>2023-12-06T13:42:29Z</time>
      </trkpt>
      <trkpt lat="43.61911" lon="6.06147">
        <ele>563.6</ele>
        <time>2023-12-06T13:42:36.500Z</time>
      </trkpt>
      <trkpt lat="43.61915" lon="6.06143">
        <ele>563.4</ele>
        <time>2023-12-06T13:42:44Z</time>
      </trkpt>
      <trkpt lat="43.61919" lon="6.06138">
        <ele>563.7</ele>
        <time>2023-12-06T13:42:53.071Z</time>
      </trkpt>
      <trkpt lat="43.61923" lon="6.06132">
        <ele>564.1</ele>
        <time>2023-12-06T13:43:03Z</time>
      </trkpt>
      <trkpt lat="43.61926" lon="6.06127">
        <ele>564.8</ele>
        <time>2023-12-06T13:43:10.065Z</time>
      </trkpt>
      <trkpt lat="43.61929" lon="6.06121">
        <ele>565.5</ele>
        <time>2023-12-06T13:43:18Z</time>
      </trkpt>
      <trkpt lat="43.61933" lon="6.06117">
        <ele>565.5</ele>
        <time>2023-12-06T13:43:24.212Z</time>
      </trkpt>
      <trkpt lat="43.61937" lon="6.06112">
        <ele>565.4</ele>
        <time>2023-12-06T13:43:31Z</time>
      </trkpt>
      <trkpt lat="43.61941" lon="6.06108">
        <ele>565</ele>
        <time>2023-12-06T13:43:43.500Z</time>
      </trkpt>
      <trkpt lat="43.61945" lon="6.06104">
        <ele>564.3</ele>
        <time>2023-12-06T13:43:56Z</time>
      </trkpt>
      <trkpt lat="43.61945" lon="6.06098">
        <ele>565.9</ele>
        <time>2023-12-06T13:44:07.419Z</time>
      </trkpt>
      <trkpt lat="43.61944" lon="6.06091">
        <ele>567.5</ele>
        <time>2023-12-06T13:44:21Z</time>
      </trkpt>
      <trkpt lat="43.61941" lon="6.0608">
        <ele>571.2</ele>
        <time>2023-12-06T13:44:43Z</time>
      </trkpt>
      <trkpt lat="43.61939" lon="6.06069">
        <ele>574.1</ele>
        <time>2023-12-06T13:45:18Z</time>
      </trkpt>
      <trkpt lat="43.61937" lon="6.06064">
        <ele>576.3</ele>
        <time>2023-12-06T13:45:29.421Z</time>
      </trkpt>
      <trkpt lat="43.61934" lon="6.06058">
        <ele>578.4</ele>
        <time>2023-12-06T13:45:44Z</time>
      </trkpt>
      <trkpt lat="43.61932" lon="6.06054">
        <ele>579.7</ele>
        <time>2023-12-06T13:46:22Z</time>
      </trkpt>
      <trkpt lat="43.6193" lon="6.06048">
        <ele>580.1</ele>
        <time>2023-12-06T13:47:06Z</time>
      </trkpt>
      <trkpt lat="43.61928" lon="6.06037">
        <ele>580.3</ele>
        <time>2023-12-06T13:47:51Z</time>
      </trkpt>
      <trkpt lat="43.61926" lon="6.0603">
        <ele>581.1</ele>
        <time>2023-12-06T13:48:00.999Z</time>
      </trkpt>
      <trkpt lat="43.61924" lon="6.06023">
        <ele>581.9</ele>
        <time>2023-12-06T13:48:11Z</time>
      </trkpt>
      <trkpt lat="43.61927" lon="6.06021">
        <ele>579.9</ele>
        <time>2023-12-06T13:49:06Z</time>
      </trkpt>
      <trkpt lat="43.61928" lon="6.06012">
        <ele>578.8</ele>
        <time>2023-12-06T13:49:43Z</time>
      </trkpt>
      <trkpt lat="43.61933" lon="6.0601">
        <ele>575.5</ele>
        <time>2023-12-06T13:50:50Z</time>
      </trkpt>
      <trkpt lat="43.61939" lon="6.06013">
        <ele>571.9</ele>
        <time>2023-12-06T13:51:23Z</time>
      </trkpt>
      <trkpt lat="43.61944" lon="6.06005">
        <ele>568.5</ele>
        <time>2023-12-06T13:52:04Z</time>
      </trkpt>
      <trkpt lat="43.6195" lon="6.05999">
        <ele>564.6</ele>
        <time>2023-12-06T13:52:29Z</time>
      </trkpt>
      <trkpt lat="43.61955" lon="6.05992">
        <ele>561.8</ele>
        <time>2023-12-06T13:52:55Z</time>
      </trkpt>
      <trkpt lat="43.6196" lon="6.05986">
        <ele>559</ele>
        <time>2023-12-06T13:53:11Z</time>
      </trkpt>
      <trkpt lat="43.61966" lon="6.05984">
        <ele>555.7</ele>
        <time>2023-12-06T13:53:27Z</time>
      </trkpt>
      <trkpt lat="43.6197" lon="6.05979">
        <ele>553.8</ele>
        <time>2023-12-06T13:53:39Z</time>
      </trkpt>
      <trkpt lat="43.61976" lon="6.0597">
        <ele>551.2</ele>
        <time>2023-12-06T13:53:54Z</time>
      </trkpt>
      <trkpt lat="43.6198" lon="6.0596">
        <ele>550.8</ele>
        <time>2023-12-06T13:54:03Z</time>
      </trkpt>
      <trkpt lat="43.61986" lon="6.05951">
        <ele>549.6</ele>
        <time>2023-12-06T13:54:12Z</time>
      </trkpt>
      <trkpt lat="43.6199" lon="6.05948">
        <ele>548.6</ele>
        <time>2023-12-06T13:54:17.275Z</time>
      </trkpt>
      <trkpt lat="43.61994" lon="6.05944">
        <ele>547.6</ele>
        <time>2023-12-06T13:54:23Z</time>
      </trkpt>
      <trkpt lat="43.62" lon="6.05935">
        <ele>545.7</ele>
        <time>2023-12-06T13:54:34Z</time>
      </trkpt>
      <trkpt lat="43.62003" lon="6.0593">
        <ele>544.9</ele>
        <time>2023-12-06T13:54:42.479Z</time>
      </trkpt>
      <trkpt lat="43.62006" lon="6.05924">
        <ele>544.3</ele>
        <time>2023-12-06T13:54:52Z</time>
      </trkpt>
      <trkpt lat="43.62009" lon="6.05919">
        <ele>543.6</ele>
        <time>2023-12-06T13:55:42.403Z</time>
      </trkpt>
      <trkpt lat="43.62012" lon="6.05913">
        <ele>543.2</ele>
        <time>2023-12-06T13:56:39Z</time>
      </trkpt>
      <trkpt lat="43.62016" lon="6.05912">
        <ele>542</ele>
        <time>2023-12-06T13:56:58.268Z</time>
      </trkpt>
      <trkpt lat="43.6202" lon="6.05911">
        <ele>540.9</ele>
        <time>2023-12-06T13:57:17.536Z</time>
      </trkpt>
      <trkpt lat="43.62024" lon="6.05912">
        <ele>539.4</ele>
        <time>2023-12-06T13:57:36.804Z</time>
      </trkpt>
      <trkpt lat="43.62029" lon="6.05914">
        <ele>538</ele>
        <time>2023-12-06T13:58:01.477Z</time>
      </trkpt>
      <trkpt lat="43.62032" lon="6.05913">
        <ele>538.9</ele>
        <time>2023-12-06T13:58:16.105Z</time>
      </trkpt>
      <trkpt lat="43.62034" lon="6.05907">
        <ele>540.2</ele>
        <time>2023-12-06T13:58:38.771Z</time>
      </trkpt>
      <trkpt lat="43.62036" lon="6.05902">
        <ele>541</ele>
        <time>2023-12-06T13:58:58.373Z</time>
      </trkpt>
      <trkpt lat="43.62038" lon="6.05898">
        <ele>541.4</ele>
        <time>2023-12-06T13:59:15.054Z</time>
      </trkpt>
      <trkpt lat="43.62043" lon="6.05891">
        <ele>541.3</ele>
        <time>2023-12-06T13:59:48.798Z</time>
      </trkpt>
      <trkpt lat="43.62047" lon="6.05887">
        <ele>540.8</ele>
        <time>2023-12-06T14:00:12.205Z</time>
      </trkpt>
      <trkpt lat="43.6205" lon="6.05881">
        <ele>540.9</ele>
        <time>2023-12-06T14:00:37.227Z</time>
      </trkpt>
      <trkpt lat="43.62055" lon="6.05876">
        <ele>540.1</ele>
        <time>2023-12-06T14:01:06.485Z</time>
      </trkpt>
      <trkpt lat="43.62058" lon="6.05871">
        <ele>540.7</ele>
        <time>2023-12-06T14:01:28.769Z</time>
      </trkpt>
      <trkpt lat="43.62061" lon="6.05865">
        <ele>541.2</ele>
        <time>2023-12-06T14:01:53.791Z</time>
      </trkpt>
      <trkpt lat="43.62064" lon="6.05862">
        <ele>541.3</ele>
        <time>2023-12-06T14:02:11.346Z</time>
      </trkpt>
      <trkpt lat="43.62067" lon="6.05855">
        <ele>542.3</ele>
        <time>2023-12-06T14:02:39.260Z</time>
      </trkpt>
      <trkpt lat="43.62071" lon="6.05853">
        <ele>542.5</ele>
        <time>2023-12-06T14:02:59.424Z</time>
      </trkpt>
      <trkpt lat="43.62075" lon="6.0585">
        <ele>542.7</ele>
        <time>2023-12-06T14:03:21Z</time>
      </trkpt>
      <trkpt lat="43.6208" lon="6.05848">
        <ele>542.7</ele>
        <time>2023-12-06T14:03:26.502Z</time>
      </trkpt>
      <trkpt lat="43.62084" lon="6.05846">
        <ele>542.7</ele>
        <time>2023-12-06T14:03:31Z</time>
      </trkpt>
      <trkpt lat="43.62088" lon="6.05841">
        <ele>543.4</ele>
        <time>2023-12-06T14:03:36.054Z</time>
      </trkpt>
      <trkpt lat="43.62091" lon="6.05835">
        <ele>543.9</ele>
        <time>2023-12-06T14:03:41Z</time>
      </trkpt>
      <trkpt lat="43.62094" lon="6.05827">
        <ele>544.8</ele>
        <time>2023-12-06T14:03:45.286Z</time>
      </trkpt>
      <trkpt lat="43.62097" lon="6.05818">
        <ele>545.3</ele>
        <time>2023-12-06T14:03:50Z</time>
      </trkpt>
      <trkpt lat="43.621" lon="6.05812">
        <ele>545.3</ele>
        <time>2023-12-06T14:03:55.246Z</time>
      </trkpt>
      <trkpt lat="43.62102" lon="6.05806">
        <ele>545</ele>
        <time>2023-12-06T14:04:00Z</time>
      </trkpt>
      <trkpt lat="43.62105" lon="6.058">
        <ele>544.5</ele>
        <time>2023-12-06T14:04:05.000Z</time>
      </trkpt>
      <trkpt lat="43.62108" lon="6.05794">
        <ele>543.9</ele>
        <time>2023-12-06T14:04:10Z</time>
      </trkpt>
      <trkpt lat="43.62112" lon="6.05787">
        <ele>543.1</ele>
        <time>2023-12-06T14:04:15.229Z</time>
      </trkpt>
      <trkpt lat="43.62115" lon="6.0578">
        <ele>544.3</ele>
        <time>2023-12-06T14:04:20Z</time>
      </trkpt>
      <trkpt lat="43.62116" lon="6.05773">
        <ele>544.9</ele>
        <time>2023-12-06T14:04:25.500Z</time>
      </trkpt>
      <trkpt lat="43.62117" lon="6.05766">
        <ele>545.7</ele>
        <time>2023-12-06T14:04:31Z</time>
      </trkpt>
      <trkpt lat="43.62119" lon="6.05758">
        <ele>546.6</ele>
        <time>2023-12-06T14:04:36.780Z</time>
      </trkpt>
      <trkpt lat="43.6212" lon="6.05749">
        <ele>547.4</ele>
        <time>2023-12-06T14:04:43Z</time>
      </trkpt>
      <trkpt lat="43.62122" lon="6.05742">
        <ele>548.2</ele>
        <time>2023-12-06T14:04:47.706Z</time>
      </trkpt>
      <trkpt lat="43.62124" lon="6.05734">
        <ele>549</ele>
        <time>2023-12-06T14:04:53Z</time>
      </trkpt>
      <trkpt lat="43.62126" lon="6.05725">
        <ele>549.8</ele>
        <time>2023-12-06T14:05:00.116Z</time>
      </trkpt>
      <trkpt lat="43.62127" lon="6.05716">
        <ele>550.3</ele>
        <time>2023-12-06T14:05:07Z</time>
      </trkpt>
      <trkpt lat="43.62129" lon="6.05708">
        <ele>550.4</ele>
        <time>2023-12-06T14:05:12.680Z</time>
      </trkpt>
      <trkpt lat="43.62131" lon="6.05699">
        <ele>550.2</ele>
        <time>2023-12-06T14:05:19Z</time>
      </trkpt>
      <trkpt lat="43.62133" lon="6.05692">
        <ele>550</ele>
        <time>2023-12-06T14:05:25.159Z</time>
      </trkpt>
      <trkpt lat="43.62134" lon="6.05685">
        <ele>549.9</ele>
        <time>2023-12-06T14:05:31Z</time>
      </trkpt>
      <trkpt lat="43.62136" lon="6.05677">
        <ele>549.7</ele>
        <time>2023-12-06T14:05:37.124Z</time>
      </trkpt>
      <trkpt lat="43.62137" lon="6.05669">
        <ele>549.5</ele>
        <time>2023-12-06T14:05:43Z</time>
      </trkpt>
      <trkpt lat="43.6214" lon="6.05661">
        <ele>549.7</ele>
        <time>2023-12-06T14:05:49.500Z</time>
      </trkpt>
      <trkpt lat="43.62143" lon="6.05653">
        <ele>551</ele>
        <time>2023-12-06T14:05:56Z</time>
      </trkpt>
      <trkpt lat="43.62147" lon="6.05645">
        <ele>552</ele>
        <time>2023-12-06T14:06:00.457Z</time>
      </trkpt>
      <trkpt lat="43.6215" lon="6.05636">
        <ele>552.9</ele>
        <time>2023-12-06T14:06:05Z</time>
      </trkpt>
      <trkpt lat="43.62153" lon="6.05631">
        <ele>553.4</ele>
        <time>2023-12-06T14:06:09.461Z</time>
      </trkpt>
      <trkpt lat="43.62155" lon="6.05625">
        <ele>553.6</ele>
        <time>2023-12-06T14:06:14Z</time>
      </trkpt>
      <trkpt lat="43.62158" lon="6.0562">
        <ele>553.4</ele>
        <time>2023-12-06T14:06:18.239Z</time>
      </trkpt>
      <trkpt lat="43.62161" lon="6.05614">
        <ele>552.6</ele>
        <time>2023-12-06T14:06:23Z</time>
      </trkpt>
      <trkpt lat="43.62164" lon="6.05609">
        <ele>552.1</ele>
        <time>2023-12-06T14:06:26.768Z</time>
      </trkpt>
      <trkpt lat="43.62167" lon="6.05603">
        <ele>552.2</ele>
        <time>2023-12-06T14:06:31Z</time>
      </trkpt>
      <trkpt lat="43.62171" lon="6.05599">
        <ele>553.3</ele>
        <time>2023-12-06T14:06:35.098Z</time>
      </trkpt>
      <trkpt lat="43.62174" lon="6.05594">
        <ele>553.9</ele>
        <time>2023-12-06T14:06:39Z</time>
      </trkpt>
      <trkpt lat="43.62178" lon="6.05588">
        <ele>554.2</ele>
        <time>2023-12-06T14:06:44.807Z</time>
      </trkpt>
      <trkpt lat="43.62181" lon="6.05582">
        <ele>554.2</ele>
        <time>2023-12-06T14:06:50Z</time>
      </trkpt>
      <trkpt lat="43.62188" lon="6.0558">
        <ele>554</ele>
        <time>2023-12-06T14:06:56.976Z</time>
      </trkpt>
      <trkpt lat="43.62194" lon="6.05578">
        <ele>553.8</ele>
        <time>2023-12-06T14:07:03Z</time>
      </trkpt>
      <trkpt lat="43.62198" lon="6.05575">
        <ele>554.7</ele>
        <time>2023-12-06T14:07:08.275Z</time>
      </trkpt>
      <trkpt lat="43.62202" lon="6.05571">
        <ele>555.5</ele>
        <time>2023-12-06T14:07:14Z</time>
      </trkpt>
      <trkpt lat="43.62204" lon="6.05563">
        <ele>556.5</ele>
        <time>2023-12-06T14:07:19.500Z</time>
      </trkpt>
      <trkpt lat="43.62206" lon="6.05555">
        <ele>557.5</ele>
        <time>2023-12-06T14:07:25Z</time>
      </trkpt>
      <trkpt lat="43.62211" lon="6.05545">
        <ele>558.1</ele>
        <time>2023-12-06T14:07:35Z</time>
      </trkpt>
      <trkpt lat="43.62214" lon="6.0554">
        <ele>558.1</ele>
        <time>2023-12-06T14:07:45.500Z</time>
      </trkpt>
      <trkpt lat="43.62217" lon="6.05535">
        <ele>557.9</ele>
        <time>2023-12-06T14:07:56Z</time>
      </trkpt>
      <trkpt lat="43.62219" lon="6.05529">
        <ele>557.6</ele>
        <time>2023-12-06T14:08:01.141Z</time>
      </trkpt>
      <trkpt lat="43.62221" lon="6.05522">
        <ele>558.1</ele>
        <time>2023-12-06T14:08:07Z</time>
      </trkpt>
      <trkpt lat="43.62226" lon="6.05513">
        <ele>559.5</ele>
        <time>2023-12-06T14:08:17Z</time>
      </trkpt>
      <trkpt lat="43.6223" lon="6.0551">
        <ele>560.1</ele>
        <time>2023-12-06T14:08:21.796Z</time>
      </trkpt>
      <trkpt lat="43.62234" lon="6.05506">
        <ele>560.4</ele>
        <time>2023-12-06T14:08:27Z</time>
      </trkpt>
      <trkpt lat="43.62238" lon="6.05501">
        <ele>560.5</ele>
        <time>2023-12-06T14:08:32.343Z</time>
      </trkpt>
      <trkpt lat="43.62241" lon="6.05496">
        <ele>560.5</ele>
        <time>2023-12-06T14:08:37Z</time>
      </trkpt>
      <trkpt lat="43.62244" lon="6.0549">
        <ele>560.6</ele>
        <time>2023-12-06T14:08:42.905Z</time>
      </trkpt>
      <trkpt lat="43.62246" lon="6.05483">
        <ele>560.5</ele>
        <time>2023-12-06T14:08:49Z</time>
      </trkpt>
      <trkpt lat="43.62248" lon="6.05476">
        <ele>560.3</ele>
        <time>2023-12-06T14:08:54.647Z</time>
      </trkpt>
      <trkpt lat="43.6225" lon="6.05468">
        <ele>560.6</ele>
        <time>2023-12-06T14:09:01Z</time>
      </trkpt>
      <trkpt lat="43.62253" lon="6.05461">
        <ele>562.1</ele>
        <time>2023-12-06T14:09:05.900Z</time>
      </trkpt>
      <trkpt lat="43.62255" lon="6.05453">
        <ele>563.3</ele>
        <time>2023-12-06T14:09:11Z</time>
      </trkpt>
      <trkpt lat="43.62259" lon="6.05447">
        <ele>564.1</ele>
        <time>2023-12-06T14:09:16.279Z</time>
      </trkpt>
      <trkpt lat="43.62262" lon="6.05441">
        <ele>564.7</ele>
        <time>2023-12-06T14:09:21Z</time>
      </trkpt>
      <trkpt lat="43.62265" lon="6.05435">
        <ele>565</ele>
        <time>2023-12-06T14:09:26.771Z</time>
      </trkpt>
      <trkpt lat="43.62267" lon="6.05429">
        <ele>565.1</ele>
        <time>2023-12-06T14:09:32Z</time>
      </trkpt>
      <trkpt lat="43.6227" lon="6.05423">
        <ele>565</ele>
        <time>2023-12-06T14:09:37.500Z</time>
      </trkpt>
      <trkpt lat="43.62273" lon="6.05417">
        <ele>564.7</ele>
        <time>2023-12-06T14:09:43Z</time>
      </trkpt>
      <trkpt lat="43.62279" lon="6.05408">
        <ele>565.4</ele>
        <time>2023-12-06T14:09:53Z</time>
      </trkpt>
      <trkpt lat="43.62282" lon="6.05402">
        <ele>566.4</ele>
        <time>2023-12-06T14:09:58.500Z</time>
      </trkpt>
      <trkpt lat="43.62285" lon="6.05396">
        <ele>567.1</ele>
        <time>2023-12-06T14:10:04Z</time>
      </trkpt>
      <trkpt lat="43.62289" lon="6.05391">
        <ele>567.5</ele>
        <time>2023-12-06T14:10:09.054Z</time>
      </trkpt>
      <trkpt lat="43.62292" lon="6.05385">
        <ele>567.7</ele>
        <time>2023-12-06T14:10:14Z</time>
      </trkpt>
      <trkpt lat="43.62296" lon="6.0538">
        <ele>567.7</ele>
        <time>2023-12-06T14:10:19.054Z</time>
      </trkpt>
      <trkpt lat="43.62299" lon="6.05374">
        <ele>567.6</ele>
        <time>2023-12-06T14:10:24Z</time>
      </trkpt>
      <trkpt lat="43.62303" lon="6.05369">
        <ele>567.4</ele>
        <time>2023-12-06T14:10:30.065Z</time>
      </trkpt>
      <trkpt lat="43.62306" lon="6.05363">
        <ele>567.1</ele>
        <time>2023-12-06T14:10:36Z</time>
      </trkpt>
      <trkpt lat="43.62311" lon="6.05358">
        <ele>568</ele>
        <time>2023-12-06T14:10:40.823Z</time>
      </trkpt>
      <trkpt lat="43.62316" lon="6.05352">
        <ele>568.8</ele>
        <time>2023-12-06T14:10:46Z</time>
      </trkpt>
      <trkpt lat="43.6232" lon="6.05348">
        <ele>569.2</ele>
        <time>2023-12-06T14:10:50.779Z</time>
      </trkpt>
      <trkpt lat="43.62324" lon="6.05343">
        <ele>569.4</ele>
        <time>2023-12-06T14:10:56Z</time>
      </trkpt>
      <trkpt lat="43.62328" lon="6.05339">
        <ele>569.4</ele>
        <time>2023-12-06T14:11:01.257Z</time>
      </trkpt>
      <trkpt lat="43.62332" lon="6.05334">
        <ele>569.1</ele>
        <time>2023-12-06T14:11:07Z</time>
      </trkpt>
      <trkpt lat="43.62336" lon="6.05328">
        <ele>569.8</ele>
        <time>2023-12-06T14:11:12.000Z</time>
      </trkpt>
      <trkpt lat="43.6234" lon="6.05322">
        <ele>570.6</ele>
        <time>2023-12-06T14:11:17Z</time>
      </trkpt>
      <trkpt lat="43.62344" lon="6.05317">
        <ele>571</ele>
        <time>2023-12-06T14:11:22.877Z</time>
      </trkpt>
      <trkpt lat="43.62347" lon="6.05312">
        <ele>571.3</ele>
        <time>2023-12-06T14:11:28Z</time>
      </trkpt>
      <trkpt lat="43.62351" lon="6.05307">
        <ele>571.4</ele>
        <time>2023-12-06T14:11:33.343Z</time>
      </trkpt>
      <trkpt lat="43.62354" lon="6.05302">
        <ele>571.4</ele>
        <time>2023-12-06T14:11:38Z</time>
      </trkpt>
      <trkpt lat="43.62357" lon="6.05296">
        <ele>571.6</ele>
        <time>2023-12-06T14:11:42.726Z</time>
      </trkpt>
      <trkpt lat="43.6236" lon="6.05289">
        <ele>571.7</ele>
        <time>2023-12-06T14:11:48Z</time>
      </trkpt>
      <trkpt lat="43.62363" lon="6.05283">
        <ele>571.9</ele>
        <time>2023-12-06T14:11:52.722Z</time>
      </trkpt>
      <trkpt lat="43.62365" lon="6.05277">
        <ele>572.2</ele>
        <time>2023-12-06T14:11:57Z</time>
      </trkpt>
      <trkpt lat="43.62368" lon="6.05271">
        <ele>572.4</ele>
        <time>2023-12-06T14:12:02.000Z</time>
      </trkpt>
      <trkpt lat="43.62371" lon="6.05265">
        <ele>572.7</ele>
        <time>2023-12-06T14:12:07Z</time>
      </trkpt>
      <trkpt lat="43.62375" lon="6.0526">
        <ele>572.8</ele>
        <time>2023-12-06T14:12:11.548Z</time>
      </trkpt>
      <trkpt lat="43.62378" lon="6.05254">
        <ele>572.9</ele>
        <time>2023-12-06T14:12:16Z</time>
      </trkpt>
      <trkpt lat="43.62382" lon="6.05248">
        <ele>573.1</ele>
        <time>2023-12-06T14:12:21.279Z</time>
      </trkpt>
      <trkpt lat="43.62385" lon="6.05242">
        <ele>573.6</ele>
        <time>2023-12-06T14:12:26Z</time>
      </trkpt>
      <trkpt lat="43.62389" lon="6.05238">
        <ele>573.9</ele>
        <time>2023-12-06T14:12:30.779Z</time>
      </trkpt>
      <trkpt lat="43.62393" lon="6.05233">
        <ele>574.3</ele>
        <time>2023-12-06T14:12:36Z</time>
      </trkpt>
      <trkpt lat="43.62397" lon="6.05229">
        <ele>574.7</ele>
        <time>2023-12-06T14:12:40.301Z</time>
      </trkpt>
      <trkpt lat="43.62401" lon="6.05224">
        <ele>574.9</ele>
        <time>2023-12-06T14:12:45Z</time>
      </trkpt>
      <trkpt lat="43.62406" lon="6.05214">
        <ele>575.1</ele>
        <time>2023-12-06T14:12:55Z</time>
      </trkpt>
      <trkpt lat="43.62409" lon="6.05207">
        <ele>575.2</ele>
        <time>2023-12-06T14:13:00.194Z</time>
      </trkpt>
      <trkpt lat="43.62411" lon="6.052">
        <ele>575.2</ele>
        <time>2023-12-06T14:13:05Z</time>
      </trkpt>
      <trkpt lat="43.62417" lon="6.05191">
        <ele>575</ele>
        <time>2023-12-06T14:13:14Z</time>
      </trkpt>
      <trkpt lat="43.62422" lon="6.05189">
        <ele>575</ele>
        <time>2023-12-06T14:13:24.455Z</time>
      </trkpt>
      <trkpt lat="43.62426" lon="6.05187">
        <ele>574.9</ele>
        <time>2023-12-06T14:13:33Z</time>
      </trkpt>
      <trkpt lat="43.62431" lon="6.05187">
        <ele>574.9</ele>
        <time>2023-12-06T14:13:44.000Z</time>
      </trkpt>
      <trkpt lat="43.62436" lon="6.05187">
        <ele>574.8</ele>
        <time>2023-12-06T14:13:55Z</time>
      </trkpt>
      <trkpt lat="43.62442" lon="6.05188">
        <ele>574.8</ele>
        <time>2023-12-06T14:14:16Z</time>
      </trkpt>
      <trkpt lat="43.62449" lon="6.05184">
        <ele>574.6</ele>
        <time>2023-12-06T14:14:34Z</time>
      </trkpt>
      <trkpt lat="43.62446" lon="6.05185">
        <ele>574.7</ele>
        <time>2023-12-06T14:15:17Z</time>
      </trkpt>
      <trkpt lat="43.62442" lon="6.05191">
        <ele>574.9</ele>
        <time>2023-12-06T14:15:50Z</time>
      </trkpt>
      <trkpt lat="43.62438" lon="6.05188">
        <ele>574.8</ele>
        <time>2023-12-06T14:15:57.674Z</time>
      </trkpt>
      <trkpt lat="43.62434" lon="6.05184">
        <ele>574.8</ele>
        <time>2023-12-06T14:16:06Z</time>
      </trkpt>
      <trkpt lat="43.62435" lon="6.05176">
        <ele>574.6</ele>
        <time>2023-12-06T14:16:11.216Z</time>
      </trkpt>
      <trkpt lat="43.62435" lon="6.05167">
        <ele>574.3</ele>
        <time>2023-12-06T14:16:17Z</time>
      </trkpt>
      <trkpt lat="43.62438" lon="6.0516">
        <ele>574.3</ele>
        <time>2023-12-06T14:16:21.675Z</time>
      </trkpt>
      <trkpt lat="43.6244" lon="6.05153">
        <ele>574.2</ele>
        <time>2023-12-06T14:16:26Z</time>
      </trkpt>
      <trkpt lat="43.62443" lon="6.05148">
        <ele>574.1</ele>
        <time>2023-12-06T14:16:30.000Z</time>
      </trkpt>
      <trkpt lat="43.62446" lon="6.05143">
        <ele>574</ele>
        <time>2023-12-06T14:16:34Z</time>
      </trkpt>
      <trkpt lat="43.62449" lon="6.05138">
        <ele>573.9</ele>
        <time>2023-12-06T14:16:37.966Z</time>
      </trkpt>
      <trkpt lat="43.62451" lon="6.05132">
        <ele>573.8</ele>
        <time>2023-12-06T14:16:42Z</time>
      </trkpt>
      <trkpt lat="43.62454" lon="6.05127">
        <ele>573.7</ele>
        <time>2023-12-06T14:16:46.461Z</time>
      </trkpt>
      <trkpt lat="43.62456" lon="6.05121">
        <ele>573.6</ele>
        <time>2023-12-06T14:16:51Z</time>
      </trkpt>
      <trkpt lat="43.62457" lon="6.05115">
        <ele>573.5</ele>
        <time>2023-12-06T14:16:55.632Z</time>
      </trkpt>
      <trkpt lat="43.62458" lon="6.05108">
        <ele>573.5</ele>
        <time>2023-12-06T14:17:01Z</time>
      </trkpt>
      <trkpt lat="43.62464" lon="6.05104">
        <ele>573.3</ele>
        <time>2023-12-06T14:17:08.000Z</time>
      </trkpt>
      <trkpt lat="43.6247" lon="6.051">
        <ele>573.1</ele>
        <time>2023-12-06T14:17:15Z</time>
      </trkpt>
      <trkpt lat="43.62476" lon="6.05097">
        <ele>572.9</ele>
        <time>2023-12-06T14:17:20.381Z</time>
      </trkpt>
      <trkpt lat="43.62482" lon="6.05093">
        <ele>572.6</ele>
        <time>2023-12-06T14:17:26Z</time>
      </trkpt>
      <trkpt lat="43.62487" lon="6.05088">
        <ele>572.5</ele>
        <time>2023-12-06T14:17:31.000Z</time>
      </trkpt>
      <trkpt lat="43.62492" lon="6.05083">
        <ele>572.3</ele>
        <time>2023-12-06T14:17:36Z</time>
      </trkpt>
      <trkpt lat="43.62497" lon="6.05078">
        <ele>572</ele>
        <time>2023-12-06T14:17:40.802Z</time>
      </trkpt>
      <trkpt lat="43.62501" lon="6.05073">
        <ele>571.6</ele>
        <time>2023-12-06T14:17:45Z</time>
      </trkpt>
      <trkpt lat="43.62505" lon="6.05068">
        <ele>571.4</ele>
        <time>2023-12-06T14:17:50.054Z</time>
      </trkpt>
      <trkpt lat="43.62508" lon="6.05062">
        <ele>571.2</ele>
        <time>2023-12-06T14:17:55Z</time>
      </trkpt>
      <trkpt lat="43.62514" lon="6.05058">
        <ele>571.1</ele>
        <time>2023-12-06T14:17:59.873Z</time>
      </trkpt>
      <trkpt lat="43.6252" lon="6.05053">
        <ele>571</ele>
        <time>2023-12-06T14:18:05Z</time>
      </trkpt>
      <trkpt lat="43.62523" lon="6.05047">
        <ele>570.8</ele>
        <time>2023-12-06T14:18:09.726Z</time>
      </trkpt>
      <trkpt lat="43.62526" lon="6.0504">
        <ele>570.5</ele>
        <time>2023-12-06T14:18:15Z</time>
      </trkpt>
      <trkpt lat="43.62531" lon="6.05036">
        <ele>570.3</ele>
        <time>2023-12-06T14:18:19.654Z</time>
      </trkpt>
      <trkpt lat="43.62535" lon="6.05031">
        <ele>570.1</ele>
        <time>2023-12-06T14:18:24Z</time>
      </trkpt>
      <trkpt lat="43.62539" lon="6.05028">
        <ele>570</ele>
        <time>2023-12-06T14:18:27.665Z</time>
      </trkpt>
      <trkpt lat="43.62544" lon="6.05022">
        <ele>570</ele>
        <time>2023-12-06T14:18:33Z</time>
      </trkpt>
      <trkpt lat="43.62552" lon="6.05018">
        <ele>569.7</ele>
        <time>2023-12-06T14:18:43Z</time>
      </trkpt>
      <trkpt lat="43.62555" lon="6.05015">
        <ele>569.6</ele>
        <time>2023-12-06T14:18:45.501Z</time>
      </trkpt>
      <trkpt lat="43.62561" lon="6.05011">
        <ele>569.4</ele>
        <time>2023-12-06T14:18:50Z</time>
      </trkpt>
      <trkpt lat="43.62565" lon="6.05006">
        <ele>569.2</ele>
        <time>2023-12-06T14:18:52.492Z</time>
      </trkpt>
      <trkpt lat="43.6257" lon="6.05004">
        <ele>569.1</ele>
        <time>2023-12-06T14:18:54.897Z</time>
      </trkpt>
      <trkpt lat="43.62574" lon="6.05001">
        <ele>569</ele>
        <time>2023-12-06T14:18:57Z</time>
      </trkpt>
      <trkpt lat="43.62581" lon="6.04995">
        <ele>569</ele>
        <time>2023-12-06T14:19:06Z</time>
      </trkpt>
      <trkpt lat="43.62588" lon="6.04991">
        <ele>569.1</ele>
        <time>2023-12-06T14:19:17Z</time>
      </trkpt>
      <trkpt lat="43.62594" lon="6.04988">
        <ele>569</ele>
        <time>2023-12-06T14:19:21.314Z</time>
      </trkpt>
      <trkpt lat="43.62599" lon="6.04985">
        <ele>569</ele>
        <time>2023-12-06T14:19:25Z</time>
      </trkpt>
      <trkpt lat="43.62605" lon="6.04981">
        <ele>568.7</ele>
        <time>2023-12-06T14:19:29.500Z</time>
      </trkpt>
      <trkpt lat="43.62611" lon="6.04977">
        <ele>568.3</ele>
        <time>2023-12-06T14:19:34Z</time>
      </trkpt>
      <trkpt lat="43.62616" lon="6.04974">
        <ele>568.3</ele>
        <time>2023-12-06T14:19:38.369Z</time>
      </trkpt>
      <trkpt lat="43.62621" lon="6.0497">
        <ele>568.4</ele>
        <time>2023-12-06T14:19:43Z</time>
      </trkpt>
      <trkpt lat="43.62625" lon="6.04966">
        <ele>568.5</ele>
        <time>2023-12-06T14:19:47.000Z</time>
      </trkpt>
      <trkpt lat="43.62629" lon="6.04962">
        <ele>568.5</ele>
        <time>2023-12-06T14:19:51Z</time>
      </trkpt>
      <trkpt lat="43.62636" lon="6.04958">
        <ele>568.5</ele>
        <time>2023-12-06T14:19:55.675Z</time>
      </trkpt>
      <trkpt lat="43.62642" lon="6.04953">
        <ele>568.5</ele>
        <time>2023-12-06T14:20:00Z</time>
      </trkpt>
      <trkpt lat="43.62647" lon="6.04946">
        <ele>568.4</ele>
        <time>2023-12-06T14:20:08Z</time>
      </trkpt>
      <trkpt lat="43.62651" lon="6.04941">
        <ele>568.4</ele>
        <time>2023-12-06T14:20:12.774Z</time>
      </trkpt>
      <trkpt lat="43.62655" lon="6.04935">
        <ele>568.3</ele>
        <time>2023-12-06T14:20:18Z</time>
      </trkpt>
      <trkpt lat="43.62658" lon="6.04929">
        <ele>568.1</ele>
        <time>2023-12-06T14:20:21.548Z</time>
      </trkpt>
      <trkpt lat="43.62663" lon="6.04923">
        <ele>567.6</ele>
        <time>2023-12-06T14:20:26Z</time>
      </trkpt>
      <trkpt lat="43.62671" lon="6.04918">
        <ele>567.1</ele>
        <time>2023-12-06T14:20:31.005Z</time>
      </trkpt>
      <trkpt lat="43.62677" lon="6.04913">
        <ele>567.1</ele>
        <time>2023-12-06T14:20:35Z</time>
      </trkpt>
      <trkpt lat="43.62682" lon="6.04912">
        <ele>567.1</ele>
        <time>2023-12-06T14:20:41.000Z</time>
      </trkpt>
      <trkpt lat="43.62687" lon="6.04911">
        <ele>567.1</ele>
        <time>2023-12-06T14:20:47Z</time>
      </trkpt>
      <trkpt lat="43.62692" lon="6.04908">
        <ele>567</ele>
        <time>2023-12-06T14:20:50.854Z</time>
      </trkpt>
      <trkpt lat="43.62697" lon="6.04907">
        <ele>566.9</ele>
        <time>2023-12-06T14:20:54.427Z</time>
      </trkpt>
      <trkpt lat="43.62702" lon="6.04906">
        <ele>566.8</ele>
        <time>2023-12-06T14:20:58Z</time>
      </trkpt>
      <trkpt lat="43.62707" lon="6.04907">
        <ele>566.7</ele>
        <time>2023-12-06T14:21:05.255Z</time>
      </trkpt>
      <trkpt lat="43.62711" lon="6.04907">
        <ele>566.6</ele>
        <time>2023-12-06T14:21:11Z</time>
      </trkpt>
      <trkpt lat="43.62718" lon="6.04907">
        <ele>566.5</ele>
        <time>2023-12-06T14:21:16.485Z</time>
      </trkpt>
      <trkpt lat="43.62725" lon="6.04906">
        <ele>566.3</ele>
        <time>2023-12-06T14:21:22Z</time>
      </trkpt>
      <trkpt lat="43.62728" lon="6.04904">
        <ele>566.4</ele>
        <time>2023-12-06T14:21:26.940Z</time>
      </trkpt>
      <trkpt lat="43.62736" lon="6.04906">
        <ele>566.2</ele>
        <time>2023-12-06T14:21:39Z</time>
      </trkpt>
      <trkpt lat="43.62742" lon="6.04905">
        <ele>566.1</ele>
        <time>2023-12-06T14:22:06Z</time>
      </trkpt>
      <trkpt lat="43.62748" lon="6.04906">
        <ele>566</ele>
        <time>2023-12-06T14:22:17.039Z</time>
      </trkpt>
      <trkpt lat="43.62754" lon="6.04906">
        <ele>565.9</ele>
        <time>2023-12-06T14:22:28Z</time>
      </trkpt>
      <trkpt lat="43.62761" lon="6.04906">
        <ele>565.8</ele>
        <time>2023-12-06T14:22:33.500Z</time>
      </trkpt>
      <trkpt lat="43.62768" lon="6.04906">
        <ele>565.6</ele>
        <time>2023-12-06T14:22:39Z</time>
      </trkpt>
      <trkpt lat="43.62775" lon="6.04906">
        <ele>565.5</ele>
        <time>2023-12-06T14:22:44.923Z</time>
      </trkpt>
      <trkpt lat="43.62781" lon="6.04906">
        <ele>565.3</ele>
        <time>2023-12-06T14:22:50Z</time>
      </trkpt>
      <trkpt lat="43.62789" lon="6.04908">
        <ele>565.2</ele>
        <time>2023-12-06T14:23:09Z</time>
      </trkpt>
      <trkpt lat="43.62796" lon="6.04908">
        <ele>565.1</ele>
        <time>2023-12-06T14:24:15Z</time>
      </trkpt>
      <trkpt lat="43.62802" lon="6.04906">
        <ele>565.1</ele>
        <time>2023-12-06T14:24:20.310Z</time>
      </trkpt>
      <trkpt lat="43.62807" lon="6.04903">
        <ele>565</ele>
        <time>2023-12-06T14:24:25Z</time>
      </trkpt>
      <trkpt lat="43.62813" lon="6.04899">
        <ele>564.9</ele>
        <time>2023-12-06T14:24:29.284Z</time>
      </trkpt>
      <trkpt lat="43.62818" lon="6.04895">
        <ele>564.9</ele>
        <time>2023-12-06T14:24:33Z</time>
      </trkpt>
      <trkpt lat="43.6282" lon="6.04889">
        <ele>565</ele>
        <time>2023-12-06T14:24:37.500Z</time>
      </trkpt>
      <trkpt lat="43.62822" lon="6.04883">
        <ele>565.3</ele>
        <time>2023-12-06T14:24:42Z</time>
      </trkpt>
      <trkpt lat="43.62823" lon="6.04876">
        <ele>565.6</ele>
        <time>2023-12-06T14:24:46.500Z</time>
      </trkpt>
      <trkpt lat="43.62824" lon="6.04869">
        <ele>566</ele>
        <time>2023-12-06T14:24:51Z</time>
      </trkpt>
      <trkpt lat="43.62827" lon="6.04858">
        <ele>566.4</ele>
        <time>2023-12-06T14:25:00Z</time>
      </trkpt>
      <trkpt lat="43.6283" lon="6.04853">
        <ele>566.7</ele>
        <time>2023-12-06T14:25:04.957Z</time>
      </trkpt>
      <trkpt lat="43.62832" lon="6.04847">
        <ele>567</ele>
        <time>2023-12-06T14:25:10Z</time>
      </trkpt>
      <trkpt lat="43.62828" lon="6.04841">
        <ele>567.5</ele>
        <time>2023-12-06T14:25:16.687Z</time>
      </trkpt>
      <trkpt lat="43.62824" lon="6.04834">
        <ele>568</ele>
        <time>2023-12-06T14:25:24Z</time>
      </trkpt>
      <trkpt lat="43.62819" lon="6.04829">
        <ele>568.3</ele>
        <time>2023-12-06T14:25:31.499Z</time>
      </trkpt>
      <trkpt lat="43.62814" lon="6.04824">
        <ele>568.7</ele>
        <time>2023-12-06T14:25:39Z</time>
      </trkpt>
      <trkpt lat="43.62808" lon="6.04817">
        <ele>569.2</ele>
        <time>2023-12-06T14:25:43.636Z</time>
      </trkpt>
      <trkpt lat="43.62801" lon="6.04809">
        <ele>569.8</ele>
        <time>2023-12-06T14:25:49Z</time>
      </trkpt>
      <trkpt lat="43.62798" lon="6.04804">
        <ele>570.1</ele>
        <time>2023-12-06T14:25:53.499Z</time>
      </trkpt>
      <trkpt lat="43.62795" lon="6.04799">
        <ele>570.5</ele>
        <time>2023-12-06T14:25:58Z</time>
      </trkpt>
      <trkpt lat="43.62791" lon="6.04795">
        <ele>570.8</ele>
        <time>2023-12-06T14:26:03.068Z</time>
      </trkpt>
      <trkpt lat="43.62786" lon="6.04791">
        <ele>571</ele>
        <time>2023-12-06T14:26:09Z</time>
      </trkpt>
      <trkpt lat="43.62782" lon="6.04787">
        <ele>571.3</ele>
        <time>2023-12-06T14:26:14.068Z</time>
      </trkpt>
      <trkpt lat="43.62777" lon="6.04783">
        <ele>571.6</ele>
        <time>2023-12-06T14:26:20Z</time>
      </trkpt>
      <trkpt lat="43.62771" lon="6.04777">
        <ele>572.1</ele>
        <time>2023-12-06T14:26:41.230Z</time>
      </trkpt>
      <trkpt lat="43.62764" lon="6.0477">
        <ele>572.4</ele>
        <time>2023-12-06T14:27:06Z</time>
      </trkpt>
      <trkpt lat="43.62759" lon="6.04764">
        <ele>572.7</ele>
        <time>2023-12-06T14:27:16Z</time>
      </trkpt>
      <trkpt lat="43.62754" lon="6.04758">
        <ele>572.8</ele>
        <time>2023-12-06T14:27:20.720Z</time>
      </trkpt>
      <trkpt lat="43.62748" lon="6.04752">
        <ele>572.8</ele>
        <time>2023-12-06T14:27:26Z</time>
      </trkpt>
      <trkpt lat="43.62745" lon="6.04746">
        <ele>572.8</ele>
        <time>2023-12-06T14:27:30.999Z</time>
      </trkpt>
      <trkpt lat="43.62742" lon="6.0474">
        <ele>572.8</ele>
        <time>2023-12-06T14:27:36Z</time>
      </trkpt>
      <trkpt lat="43.62737" lon="6.04731">
        <ele>572.7</ele>
        <time>2023-12-06T14:27:40.999Z</time>
      </trkpt>
      <trkpt lat="43.62732" lon="6.04722">
        <ele>572.7</ele>
        <time>2023-12-06T14:27:46Z</time>
      </trkpt>
      <trkpt lat="43.62728" lon="6.04717">
        <ele>572.6</ele>
        <time>2023-12-06T14:27:49.819Z</time>
      </trkpt>
      <trkpt lat="43.62724" lon="6.04711">
        <ele>572.5</ele>
        <time>2023-12-06T14:27:54Z</time>
      </trkpt>
      <trkpt lat="43.62718" lon="6.04702">
        <ele>572.8</ele>
        <time>2023-12-06T14:28:02Z</time>
      </trkpt>
      <trkpt lat="43.62714" lon="6.04699">
        <ele>573.1</ele>
        <time>2023-12-06T14:28:07.275Z</time>
      </trkpt>
      <trkpt lat="43.6271" lon="6.04695">
        <ele>573.4</ele>
        <time>2023-12-06T14:28:13Z</time>
      </trkpt>
      <trkpt lat="43.62704" lon="6.04689">
        <ele>574</ele>
        <time>2023-12-06T14:28:17.853Z</time>
      </trkpt>
      <trkpt lat="43.62698" lon="6.04682">
        <ele>574.4</ele>
        <time>2023-12-06T14:28:23Z</time>
      </trkpt>
      <trkpt lat="43.62695" lon="6.04676">
        <ele>574.7</ele>
        <time>2023-12-06T14:28:28.999Z</time>
      </trkpt>
      <trkpt lat="43.62692" lon="6.0467">
        <ele>574.8</ele>
        <time>2023-12-06T14:28:35Z</time>
      </trkpt>
      <trkpt lat="43.62689" lon="6.04662">
        <ele>575.1</ele>
        <time>2023-12-06T14:28:38.560Z</time>
      </trkpt>
      <trkpt lat="43.62692" lon="6.04655">
        <ele>575.7</ele>
        <time>2023-12-06T14:28:41.775Z</time>
      </trkpt>
      <trkpt lat="43.62696" lon="6.04649">
        <ele>576.3</ele>
        <time>2023-12-06T14:28:45Z</time>
      </trkpt>
      <trkpt lat="43.627" lon="6.04644">
        <ele>576.7</ele>
        <time>2023-12-06T14:28:57Z</time>
      </trkpt>
      <trkpt lat="43.62705" lon="6.04642">
        <ele>576.8</ele>
        <time>2023-12-06T14:29:01.884Z</time>
      </trkpt>
      <trkpt lat="43.6271" lon="6.04639">
        <ele>577</ele>
        <time>2023-12-06T14:29:07Z</time>
      </trkpt>
      <trkpt lat="43.62714" lon="6.04634">
        <ele>577.3</ele>
        <time>2023-12-06T14:29:11.548Z</time>
      </trkpt>
      <trkpt lat="43.62717" lon="6.04628">
        <ele>577.7</ele>
        <time>2023-12-06T14:29:16Z</time>
      </trkpt>
      <trkpt lat="43.62721" lon="6.04624">
        <ele>578</ele>
        <time>2023-12-06T14:29:20.000Z</time>
      </trkpt>
      <trkpt lat="43.62725" lon="6.0462">
        <ele>578.4</ele>
        <time>2023-12-06T14:29:24Z</time>
      </trkpt>
      <trkpt lat="43.62729" lon="6.04615">
        <ele>578.7</ele>
        <time>2023-12-06T14:29:28.809Z</time>
      </trkpt>
      <trkpt lat="43.62732" lon="6.0461">
        <ele>579.1</ele>
        <time>2023-12-06T14:29:33Z</time>
      </trkpt>
      <trkpt lat="43.62735" lon="6.04605">
        <ele>579.4</ele>
        <time>2023-12-06T14:29:38.000Z</time>
      </trkpt>
      <trkpt lat="43.62738" lon="6.046">
        <ele>579.8</ele>
        <time>2023-12-06T14:29:43Z</time>
      </trkpt>
      <trkpt lat="43.62742" lon="6.04596">
        <ele>580.1</ele>
        <time>2023-12-06T14:29:47.779Z</time>
      </trkpt>
      <trkpt lat="43.62746" lon="6.04591">
        <ele>580.4</ele>
        <time>2023-12-06T14:29:53Z</time>
      </trkpt>
      <trkpt lat="43.62751" lon="6.04588">
        <ele>580.7</ele>
        <time>2023-12-06T14:29:58.449Z</time>
      </trkpt>
      <trkpt lat="43.62755" lon="6.04585">
        <ele>580.9</ele>
        <time>2023-12-06T14:30:03Z</time>
      </trkpt>
      <trkpt lat="43.6276" lon="6.04583">
        <ele>581</ele>
        <time>2023-12-06T14:30:08.373Z</time>
      </trkpt>
      <trkpt lat="43.62765" lon="6.0458">
        <ele>581.2</ele>
        <time>2023-12-06T14:30:14Z</time>
      </trkpt>
      <trkpt lat="43.6277" lon="6.04575">
        <ele>581.4</ele>
        <time>2023-12-06T14:30:20.403Z</time>
      </trkpt>
      <trkpt lat="43.62774" lon="6.0457">
        <ele>581.5</ele>
        <time>2023-12-06T14:30:26Z</time>
      </trkpt>
      <trkpt lat="43.62778" lon="6.04565">
        <ele>581.7</ele>
        <time>2023-12-06T14:30:31.251Z</time>
      </trkpt>
      <trkpt lat="43.62782" lon="6.04559">
        <ele>581.7</ele>
        <time>2023-12-06T14:30:37Z</time>
      </trkpt>
      <trkpt lat="43.62788" lon="6.04555">
        <ele>581.7</ele>
        <time>2023-12-06T14:30:43.228Z</time>
      </trkpt>
      <trkpt lat="43.62793" lon="6.0455">
        <ele>581.9</ele>
        <time>2023-12-06T14:30:49Z</time>
      </trkpt>
      <trkpt lat="43.62798" lon="6.04547">
        <ele>581.9</ele>
        <time>2023-12-06T14:30:54.449Z</time>
      </trkpt>
      <trkpt lat="43.62802" lon="6.04544">
        <ele>582</ele>
        <time>2023-12-06T14:30:59Z</time>
      </trkpt>
      <trkpt lat="43.62807" lon="6.04539">
        <ele>582.1</ele>
        <time>2023-12-06T14:31:04.336Z</time>
      </trkpt>
      <trkpt lat="43.62811" lon="6.04534">
        <ele>582.2</ele>
        <time>2023-12-06T14:31:09Z</time>
      </trkpt>
      <trkpt lat="43.62816" lon="6.04528">
        <ele>582.3</ele>
        <time>2023-12-06T14:31:14.286Z</time>
      </trkpt>
      <trkpt lat="43.6282" lon="6.04522">
        <ele>582.2</ele>
        <time>2023-12-06T14:31:19Z</time>
      </trkpt>
      <trkpt lat="43.62824" lon="6.04517">
        <ele>582.1</ele>
        <time>2023-12-06T14:31:23.774Z</time>
      </trkpt>
      <trkpt lat="43.62828" lon="6.04511">
        <ele>582</ele>
        <time>2023-12-06T14:31:29Z</time>
      </trkpt>
      <trkpt lat="43.62833" lon="6.04507">
        <ele>581.8</ele>
        <time>2023-12-06T14:31:33.313Z</time>
      </trkpt>
      <trkpt lat="43.62837" lon="6.04503">
        <ele>581.8</ele>
        <time>2023-12-06T14:31:37Z</time>
      </trkpt>
      <trkpt lat="43.62841" lon="6.045">
        <ele>581.8</ele>
        <time>2023-12-06T14:31:41.316Z</time>
      </trkpt>
      <trkpt lat="43.62845" lon="6.04496">
        <ele>581.9</ele>
        <time>2023-12-06T14:31:46Z</time>
      </trkpt>
      <trkpt lat="43.62849" lon="6.04492">
        <ele>582</ele>
        <time>2023-12-06T14:31:49.823Z</time>
      </trkpt>
      <trkpt lat="43.62853" lon="6.04487">
        <ele>582.2</ele>
        <time>2023-12-06T14:31:54Z</time>
      </trkpt>
      <trkpt lat="43.62857" lon="6.04483">
        <ele>582.4</ele>
        <time>2023-12-06T14:31:57.500Z</time>
      </trkpt>
      <trkpt lat="43.62861" lon="6.04479">
        <ele>582.5</ele>
        <time>2023-12-06T14:32:01Z</time>
      </trkpt>
      <trkpt lat="43.62867" lon="6.0447">
        <ele>582.7</ele>
        <time>2023-12-06T14:32:08Z</time>
      </trkpt>
      <trkpt lat="43.62873" lon="6.04463">
        <ele>582.6</ele>
        <time>2023-12-06T14:32:17Z</time>
      </trkpt>
      <trkpt lat="43.6288" lon="6.04457">
        <ele>582.6</ele>
        <time>2023-12-06T14:32:24Z</time>
      </trkpt>
      <trkpt lat="43.62887" lon="6.04451">
        <ele>582.6</ele>
        <time>2023-12-06T14:32:31Z</time>
      </trkpt>
      <trkpt lat="43.62892" lon="6.04448">
        <ele>582.7</ele>
        <time>2023-12-06T14:32:35.359Z</time>
      </trkpt>
      <trkpt lat="43.62896" lon="6.04445">
        <ele>583</ele>
        <time>2023-12-06T14:32:39Z</time>
      </trkpt>
      <trkpt lat="43.62901" lon="6.04444">
        <ele>583</ele>
        <time>2023-12-06T14:32:43.433Z</time>
      </trkpt>
      <trkpt lat="43.62905" lon="6.04443">
        <ele>583.1</ele>
        <time>2023-12-06T14:32:47Z</time>
      </trkpt>
      <trkpt lat="43.6291" lon="6.04439">
        <ele>583.3</ele>
        <time>2023-12-06T14:32:51.313Z</time>
      </trkpt>
      <trkpt lat="43.62914" lon="6.04435">
        <ele>583.6</ele>
        <time>2023-12-06T14:32:55Z</time>
      </trkpt>
      <trkpt lat="43.62921" lon="6.04428">
        <ele>584</ele>
        <time>2023-12-06T14:33:04Z</time>
      </trkpt>
      <trkpt lat="43.62926" lon="6.04425">
        <ele>584.1</ele>
        <time>2023-12-06T14:33:09.449Z</time>
      </trkpt>
      <trkpt lat="43.6293" lon="6.04422">
        <ele>584.1</ele>
        <time>2023-12-06T14:33:14Z</time>
      </trkpt>
      <trkpt lat="43.62934" lon="6.04418">
        <ele>584.3</ele>
        <time>2023-12-06T14:33:18.779Z</time>
      </trkpt>
      <trkpt lat="43.62938" lon="6.04413">
        <ele>584.5</ele>
        <time>2023-12-06T14:33:24Z</time>
      </trkpt>
      <trkpt lat="43.62943" lon="6.04408">
        <ele>584.7</ele>
        <time>2023-12-06T14:33:29.110Z</time>
      </trkpt>
      <trkpt lat="43.62947" lon="6.04402">
        <ele>584.9</ele>
        <time>2023-12-06T14:33:34Z</time>
      </trkpt>
      <trkpt lat="43.62951" lon="6.04398">
        <ele>584.9</ele>
        <time>2023-12-06T14:33:41.500Z</time>
      </trkpt>
      <trkpt lat="43.62955" lon="6.04394">
        <ele>584.9</ele>
        <time>2023-12-06T14:33:49Z</time>
      </trkpt>
      <trkpt lat="43.6296" lon="6.0439">
        <ele>584.8</ele>
        <time>2023-12-06T14:34:00.603Z</time>
      </trkpt>
      <trkpt lat="43.62965" lon="6.04385">
        <ele>584.8</ele>
        <time>2023-12-06T14:34:13Z</time>
      </trkpt>
      <trkpt lat="43.62969" lon="6.04381">
        <ele>584.8</ele>
        <time>2023-12-06T14:34:18.000Z</time>
      </trkpt>
      <trkpt lat="43.62973" lon="6.04377">
        <ele>584.8</ele>
        <time>2023-12-06T14:34:23Z</time>
      </trkpt>
      <trkpt lat="43.62976" lon="6.04372">
        <ele>584.9</ele>
        <time>2023-12-06T14:34:31.000Z</time>
      </trkpt>
      <trkpt lat="43.62979" lon="6.04367">
        <ele>585.1</ele>
        <time>2023-12-06T14:34:39Z</time>
      </trkpt>
      <trkpt lat="43.62983" lon="6.04362">
        <ele>585.2</ele>
        <time>2023-12-06T14:35:08.314Z</time>
      </trkpt>
      <trkpt lat="43.62986" lon="6.04356">
        <ele>585.2</ele>
        <time>2023-12-06T14:35:37Z</time>
      </trkpt>
      <trkpt lat="43.6299" lon="6.04352">
        <ele>585.1</ele>
        <time>2023-12-06T14:35:41.098Z</time>
      </trkpt>
      <trkpt lat="43.62993" lon="6.04347">
        <ele>585</ele>
        <time>2023-12-06T14:35:45Z</time>
      </trkpt>
      <trkpt lat="43.62997" lon="6.04342">
        <ele>584.9</ele>
        <time>2023-12-06T14:35:54.618Z</time>
      </trkpt>
      <trkpt lat="43.63" lon="6.04337">
        <ele>584.9</ele>
        <time>2023-12-06T14:36:03Z</time>
      </trkpt>
      <trkpt lat="43.63004" lon="6.04333">
        <ele>584.7</ele>
        <time>2023-12-06T14:36:07.098Z</time>
      </trkpt>
      <trkpt lat="43.63007" lon="6.04328">
        <ele>584.4</ele>
        <time>2023-12-06T14:36:11Z</time>
      </trkpt>
      <trkpt lat="43.63011" lon="6.04323">
        <ele>584.2</ele>
        <time>2023-12-06T14:36:15.809Z</time>
      </trkpt>
      <trkpt lat="43.63014" lon="6.04318">
        <ele>584</ele>
        <time>2023-12-06T14:36:20Z</time>
      </trkpt>
      <trkpt lat="43.63018" lon="6.04314">
        <ele>583.8</ele>
        <time>2023-12-06T14:36:24.098Z</time>
      </trkpt>
      <trkpt lat="43.63021" lon="6.04309">
        <ele>583.6</ele>
        <time>2023-12-06T14:36:28Z</time>
      </trkpt>
      <trkpt lat="43.63024" lon="6.04303">
        <ele>583.5</ele>
        <time>2023-12-06T14:36:32.000Z</time>
      </trkpt>
      <trkpt lat="43.63027" lon="6.04297">
        <ele>583.4</ele>
        <time>2023-12-06T14:36:36Z</time>
      </trkpt>
      <trkpt lat="43.6303" lon="6.04291">
        <ele>583.3</ele>
        <time>2023-12-06T14:36:40.197Z</time>
      </trkpt>
      <trkpt lat="43.63032" lon="6.04285">
        <ele>583.3</ele>
        <time>2023-12-06T14:36:44Z</time>
      </trkpt>
      <trkpt lat="43.63036" lon="6.04278">
        <ele>583.2</ele>
        <time>2023-12-06T14:36:48.706Z</time>
      </trkpt>
      <trkpt lat="43.63039" lon="6.04271">
        <ele>582.9</ele>
        <time>2023-12-06T14:36:53Z</time>
      </trkpt>
      <trkpt lat="43.63042" lon="6.04266">
        <ele>582.7</ele>
        <time>2023-12-06T14:36:56.470Z</time>
      </trkpt>
      <trkpt lat="43.63044" lon="6.0426">
        <ele>582.6</ele>
        <time>2023-12-06T14:37:00Z</time>
      </trkpt>
      <trkpt lat="43.63049" lon="6.0425">
        <ele>582.5</ele>
        <time>2023-12-06T14:37:07Z</time>
      </trkpt>
      <trkpt lat="43.63052" lon="6.04244">
        <ele>582.4</ele>
        <time>2023-12-06T14:37:10.672Z</time>
      </trkpt>
      <trkpt lat="43.63054" lon="6.04238">
        <ele>582.5</ele>
        <time>2023-12-06T14:37:14Z</time>
      </trkpt>
      <trkpt lat="43.63057" lon="6.04233">
        <ele>582.5</ele>
        <time>2023-12-06T14:37:17.297Z</time>
      </trkpt>
      <trkpt lat="43.6306" lon="6.04227">
        <ele>582.3</ele>
        <time>2023-12-06T14:37:21Z</time>
      </trkpt>
      <trkpt lat="43.63064" lon="6.04223">
        <ele>582.1</ele>
        <time>2023-12-06T14:37:24.586Z</time>
      </trkpt>
      <trkpt lat="43.63067" lon="6.04218">
        <ele>581.7</ele>
        <time>2023-12-06T14:37:28Z</time>
      </trkpt>
      <trkpt lat="43.63073" lon="6.04209">
        <ele>581.2</ele>
        <time>2023-12-06T14:37:35Z</time>
      </trkpt>
      <trkpt lat="43.63079" lon="6.042">
        <ele>581</ele>
        <time>2023-12-06T14:37:42Z</time>
      </trkpt>
      <trkpt lat="43.63083" lon="6.04196">
        <ele>581</ele>
        <time>2023-12-06T14:37:46.337Z</time>
      </trkpt>
      <trkpt lat="43.63086" lon="6.04192">
        <ele>580.6</ele>
        <time>2023-12-06T14:37:50Z</time>
      </trkpt>
      <trkpt lat="43.63091" lon="6.04189">
        <ele>580.1</ele>
        <time>2023-12-06T14:37:54.197Z</time>
      </trkpt>
      <trkpt lat="43.63095" lon="6.04185">
        <ele>579.7</ele>
        <time>2023-12-06T14:37:58Z</time>
      </trkpt>
      <trkpt lat="43.631" lon="6.04182">
        <ele>579.3</ele>
        <time>2023-12-06T14:38:02.369Z</time>
      </trkpt>
      <trkpt lat="43.63105" lon="6.04178">
        <ele>579</ele>
        <time>2023-12-06T14:38:07Z</time>
      </trkpt>
      <trkpt lat="43.63109" lon="6.04175">
        <ele>578.8</ele>
        <time>2023-12-06T14:38:11.000Z</time>
      </trkpt>
      <trkpt lat="43.63113" lon="6.04172">
        <ele>578.6</ele>
        <time>2023-12-06T14:38:15Z</time>
      </trkpt>
      <trkpt lat="43.63117" lon="6.04168">
        <ele>578.5</ele>
        <time>2023-12-06T14:38:18.823Z</time>
      </trkpt>
      <trkpt lat="43.63121" lon="6.04163">
        <ele>578.3</ele>
        <time>2023-12-06T14:38:23Z</time>
      </trkpt>
      <trkpt lat="43.63125" lon="6.04158">
        <ele>578.2</ele>
        <time>2023-12-06T14:38:27.000Z</time>
      </trkpt>
      <trkpt lat="43.63129" lon="6.04153">
        <ele>578</ele>
        <time>2023-12-06T14:38:31Z</time>
      </trkpt>
      <trkpt lat="43.63134" lon="6.04148">
        <ele>577.9</ele>
        <time>2023-12-06T14:38:36.336Z</time>
      </trkpt>
      <trkpt lat="43.63138" lon="6.04143">
        <ele>577.9</ele>
        <time>2023-12-06T14:38:41Z</time>
      </trkpt>
      <trkpt lat="43.63143" lon="6.04138">
        <ele>577.7</ele>
        <time>2023-12-06T14:38:45.599Z</time>
      </trkpt>
      <trkpt lat="43.63147" lon="6.04132">
        <ele>577.2</ele>
        <time>2023-12-06T14:38:50Z</time>
      </trkpt>
      <trkpt lat="43.63152" lon="6.04128">
        <ele>576.8</ele>
        <time>2023-12-06T14:38:54.500Z</time>
      </trkpt>
      <trkpt lat="43.63157" lon="6.04124">
        <ele>576.5</ele>
        <time>2023-12-06T14:38:59Z</time>
      </trkpt>
      <trkpt lat="43.63162" lon="6.04122">
        <ele>576.2</ele>
        <time>2023-12-06T14:39:03.396Z</time>
      </trkpt>
      <trkpt lat="43.63167" lon="6.04119">
        <ele>576</ele>
        <time>2023-12-06T14:39:08Z</time>
      </trkpt>
      <trkpt lat="43.63171" lon="6.04114">
        <ele>575.7</ele>
        <time>2023-12-06T14:39:12.500Z</time>
      </trkpt>
      <trkpt lat="43.63175" lon="6.04109">
        <ele>575.4</ele>
        <time>2023-12-06T14:39:17Z</time>
      </trkpt>
      <trkpt lat="43.63178" lon="6.04104">
        <ele>575.3</ele>
        <time>2023-12-06T14:39:20.768Z</time>
      </trkpt>
      <trkpt lat="43.63181" lon="6.04098">
        <ele>575.2</ele>
        <time>2023-12-06T14:39:25Z</time>
      </trkpt>
      <trkpt lat="43.63185" lon="6.04093">
        <ele>575.1</ele>
        <time>2023-12-06T14:39:28.740Z</time>
      </trkpt>
      <trkpt lat="43.63188" lon="6.04088">
        <ele>575.1</ele>
        <time>2023-12-06T14:39:32Z</time>
      </trkpt>
      <trkpt lat="43.63194" lon="6.04079">
        <ele>575</ele>
        <time>2023-12-06T14:39:39Z</time>
      </trkpt>
      <trkpt lat="43.63198" lon="6.04073">
        <ele>574.8</ele>
        <time>2023-12-06T14:39:43.223Z</time>
      </trkpt>
      <trkpt lat="43.63201" lon="6.04067">
        <ele>574.6</ele>
        <time>2023-12-06T14:39:47Z</time>
      </trkpt>
      <trkpt lat="43.63204" lon="6.04056">
        <ele>574.6</ele>
        <time>2023-12-06T14:39:54Z</time>
      </trkpt>
      <trkpt lat="43.63206" lon="6.0405">
        <ele>574.5</ele>
        <time>2023-12-06T14:39:57.365Z</time>
      </trkpt>
      <trkpt lat="43.63207" lon="6.04043">
        <ele>574.3</ele>
        <time>2023-12-06T14:40:01Z</time>
      </trkpt>
      <trkpt lat="43.6321" lon="6.04032">
        <ele>574.1</ele>
        <time>2023-12-06T14:40:08Z</time>
      </trkpt>
      <trkpt lat="43.63213" lon="6.04027">
        <ele>574</ele>
        <time>2023-12-06T14:40:11.470Z</time>
      </trkpt>
      <trkpt lat="43.63215" lon="6.04021">
        <ele>573.8</ele>
        <time>2023-12-06T14:40:15Z</time>
      </trkpt>
      <trkpt lat="43.63218" lon="6.04015">
        <ele>573.5</ele>
        <time>2023-12-06T14:40:19.000Z</time>
      </trkpt>
      <trkpt lat="43.63221" lon="6.04009">
        <ele>573.3</ele>
        <time>2023-12-06T14:40:23Z</time>
      </trkpt>
      <trkpt lat="43.63224" lon="6.04004">
        <ele>573.1</ele>
        <time>2023-12-06T14:40:26.470Z</time>
      </trkpt>
      <trkpt lat="43.63226" lon="6.03998">
        <ele>572.9</ele>
        <time>2023-12-06T14:40:30Z</time>
      </trkpt>
      <trkpt lat="43.6323" lon="6.03987">
        <ele>572.7</ele>
        <time>2023-12-06T14:40:37Z</time>
      </trkpt>
      <trkpt lat="43.63233" lon="6.03982">
        <ele>572.6</ele>
        <time>2023-12-06T14:40:40.470Z</time>
      </trkpt>
      <trkpt lat="43.63235" lon="6.03976">
        <ele>572.5</ele>
        <time>2023-12-06T14:40:44Z</time>
      </trkpt>
      <trkpt lat="43.63241" lon="6.03967">
        <ele>572.5</ele>
        <time>2023-12-06T14:40:51Z</time>
      </trkpt>
      <trkpt lat="43.63246" lon="6.03957">
        <ele>572.3</ele>
        <time>2023-12-06T14:40:58Z</time>
      </trkpt>
      <trkpt lat="43.63249" lon="6.03952">
        <ele>572.2</ele>
        <time>2023-12-06T14:41:01.966Z</time>
      </trkpt>
      <trkpt lat="43.63251" lon="6.03946">
        <ele>572.1</ele>
        <time>2023-12-06T14:41:06Z</time>
      </trkpt>
      <trkpt lat="43.63254" lon="6.0394">
        <ele>571.9</ele>
        <time>2023-12-06T14:41:10.000Z</time>
      </trkpt>
      <trkpt lat="43.63257" lon="6.03934">
        <ele>571.7</ele>
        <time>2023-12-06T14:41:14Z</time>
      </trkpt>
      <trkpt lat="43.63259" lon="6.03922">
        <ele>571.5</ele>
        <time>2023-12-06T14:41:21Z</time>
      </trkpt>
      <trkpt lat="43.63261" lon="6.03916">
        <ele>571.4</ele>
        <time>2023-12-06T14:41:24.272Z</time>
      </trkpt>
      <trkpt lat="43.63263" lon="6.03909">
        <ele>571.2</ele>
        <time>2023-12-06T14:41:28Z</time>
      </trkpt>
      <trkpt lat="43.63267" lon="6.03899">
        <ele>571</ele>
        <time>2023-12-06T14:41:35Z</time>
      </trkpt>
      <trkpt lat="43.63269" lon="6.03893">
        <ele>570.8</ele>
        <time>2023-12-06T14:41:38.623Z</time>
      </trkpt>
      <trkpt lat="43.6327" lon="6.03887">
        <ele>570.7</ele>
        <time>2023-12-06T14:41:42Z</time>
      </trkpt>
      <trkpt lat="43.63271" lon="6.03881">
        <ele>570.5</ele>
        <time>2023-12-06T14:41:45.705Z</time>
      </trkpt>
      <trkpt lat="43.63272" lon="6.03874">
        <ele>570.3</ele>
        <time>2023-12-06T14:41:50Z</time>
      </trkpt>
      <trkpt lat="43.63274" lon="6.03862">
        <ele>569.9</ele>
        <time>2023-12-06T14:41:57Z</time>
      </trkpt>
      <trkpt lat="43.63278" lon="6.03857">
        <ele>569.8</ele>
        <time>2023-12-06T14:42:00.740Z</time>
      </trkpt>
      <trkpt lat="43.63281" lon="6.03852">
        <ele>569.7</ele>
        <time>2023-12-06T14:42:04Z</time>
      </trkpt>
      <trkpt lat="43.63287" lon="6.03843">
        <ele>569.6</ele>
        <time>2023-12-06T14:42:11Z</time>
      </trkpt>
      <trkpt lat="43.6329" lon="6.03838">
        <ele>569.5</ele>
        <time>2023-12-06T14:42:14.768Z</time>
      </trkpt>
      <trkpt lat="43.63293" lon="6.03832">
        <ele>569.5</ele>
        <time>2023-12-06T14:42:19Z</time>
      </trkpt>
      <trkpt lat="43.633" lon="6.03825">
        <ele>569.5</ele>
        <time>2023-12-06T14:42:26Z</time>
      </trkpt>
      <trkpt lat="43.63304" lon="6.03821">
        <ele>569.5</ele>
        <time>2023-12-06T14:42:30.337Z</time>
      </trkpt>
      <trkpt lat="43.63307" lon="6.03817">
        <ele>569.3</ele>
        <time>2023-12-06T14:42:34Z</time>
      </trkpt>
      <trkpt lat="43.6331" lon="6.03812">
        <ele>569</ele>
        <time>2023-12-06T14:42:37.768Z</time>
      </trkpt>
      <trkpt lat="43.63313" lon="6.03806">
        <ele>568.7</ele>
        <time>2023-12-06T14:42:42Z</time>
      </trkpt>
      <trkpt lat="43.63318" lon="6.03803">
        <ele>568.5</ele>
        <time>2023-12-06T14:42:46.359Z</time>
      </trkpt>
      <trkpt lat="43.63322" lon="6.038">
        <ele>568.2</ele>
        <time>2023-12-06T14:42:50Z</time>
      </trkpt>
      <trkpt lat="43.63326" lon="6.03797">
        <ele>568.1</ele>
        <time>2023-12-06T14:42:54.000Z</time>
      </trkpt>
      <trkpt lat="43.6333" lon="6.03794">
        <ele>568</ele>
        <time>2023-12-06T14:42:58Z</time>
      </trkpt>
      <trkpt lat="43.63333" lon="6.03789">
        <ele>568</ele>
        <time>2023-12-06T14:43:02.000Z</time>
      </trkpt>
      <trkpt lat="43.63336" lon="6.03784">
        <ele>567.8</ele>
        <time>2023-12-06T14:43:06Z</time>
      </trkpt>
      <trkpt lat="43.63339" lon="6.03778">
        <ele>567.6</ele>
        <time>2023-12-06T14:43:10.000Z</time>
      </trkpt>
      <trkpt lat="43.63342" lon="6.03772">
        <ele>567.3</ele>
        <time>2023-12-06T14:43:14Z</time>
      </trkpt>
      <trkpt lat="43.63345" lon="6.03766">
        <ele>567.1</ele>
        <time>2023-12-06T14:43:17.937Z</time>
      </trkpt>
      <trkpt lat="43.63347" lon="6.03759">
        <ele>567</ele>
        <time>2023-12-06T14:43:22Z</time>
      </trkpt>
      <trkpt lat="43.63349" lon="6.03752">
        <ele>567</ele>
        <time>2023-12-06T14:43:26.106Z</time>
      </trkpt>
      <trkpt lat="43.6335" lon="6.03745">
        <ele>567</ele>
        <time>2023-12-06T14:43:30Z</time>
      </trkpt>
      <trkpt lat="43.63352" lon="6.03739">
        <ele>567</ele>
        <time>2023-12-06T14:43:33.845Z</time>
      </trkpt>
      <trkpt lat="43.63353" lon="6.03732">
        <ele>567</ele>
        <time>2023-12-06T14:43:38Z</time>
      </trkpt>
      <trkpt lat="43.63355" lon="6.03726">
        <ele>567</ele>
        <time>2023-12-06T14:43:41.739Z</time>
      </trkpt>
      <trkpt lat="43.63357" lon="6.03719">
        <ele>567</ele>
        <time>2023-12-06T14:43:46Z</time>
      </trkpt>
      <trkpt lat="43.6336" lon="6.03713">
        <ele>567</ele>
        <time>2023-12-06T14:43:50.197Z</time>
      </trkpt>
      <trkpt lat="43.63362" lon="6.03707">
        <ele>566.9</ele>
        <time>2023-12-06T14:43:54Z</time>
      </trkpt>
      <trkpt lat="43.63364" lon="6.03701">
        <ele>566.8</ele>
        <time>2023-12-06T14:43:57.739Z</time>
      </trkpt>
      <trkpt lat="43.63366" lon="6.03694">
        <ele>566.7</ele>
        <time>2023-12-06T14:44:02Z</time>
      </trkpt>
      <trkpt lat="43.63368" lon="6.03688">
        <ele>566.6</ele>
        <time>2023-12-06T14:44:06.000Z</time>
      </trkpt>
      <trkpt lat="43.6337" lon="6.03682">
        <ele>566.5</ele>
        <time>2023-12-06T14:44:10Z</time>
      </trkpt>
      <trkpt lat="43.63373" lon="6.03677">
        <ele>566.4</ele>
        <time>2023-12-06T14:44:14.461Z</time>
      </trkpt>
      <trkpt lat="43.63375" lon="6.03671">
        <ele>566.4</ele>
        <time>2023-12-06T14:44:19Z</time>
      </trkpt>
      <trkpt lat="43.63378" lon="6.03664">
        <ele>566.5</ele>
        <time>2023-12-06T14:44:23.500Z</time>
      </trkpt>
      <trkpt lat="43.63381" lon="6.03657">
        <ele>566.5</ele>
        <time>2023-12-06T14:44:28Z</time>
      </trkpt>
      <trkpt lat="43.63383" lon="6.03651">
        <ele>566.7</ele>
        <time>2023-12-06T14:44:32.207Z</time>
      </trkpt>
      <trkpt lat="43.63385" lon="6.03644">
        <ele>566.8</ele>
        <time>2023-12-06T14:44:37Z</time>
      </trkpt>
      <trkpt lat="43.63388" lon="6.03638">
        <ele>567</ele>
        <time>2023-12-06T14:44:41.722Z</time>
      </trkpt>
      <trkpt lat="43.6339" lon="6.03632">
        <ele>566.6</ele>
        <time>2023-12-06T14:44:46Z</time>
      </trkpt>
      <trkpt lat="43.63394" lon="6.03627">
        <ele>566.1</ele>
        <time>2023-12-06T14:44:50.043Z</time>
      </trkpt>
      <trkpt lat="43.63397" lon="6.03621">
        <ele>565.7</ele>
        <time>2023-12-06T14:44:54Z</time>
      </trkpt>
      <trkpt lat="43.63401" lon="6.03615">
        <ele>565.2</ele>
        <time>2023-12-06T14:44:58.500Z</time>
      </trkpt>
      <trkpt lat="43.63405" lon="6.03609">
        <ele>564.9</ele>
        <time>2023-12-06T14:45:03Z</time>
      </trkpt>
      <trkpt lat="43.63408" lon="6.03603">
        <ele>564.8</ele>
        <time>2023-12-06T14:45:07.722Z</time>
      </trkpt>
      <trkpt lat="43.6341" lon="6.03597">
        <ele>564.7</ele>
        <time>2023-12-06T14:45:12Z</time>
      </trkpt>
      <trkpt lat="43.63413" lon="6.03591">
        <ele>564.8</ele>
        <time>2023-12-06T14:45:16.000Z</time>
      </trkpt>
      <trkpt lat="43.63416" lon="6.03585">
        <ele>564.9</ele>
        <time>2023-12-06T14:45:20Z</time>
      </trkpt>
      <trkpt lat="43.6342" lon="6.03579">
        <ele>564.5</ele>
        <time>2023-12-06T14:45:24.223Z</time>
      </trkpt>
      <trkpt lat="43.63423" lon="6.03573">
        <ele>563.9</ele>
        <time>2023-12-06T14:45:28Z</time>
      </trkpt>
      <trkpt lat="43.63425" lon="6.03567">
        <ele>563.6</ele>
        <time>2023-12-06T14:45:32.500Z</time>
      </trkpt>
      <trkpt lat="43.63427" lon="6.03561">
        <ele>563.3</ele>
        <time>2023-12-06T14:45:37Z</time>
      </trkpt>
      <trkpt lat="43.6343" lon="6.0355">
        <ele>562.9</ele>
        <time>2023-12-06T14:45:45Z</time>
      </trkpt>
      <trkpt lat="43.63432" lon="6.03544">
        <ele>562.7</ele>
        <time>2023-12-06T14:45:48.739Z</time>
      </trkpt>
      <trkpt lat="43.63434" lon="6.03537">
        <ele>562.5</ele>
        <time>2023-12-06T14:45:53Z</time>
      </trkpt>
      <trkpt lat="43.63436" lon="6.03531">
        <ele>562.3</ele>
        <time>2023-12-06T14:45:56.272Z</time>
      </trkpt>
      <trkpt lat="43.63438" lon="6.03524">
        <ele>562.2</ele>
        <time>2023-12-06T14:46:00Z</time>
      </trkpt>
      <trkpt lat="43.63441" lon="6.03519">
        <ele>562.1</ele>
        <time>2023-12-06T14:46:04.500Z</time>
      </trkpt>
      <trkpt lat="43.63444" lon="6.03514">
        <ele>562</ele>
        <time>2023-12-06T14:46:09Z</time>
      </trkpt>
      <trkpt lat="43.63448" lon="6.03506">
        <ele>561.7</ele>
        <time>2023-12-06T14:47:38Z</time>
      </trkpt>
      <trkpt lat="43.63451" lon="6.035">
        <ele>561.5</ele>
        <time>2023-12-06T14:47:42.000Z</time>
      </trkpt>
      <trkpt lat="43.63454" lon="6.03494">
        <ele>561.2</ele>
        <time>2023-12-06T14:47:46Z</time>
      </trkpt>
      <trkpt lat="43.63456" lon="6.03488">
        <ele>560.9</ele>
        <time>2023-12-06T14:47:50.140Z</time>
      </trkpt>
      <trkpt lat="43.63457" lon="6.03482">
        <ele>560.7</ele>
        <time>2023-12-06T14:47:54Z</time>
      </trkpt>
      <trkpt lat="43.6346" lon="6.03477">
        <ele>560.5</ele>
        <time>2023-12-06T14:47:57.966Z</time>
      </trkpt>
      <trkpt lat="43.63462" lon="6.03471">
        <ele>560.3</ele>
        <time>2023-12-06T14:48:02Z</time>
      </trkpt>
      <trkpt lat="43.63464" lon="6.03465">
        <ele>560.1</ele>
        <time>2023-12-06T14:48:06.000Z</time>
      </trkpt>
      <trkpt lat="43.63466" lon="6.03459">
        <ele>560</ele>
        <time>2023-12-06T14:48:10Z</time>
      </trkpt>
      <trkpt lat="43.63469" lon="6.03453">
        <ele>559.9</ele>
        <time>2023-12-06T14:48:14.197Z</time>
      </trkpt>
      <trkpt lat="43.63471" lon="6.03447">
        <ele>560</ele>
        <time>2023-12-06T14:48:18Z</time>
      </trkpt>
      <trkpt lat="43.63473" lon="6.03441">
        <ele>559.8</ele>
        <time>2023-12-06T14:48:22.000Z</time>
      </trkpt>
      <trkpt lat="43.63475" lon="6.03435">
        <ele>559.5</ele>
        <time>2023-12-06T14:48:26Z</time>
      </trkpt>
      <trkpt lat="43.63478" lon="6.0343">
        <ele>559.2</ele>
        <time>2023-12-06T14:48:29.768Z</time>
      </trkpt>
      <trkpt lat="43.63481" lon="6.03424">
        <ele>558.9</ele>
        <time>2023-12-06T14:48:34Z</time>
      </trkpt>
      <trkpt lat="43.63484" lon="6.03419">
        <ele>558.6</ele>
        <time>2023-12-06T14:48:37.768Z</time>
      </trkpt>
      <trkpt lat="43.63487" lon="6.03413">
        <ele>558.3</ele>
        <time>2023-12-06T14:48:42Z</time>
      </trkpt>
      <trkpt lat="43.6349" lon="6.03408">
        <ele>558.1</ele>
        <time>2023-12-06T14:48:45.966Z</time>
      </trkpt>
      <trkpt lat="43.63492" lon="6.03402">
        <ele>558</ele>
        <time>2023-12-06T14:48:50Z</time>
      </trkpt>
      <trkpt lat="43.63496" lon="6.03391">
        <ele>557.9</ele>
        <time>2023-12-06T14:48:58Z</time>
      </trkpt>
      <trkpt lat="43.63499" lon="6.03386">
        <ele>557.8</ele>
        <time>2023-12-06T14:49:01.966Z</time>
      </trkpt>
      <trkpt lat="43.63501" lon="6.0338">
        <ele>557.6</ele>
        <time>2023-12-06T14:49:06Z</time>
      </trkpt>
      <trkpt lat="43.63504" lon="6.03374">
        <ele>557.3</ele>
        <time>2023-12-06T14:49:10.254Z</time>
      </trkpt>
      <trkpt lat="43.63507" lon="6.03367">
        <ele>557.1</ele>
        <time>2023-12-06T14:49:15Z</time>
      </trkpt>
      <trkpt lat="43.63509" lon="6.0336">
        <ele>556.9</ele>
        <time>2023-12-06T14:49:19.000Z</time>
      </trkpt>
      <trkpt lat="43.63511" lon="6.03353">
        <ele>556.5</ele>
        <time>2023-12-06T14:49:23Z</time>
      </trkpt>
      <trkpt lat="43.63514" lon="6.03347">
        <ele>556.2</ele>
        <time>2023-12-06T14:49:27.197Z</time>
      </trkpt>
      <trkpt lat="43.63516" lon="6.03341">
        <ele>556</ele>
        <time>2023-12-06T14:49:31Z</time>
      </trkpt>
      <trkpt lat="43.6352" lon="6.0333">
        <ele>555.6</ele>
        <time>2023-12-06T14:49:38Z</time>
      </trkpt>
      <trkpt lat="43.63523" lon="6.03325">
        <ele>555.6</ele>
        <time>2023-12-06T14:49:41.470Z</time>
      </trkpt>
      <trkpt lat="43.63525" lon="6.03319">
        <ele>555.4</ele>
        <time>2023-12-06T14:49:45Z</time>
      </trkpt>
      <trkpt lat="43.63527" lon="6.03313">
        <ele>555.2</ele>
        <time>2023-12-06T14:49:48.739Z</time>
      </trkpt>
      <trkpt lat="43.63529" lon="6.03306">
        <ele>555</ele>
        <time>2023-12-06T14:49:53Z</time>
      </trkpt>
      <trkpt lat="43.63532" lon="6.03301">
        <ele>554.8</ele>
        <time>2023-12-06T14:49:56.768Z</time>
      </trkpt>
      <trkpt lat="43.63535" lon="6.03295">
        <ele>554.6</ele>
        <time>2023-12-06T14:50:01Z</time>
      </trkpt>
      <trkpt lat="43.6354" lon="6.03292">
        <ele>554.5</ele>
        <time>2023-12-06T14:50:06.449Z</time>
      </trkpt>
      <trkpt lat="43.63544" lon="6.03289">
        <ele>554.4</ele>
        <time>2023-12-06T14:50:11Z</time>
      </trkpt>
      <trkpt lat="43.63549" lon="6.03286">
        <ele>554.3</ele>
        <time>2023-12-06T14:50:14.883Z</time>
      </trkpt>
      <trkpt lat="43.63554" lon="6.03282">
        <ele>554.2</ele>
        <time>2023-12-06T14:50:19Z</time>
      </trkpt>
      <trkpt lat="43.63558" lon="6.03277">
        <ele>554</ele>
        <time>2023-12-06T14:50:23.809Z</time>
      </trkpt>
      <trkpt lat="43.63561" lon="6.03272">
        <ele>554</ele>
        <time>2023-12-06T14:50:28Z</time>
      </trkpt>
      <trkpt lat="43.63566" lon="6.03268">
        <ele>553.9</ele>
        <time>2023-12-06T14:50:32.137Z</time>
      </trkpt>
      <trkpt lat="43.6357" lon="6.03263">
        <ele>553.7</ele>
        <time>2023-12-06T14:50:36Z</time>
      </trkpt>
      <trkpt lat="43.63575" lon="6.0326">
        <ele>553.6</ele>
        <time>2023-12-06T14:50:40.359Z</time>
      </trkpt>
      <trkpt lat="43.63579" lon="6.03257">
        <ele>553.4</ele>
        <time>2023-12-06T14:50:44Z</time>
      </trkpt>
      <trkpt lat="43.63583" lon="6.03254">
        <ele>553.1</ele>
        <time>2023-12-06T14:50:47.837Z</time>
      </trkpt>
      <trkpt lat="43.63587" lon="6.0325">
        <ele>552.9</ele>
        <time>2023-12-06T14:50:52Z</time>
      </trkpt>
      <trkpt lat="43.6359" lon="6.03245">
        <ele>552.8</ele>
        <time>2023-12-06T14:50:56.461Z</time>
      </trkpt>
      <trkpt lat="43.63592" lon="6.03239">
        <ele>552.8</ele>
        <time>2023-12-06T14:51:01Z</time>
      </trkpt>
      <trkpt lat="43.63594" lon="6.03233">
        <ele>552.9</ele>
        <time>2023-12-06T14:51:04.739Z</time>
      </trkpt>
      <trkpt lat="43.63596" lon="6.03226">
        <ele>552.9</ele>
        <time>2023-12-06T14:51:09Z</time>
      </trkpt>
      <trkpt lat="43.63598" lon="6.0322">
        <ele>553</ele>
        <time>2023-12-06T14:51:13.000Z</time>
      </trkpt>
      <trkpt lat="43.636" lon="6.03214">
        <ele>552.8</ele>
        <time>2023-12-06T14:51:17Z</time>
      </trkpt>
      <trkpt lat="43.63602" lon="6.03208">
        <ele>552.7</ele>
        <time>2023-12-06T14:51:21.000Z</time>
      </trkpt>
      <trkpt lat="43.63604" lon="6.03202">
        <ele>552.5</ele>
        <time>2023-12-06T14:51:25Z</time>
      </trkpt>
      <trkpt lat="43.63605" lon="6.03196">
        <ele>552.3</ele>
        <time>2023-12-06T14:51:29.211Z</time>
      </trkpt>
      <trkpt lat="43.63605" lon="6.03189">
        <ele>552.2</ele>
        <time>2023-12-06T14:51:34Z</time>
      </trkpt>
      <trkpt lat="43.63607" lon="6.03183">
        <ele>552.1</ele>
        <time>2023-12-06T14:51:37.945Z</time>
      </trkpt>
      <trkpt lat="43.63609" lon="6.03175">
        <ele>552.1</ele>
        <time>2023-12-06T14:51:43Z</time>
      </trkpt>
      <trkpt lat="43.6361" lon="6.03168">
        <ele>552</ele>
        <time>2023-12-06T14:51:48.904Z</time>
      </trkpt>
      <trkpt lat="43.63611" lon="6.03162">
        <ele>552</ele>
        <time>2023-12-06T14:51:54Z</time>
      </trkpt>
      <trkpt lat="43.63612" lon="6.03158">
        <ele>552</ele>
        <time>2023-12-06T14:51:56.405Z</time>
      </trkpt>
      <trkpt lat="43.63612" lon="6.03151">
        <ele>552</ele>
        <time>2023-12-06T14:52:00.384Z</time>
      </trkpt>
      <trkpt lat="43.63611" lon="6.03143">
        <ele>552</ele>
        <time>2023-12-06T14:52:05Z</time>
      </trkpt>
      <trkpt lat="43.63609" lon="6.03136">
        <ele>551.9</ele>
        <time>2023-12-06T14:52:11.371Z</time>
      </trkpt>
      <trkpt lat="43.63606" lon="6.03128">
        <ele>551.7</ele>
        <time>2023-12-06T14:52:19Z</time>
      </trkpt>
      <trkpt lat="43.63605" lon="6.03121">
        <ele>551.5</ele>
        <time>2023-12-06T14:52:24.488Z</time>
      </trkpt>
      <trkpt lat="43.63603" lon="6.03113">
        <ele>551.3</ele>
        <time>2023-12-06T14:52:31Z</time>
      </trkpt>
      <trkpt lat="43.63601" lon="6.03105">
        <ele>551.4</ele>
        <time>2023-12-06T14:52:36.499Z</time>
      </trkpt>
      <trkpt lat="43.63599" lon="6.03097">
        <ele>551.7</ele>
        <time>2023-12-06T14:52:42Z</time>
      </trkpt>
      <trkpt lat="43.63594" lon="6.03088">
        <ele>552.1</ele>
        <time>2023-12-06T14:52:48.999Z</time>
      </trkpt>
      <trkpt lat="43.63589" lon="6.03079">
        <ele>552.5</ele>
        <time>2023-12-06T14:52:56Z</time>
      </trkpt>
      <trkpt lat="43.63586" lon="6.03073">
        <ele>552.5</ele>
        <time>2023-12-06T14:53:01.672Z</time>
      </trkpt>
      <trkpt lat="43.63583" lon="6.03066">
        <ele>552.4</ele>
        <time>2023-12-06T14:53:08Z</time>
      </trkpt>
      <trkpt lat="43.63578" lon="6.03059">
        <ele>552.5</ele>
        <time>2023-12-06T14:53:15.229Z</time>
      </trkpt>
      <trkpt lat="43.63573" lon="6.03051">
        <ele>552.5</ele>
        <time>2023-12-06T14:53:23Z</time>
      </trkpt>
      <trkpt lat="43.63569" lon="6.03045">
        <ele>552.4</ele>
        <time>2023-12-06T14:53:28.254Z</time>
      </trkpt>
      <trkpt lat="43.63565" lon="6.03038">
        <ele>552.3</ele>
        <time>2023-12-06T14:53:34Z</time>
      </trkpt>
      <trkpt lat="43.63562" lon="6.0303">
        <ele>551.9</ele>
        <time>2023-12-06T14:53:38.465Z</time>
      </trkpt>
      <trkpt lat="43.63557" lon="6.03024">
        <ele>551.8</ele>
        <time>2023-12-06T14:53:43Z</time>
      </trkpt>
      <trkpt lat="43.63553" lon="6.03019">
        <ele>551.7</ele>
        <time>2023-12-06T14:53:48.386Z</time>
      </trkpt>
      <trkpt lat="43.63548" lon="6.03013">
        <ele>551.6</ele>
        <time>2023-12-06T14:53:55Z</time>
      </trkpt>
      <trkpt lat="43.63545" lon="6.03008">
        <ele>551.6</ele>
        <time>2023-12-06T14:53:59.432Z</time>
      </trkpt>
      <trkpt lat="43.63541" lon="6.03002">
        <ele>551.6</ele>
        <time>2023-12-06T14:54:05Z</time>
      </trkpt>
      <trkpt lat="43.63538" lon="6.02998">
        <ele>551.7</ele>
        <time>2023-12-06T14:54:08.662Z</time>
      </trkpt>
      <trkpt lat="43.63534" lon="6.02994">
        <ele>551.9</ele>
        <time>2023-12-06T14:54:13Z</time>
      </trkpt>
      <trkpt lat="43.63531" lon="6.0299">
        <ele>552.2</ele>
        <time>2023-12-06T14:54:19.539Z</time>
      </trkpt>
      <trkpt lat="43.63527" lon="6.02985">
        <ele>552.6</ele>
        <time>2023-12-06T14:54:28Z</time>
      </trkpt>
      <trkpt lat="43.63524" lon="6.02981">
        <ele>553.1</ele>
        <time>2023-12-06T14:54:32.359Z</time>
      </trkpt>
      <trkpt lat="43.6352" lon="6.02976">
        <ele>553.5</ele>
        <time>2023-12-06T14:54:38Z</time>
      </trkpt>
      <trkpt lat="43.63517" lon="6.0297">
        <ele>553.8</ele>
        <time>2023-12-06T14:54:42.254Z</time>
      </trkpt>
      <trkpt lat="43.63514" lon="6.02963">
        <ele>554</ele>
        <time>2023-12-06T14:54:47Z</time>
      </trkpt>
      <trkpt lat="43.63511" lon="6.02958">
        <ele>554.2</ele>
        <time>2023-12-06T14:54:50.999Z</time>
      </trkpt>
      <trkpt lat="43.63508" lon="6.02953">
        <ele>554.4</ele>
        <time>2023-12-06T14:54:55Z</time>
      </trkpt>
      <trkpt lat="43.63505" lon="6.02949">
        <ele>554.7</ele>
        <time>2023-12-06T14:54:59.120Z</time>
      </trkpt>
      <trkpt lat="43.63501" lon="6.02945">
        <ele>554.9</ele>
        <time>2023-12-06T14:55:04Z</time>
      </trkpt>
      <trkpt lat="43.63499" lon="6.02939">
        <ele>554.9</ele>
        <time>2023-12-06T14:55:10.178Z</time>
      </trkpt>
      <trkpt lat="43.63496" lon="6.02933">
        <ele>554.9</ele>
        <time>2023-12-06T14:55:17Z</time>
      </trkpt>
      <trkpt lat="43.6349" lon="6.02927">
        <ele>555.4</ele>
        <time>2023-12-06T14:55:24.101Z</time>
      </trkpt>
      <trkpt lat="43.63483" lon="6.02921">
        <ele>555.9</ele>
        <time>2023-12-06T14:55:32Z</time>
      </trkpt>
      <trkpt lat="43.63479" lon="6.02915">
        <ele>556.2</ele>
        <time>2023-12-06T14:55:42.550Z</time>
      </trkpt>
      <trkpt lat="43.63476" lon="6.02911">
        <ele>556.2</ele>
        <time>2023-12-06T14:55:50Z</time>
      </trkpt>
      <trkpt lat="43.63475" lon="6.02907">
        <ele>556</ele>
        <time>2023-12-06T14:55:52.551Z</time>
      </trkpt>
      <trkpt lat="43.6347" lon="6.02901">
        <ele>556.1</ele>
        <time>2023-12-06T14:55:58.069Z</time>
      </trkpt>
      <trkpt lat="43.63465" lon="6.02894">
        <ele>556.3</ele>
        <time>2023-12-06T14:56:04Z</time>
      </trkpt>
      <trkpt lat="43.63459" lon="6.02886">
        <ele>556.7</ele>
        <time>2023-12-06T14:56:10.304Z</time>
      </trkpt>
      <trkpt lat="43.63453" lon="6.02877">
        <ele>556.9</ele>
        <time>2023-12-06T14:56:17Z</time>
      </trkpt>
      <trkpt lat="43.63447" lon="6.02868">
        <ele>557.1</ele>
        <time>2023-12-06T14:56:22.538Z</time>
      </trkpt>
      <trkpt lat="43.63443" lon="6.02864">
        <ele>557.4</ele>
        <time>2023-12-06T14:56:25.626Z</time>
      </trkpt>
      <trkpt lat="43.63439" lon="6.02859">
        <ele>557.6</ele>
        <time>2023-12-06T14:56:29Z</time>
      </trkpt>
      <trkpt lat="43.63434" lon="6.02852">
        <ele>557.7</ele>
        <time>2023-12-06T14:56:34.301Z</time>
      </trkpt>
      <trkpt lat="43.63429" lon="6.02844">
        <ele>557.6</ele>
        <time>2023-12-06T14:56:40Z</time>
      </trkpt>
      <trkpt lat="43.63423" lon="6.02836">
        <ele>557.6</ele>
        <time>2023-12-06T14:56:51Z</time>
      </trkpt>
      <trkpt lat="43.63418" lon="6.02829">
        <ele>557.6</ele>
        <time>2023-12-06T14:56:57.447Z</time>
      </trkpt>
      <trkpt lat="43.63412" lon="6.02821">
        <ele>557.8</ele>
        <time>2023-12-06T14:57:05Z</time>
      </trkpt>
      <trkpt lat="43.63408" lon="6.02814">
        <ele>557.8</ele>
        <time>2023-12-06T14:57:11.219Z</time>
      </trkpt>
      <trkpt lat="43.63404" lon="6.02806">
        <ele>557.9</ele>
        <time>2023-12-06T14:57:18Z</time>
      </trkpt>
      <trkpt lat="43.63401" lon="6.02798">
        <ele>557.9</ele>
        <time>2023-12-06T14:57:22.603Z</time>
      </trkpt>
      <trkpt lat="43.63397" lon="6.02789">
        <ele>557.8</ele>
        <time>2023-12-06T14:57:28Z</time>
      </trkpt>
      <trkpt lat="43.63395" lon="6.02782">
        <ele>557.6</ele>
        <time>2023-12-06T14:57:33.499Z</time>
      </trkpt>
      <trkpt lat="43.63393" lon="6.02775">
        <ele>557.5</ele>
        <time>2023-12-06T14:57:39Z</time>
      </trkpt>
      <trkpt lat="43.6339" lon="6.02769">
        <ele>557.5</ele>
        <time>2023-12-06T14:57:43.726Z</time>
      </trkpt>
      <trkpt lat="43.63387" lon="6.02762">
        <ele>557.6</ele>
        <time>2023-12-06T14:57:49Z</time>
      </trkpt>
      <trkpt lat="43.63384" lon="6.02757">
        <ele>557.8</ele>
        <time>2023-12-06T14:57:52.768Z</time>
      </trkpt>
      <trkpt lat="43.63381" lon="6.02751">
        <ele>557.9</ele>
        <time>2023-12-06T14:57:57Z</time>
      </trkpt>
      <trkpt lat="43.6338" lon="6.02746">
        <ele>557.8</ele>
        <time>2023-12-06T14:58:00.832Z</time>
      </trkpt>
      <trkpt lat="43.63378" lon="6.02739">
        <ele>557.8</ele>
        <time>2023-12-06T14:58:06.391Z</time>
      </trkpt>
      <trkpt lat="43.63376" lon="6.02734">
        <ele>557.9</ele>
        <time>2023-12-06T14:58:10.611Z</time>
      </trkpt>
      <trkpt lat="43.63373" lon="6.02728">
        <ele>557.9</ele>
        <time>2023-12-06T14:58:16Z</time>
      </trkpt>
      <trkpt lat="43.63371" lon="6.02721">
        <ele>558</ele>
        <time>2023-12-06T14:58:19.363Z</time>
      </trkpt>
      <trkpt lat="43.63368" lon="6.02714">
        <ele>558.1</ele>
        <time>2023-12-06T14:58:23Z</time>
      </trkpt>
      <trkpt lat="43.63366" lon="6.02708">
        <ele>558.2</ele>
        <time>2023-12-06T14:58:26.327Z</time>
      </trkpt>
      <trkpt lat="43.63363" lon="6.02702">
        <ele>558.2</ele>
        <time>2023-12-06T14:58:30Z</time>
      </trkpt>
      <trkpt lat="43.6336" lon="6.02697">
        <ele>558.2</ele>
        <time>2023-12-06T14:58:33.297Z</time>
      </trkpt>
      <trkpt lat="43.63357" lon="6.02691">
        <ele>558.4</ele>
        <time>2023-12-06T14:58:37Z</time>
      </trkpt>
      <trkpt lat="43.63355" lon="6.02685">
        <ele>558.5</ele>
        <time>2023-12-06T14:58:40.272Z</time>
      </trkpt>
      <trkpt lat="43.63353" lon="6.02678">
        <ele>558.5</ele>
        <time>2023-12-06T14:58:44Z</time>
      </trkpt>
      <trkpt lat="43.63349" lon="6.02669">
        <ele>558.5</ele>
        <time>2023-12-06T14:58:56Z</time>
      </trkpt>
      <trkpt lat="43.63346" lon="6.02663">
        <ele>558.4</ele>
        <time>2023-12-06T14:59:01.999Z</time>
      </trkpt>
      <trkpt lat="43.63343" lon="6.02657">
        <ele>558.3</ele>
        <time>2023-12-06T14:59:08Z</time>
      </trkpt>
      <trkpt lat="43.6334" lon="6.02651">
        <ele>558.2</ele>
        <time>2023-12-06T14:59:13.199Z</time>
      </trkpt>
      <trkpt lat="43.63337" lon="6.02644">
        <ele>558.1</ele>
        <time>2023-12-06T14:59:19Z</time>
      </trkpt>
      <trkpt lat="43.63334" lon="6.02637">
        <ele>558</ele>
        <time>2023-12-06T14:59:23.293Z</time>
      </trkpt>
      <trkpt lat="43.6333" lon="6.0263">
        <ele>558.2</ele>
        <time>2023-12-06T14:59:28Z</time>
      </trkpt>
      <trkpt lat="43.63326" lon="6.02621">
        <ele>558.5</ele>
        <time>2023-12-06T14:59:37Z</time>
      </trkpt>
      <trkpt lat="43.6332" lon="6.02614">
        <ele>559</ele>
        <time>2023-12-06T14:59:47Z</time>
      </trkpt>
      <trkpt lat="43.63317" lon="6.02608">
        <ele>559.1</ele>
        <time>2023-12-06T14:59:52.192Z</time>
      </trkpt>
      <trkpt lat="43.63313" lon="6.02602">
        <ele>559.2</ele>
        <time>2023-12-06T14:59:58Z</time>
      </trkpt>
      <trkpt lat="43.63308" lon="6.02596">
        <ele>559.3</ele>
        <time>2023-12-06T15:00:04.499Z</time>
      </trkpt>
      <trkpt lat="43.63303" lon="6.0259">
        <ele>559.5</ele>
        <time>2023-12-06T15:00:11Z</time>
      </trkpt>
      <trkpt lat="43.63299" lon="6.02584">
        <ele>559.8</ele>
        <time>2023-12-06T15:00:17.347Z</time>
      </trkpt>
      <trkpt lat="43.63294" lon="6.02577">
        <ele>560.1</ele>
        <time>2023-12-06T15:00:25Z</time>
      </trkpt>
      <trkpt lat="43.6329" lon="6.02572">
        <ele>560.2</ele>
        <time>2023-12-06T15:00:30.386Z</time>
      </trkpt>
      <trkpt lat="43.63285" lon="6.02566">
        <ele>560.3</ele>
        <time>2023-12-06T15:00:37Z</time>
      </trkpt>
      <trkpt lat="43.63279" lon="6.02559">
        <ele>560.2</ele>
        <time>2023-12-06T15:00:43.305Z</time>
      </trkpt>
      <trkpt lat="43.63273" lon="6.02551">
        <ele>560.5</ele>
        <time>2023-12-06T15:00:50Z</time>
      </trkpt>
      <trkpt lat="43.63268" lon="6.02543">
        <ele>560.7</ele>
        <time>2023-12-06T15:00:57.999Z</time>
      </trkpt>
      <trkpt lat="43.63263" lon="6.02535">
        <ele>560.8</ele>
        <time>2023-12-06T15:01:06Z</time>
      </trkpt>
      <trkpt lat="43.63259" lon="6.02525">
        <ele>560.8</ele>
        <time>2023-12-06T15:01:14.891Z</time>
      </trkpt>
      <trkpt lat="43.63254" lon="6.02514">
        <ele>561</ele>
        <time>2023-12-06T15:01:25Z</time>
      </trkpt>
      <trkpt lat="43.6325" lon="6.02504">
        <ele>561</ele>
        <time>2023-12-06T15:01:32.999Z</time>
      </trkpt>
      <trkpt lat="43.63246" lon="6.02494">
        <ele>562</ele>
        <time>2023-12-06T15:01:41Z</time>
      </trkpt>
      <trkpt lat="43.63239" lon="6.02489">
        <ele>562.8</ele>
        <time>2023-12-06T15:01:47.148Z</time>
      </trkpt>
      <trkpt lat="43.63231" lon="6.02484">
        <ele>563.2</ele>
        <time>2023-12-06T15:01:54Z</time>
      </trkpt>
      <trkpt lat="43.63227" lon="6.02477">
        <ele>563.2</ele>
        <time>2023-12-06T15:01:59.999Z</time>
      </trkpt>
      <trkpt lat="43.63223" lon="6.0247">
        <ele>563.1</ele>
        <time>2023-12-06T15:02:06Z</time>
      </trkpt>
      <trkpt lat="43.63219" lon="6.02464">
        <ele>563.7</ele>
        <time>2023-12-06T15:02:11.184Z</time>
      </trkpt>
      <trkpt lat="43.63214" lon="6.02458">
        <ele>564.2</ele>
        <time>2023-12-06T15:02:17Z</time>
      </trkpt>
      <trkpt lat="43.6321" lon="6.02452">
        <ele>564.6</ele>
        <time>2023-12-06T15:02:22.440Z</time>
      </trkpt>
      <trkpt lat="43.63205" lon="6.02445">
        <ele>564.6</ele>
        <time>2023-12-06T15:02:29Z</time>
      </trkpt>
      <trkpt lat="43.63199" lon="6.02436">
        <ele>565</ele>
        <time>2023-12-06T15:02:38Z</time>
      </trkpt>
      <trkpt lat="43.63197" lon="6.02431">
        <ele>565</ele>
        <time>2023-12-06T15:02:41.514Z</time>
      </trkpt>
      <trkpt lat="43.63194" lon="6.02425">
        <ele>565.1</ele>
        <time>2023-12-06T15:02:46Z</time>
      </trkpt>
      <trkpt lat="43.6319" lon="6.02423">
        <ele>565.6</ele>
        <time>2023-12-06T15:02:50.383Z</time>
      </trkpt>
      <trkpt lat="43.63185" lon="6.0242">
        <ele>566.1</ele>
        <time>2023-12-06T15:02:56Z</time>
      </trkpt>
      <trkpt lat="43.63181" lon="6.02417">
        <ele>566.5</ele>
        <time>2023-12-06T15:03:00.316Z</time>
      </trkpt>
      <trkpt lat="43.63177" lon="6.02413">
        <ele>566.9</ele>
        <time>2023-12-06T15:03:05Z</time>
      </trkpt>
      <trkpt lat="43.63174" lon="6.02408">
        <ele>567.2</ele>
        <time>2023-12-06T15:03:09.190Z</time>
      </trkpt>
      <trkpt lat="43.6317" lon="6.02403">
        <ele>567.3</ele>
        <time>2023-12-06T15:03:14Z</time>
      </trkpt>
      <trkpt lat="43.63165" lon="6.024">
        <ele>567.6</ele>
        <time>2023-12-06T15:03:17.600Z</time>
      </trkpt>
      <trkpt lat="43.63159" lon="6.02396">
        <ele>568.1</ele>
        <time>2023-12-06T15:03:22Z</time>
      </trkpt>
      <trkpt lat="43.63153" lon="6.02391">
        <ele>568.6</ele>
        <time>2023-12-06T15:03:34Z</time>
      </trkpt>
      <trkpt lat="43.63148" lon="6.02387">
        <ele>569</ele>
        <time>2023-12-06T15:03:39.573Z</time>
      </trkpt>
      <trkpt lat="43.63142" lon="6.02383">
        <ele>569.5</ele>
        <time>2023-12-06T15:03:46Z</time>
      </trkpt>
      <trkpt lat="43.63137" lon="6.02378">
        <ele>569.7</ele>
        <time>2023-12-06T15:03:52.088Z</time>
      </trkpt>
      <trkpt lat="43.63131" lon="6.02373">
        <ele>569.8</ele>
        <time>2023-12-06T15:03:59Z</time>
      </trkpt>
      <trkpt lat="43.63126" lon="6.0237">
        <ele>569.9</ele>
        <time>2023-12-06T15:04:05.999Z</time>
      </trkpt>
      <trkpt lat="43.63121" lon="6.02367">
        <ele>570</ele>
        <time>2023-12-06T15:04:13Z</time>
      </trkpt>
      <trkpt lat="43.63117" lon="6.02363">
        <ele>569.9</ele>
        <time>2023-12-06T15:04:20.372Z</time>
      </trkpt>
      <trkpt lat="43.63112" lon="6.02359">
        <ele>570</ele>
        <time>2023-12-06T15:04:29Z</time>
      </trkpt>
      <trkpt lat="43.63107" lon="6.02352">
        <ele>570.2</ele>
        <time>2023-12-06T15:04:47Z</time>
      </trkpt>
      <trkpt lat="43.63105" lon="6.02341">
        <ele>570.3</ele>
        <time>2023-12-06T15:05:04Z</time>
      </trkpt>
      <trkpt lat="43.63101" lon="6.02335">
        <ele>570.4</ele>
        <time>2023-12-06T15:05:10.598Z</time>
      </trkpt>
      <trkpt lat="43.63096" lon="6.02329">
        <ele>570.5</ele>
        <time>2023-12-06T15:05:18Z</time>
      </trkpt>
      <trkpt lat="43.63093" lon="6.02321">
        <ele>570.7</ele>
        <time>2023-12-06T15:05:24.667Z</time>
      </trkpt>
      <trkpt lat="43.6309" lon="6.02312">
        <ele>570.8</ele>
        <time>2023-12-06T15:05:32Z</time>
      </trkpt>
      <trkpt lat="43.63088" lon="6.02303">
        <ele>570.9</ele>
        <time>2023-12-06T15:05:37.581Z</time>
      </trkpt>
      <trkpt lat="43.63085" lon="6.02293">
        <ele>571</ele>
        <time>2023-12-06T15:05:44Z</time>
      </trkpt>
      <trkpt lat="43.63083" lon="6.02286">
        <ele>571.1</ele>
        <time>2023-12-06T15:05:49.916Z</time>
      </trkpt>
      <trkpt lat="43.6308" lon="6.02278">
        <ele>571.2</ele>
        <time>2023-12-06T15:05:57Z</time>
      </trkpt>
      <trkpt lat="43.63078" lon="6.02269">
        <ele>571.6</ele>
        <time>2023-12-06T15:06:02.499Z</time>
      </trkpt>
      <trkpt lat="43.63076" lon="6.0226">
        <ele>572</ele>
        <time>2023-12-06T15:06:08Z</time>
      </trkpt>
      <trkpt lat="43.63074" lon="6.02252">
        <ele>572.3</ele>
        <time>2023-12-06T15:06:13.067Z</time>
      </trkpt>
      <trkpt lat="43.63071" lon="6.02243">
        <ele>572.7</ele>
        <time>2023-12-06T15:06:19Z</time>
      </trkpt>
      <trkpt lat="43.63069" lon="6.02236">
        <ele>573</ele>
        <time>2023-12-06T15:06:24.647Z</time>
      </trkpt>
      <trkpt lat="43.63067" lon="6.02228">
        <ele>573.4</ele>
        <time>2023-12-06T15:06:31Z</time>
      </trkpt>
      <trkpt lat="43.63066" lon="6.0222">
        <ele>573.6</ele>
        <time>2023-12-06T15:06:36.999Z</time>
      </trkpt>
      <trkpt lat="43.63065" lon="6.02212">
        <ele>573.7</ele>
        <time>2023-12-06T15:06:43Z</time>
      </trkpt>
      <trkpt lat="43.63063" lon="6.02204">
        <ele>573.7</ele>
        <time>2023-12-06T15:06:48.680Z</time>
      </trkpt>
      <trkpt lat="43.63061" lon="6.02195">
        <ele>573.8</ele>
        <time>2023-12-06T15:06:55Z</time>
      </trkpt>
      <trkpt lat="43.63058" lon="6.02188">
        <ele>573.9</ele>
        <time>2023-12-06T15:07:00.693Z</time>
      </trkpt>
      <trkpt lat="43.63055" lon="6.0218">
        <ele>574</ele>
        <time>2023-12-06T15:07:07Z</time>
      </trkpt>
      <trkpt lat="43.63053" lon="6.02173">
        <ele>573.9</ele>
        <time>2023-12-06T15:07:12.006Z</time>
      </trkpt>
      <trkpt lat="43.6305" lon="6.02165">
        <ele>573.7</ele>
        <time>2023-12-06T15:07:18Z</time>
      </trkpt>
      <trkpt lat="43.63048" lon="6.02158">
        <ele>573.4</ele>
        <time>2023-12-06T15:07:23.006Z</time>
      </trkpt>
      <trkpt lat="43.63045" lon="6.0215">
        <ele>573</ele>
        <time>2023-12-06T15:07:29Z</time>
      </trkpt>
      <trkpt lat="43.63041" lon="6.02143">
        <ele>572.6</ele>
        <time>2023-12-06T15:07:34.949Z</time>
      </trkpt>
      <trkpt lat="43.63036" lon="6.02135">
        <ele>572.2</ele>
        <time>2023-12-06T15:07:42Z</time>
      </trkpt>
      <trkpt lat="43.63032" lon="6.02127">
        <ele>571.7</ele>
        <time>2023-12-06T15:07:48.499Z</time>
      </trkpt>
      <trkpt lat="43.63028" lon="6.02119">
        <ele>571.3</ele>
        <time>2023-12-06T15:07:55Z</time>
      </trkpt>
      <trkpt lat="43.63027" lon="6.02112">
        <ele>571</ele>
        <time>2023-12-06T15:07:59.574Z</time>
      </trkpt>
      <trkpt lat="43.63025" lon="6.02104">
        <ele>570.6</ele>
        <time>2023-12-06T15:08:05Z</time>
      </trkpt>
      <trkpt lat="43.63025" lon="6.02095">
        <ele>570.3</ele>
        <time>2023-12-06T15:08:12.000Z</time>
      </trkpt>
      <trkpt lat="43.63025" lon="6.02086">
        <ele>570</ele>
        <time>2023-12-06T15:08:19Z</time>
      </trkpt>
      <trkpt lat="43.63024" lon="6.02078">
        <ele>569.5</ele>
        <time>2023-12-06T15:08:24.499Z</time>
      </trkpt>
      <trkpt lat="43.63023" lon="6.0207">
        <ele>569</ele>
        <time>2023-12-06T15:08:30Z</time>
      </trkpt>
      <trkpt lat="43.63021" lon="6.02062">
        <ele>568.4</ele>
        <time>2023-12-06T15:08:34.999Z</time>
      </trkpt>
      <trkpt lat="43.63019" lon="6.02054">
        <ele>567.9</ele>
        <time>2023-12-06T15:08:40Z</time>
      </trkpt>
      <trkpt lat="43.63017" lon="6.02046">
        <ele>567.4</ele>
        <time>2023-12-06T15:08:44.734Z</time>
      </trkpt>
      <trkpt lat="43.63015" lon="6.02037">
        <ele>567</ele>
        <time>2023-12-06T15:08:50Z</time>
      </trkpt>
      <trkpt lat="43.63014" lon="6.02029">
        <ele>566.6</ele>
        <time>2023-12-06T15:08:54.999Z</time>
      </trkpt>
      <trkpt lat="43.63013" lon="6.02021">
        <ele>566.3</ele>
        <time>2023-12-06T15:09:00Z</time>
      </trkpt>
      <trkpt lat="43.63014" lon="6.02013">
        <ele>566</ele>
        <time>2023-12-06T15:09:05.000Z</time>
      </trkpt>
      <trkpt lat="43.63015" lon="6.02005">
        <ele>565.6</ele>
        <time>2023-12-06T15:09:10Z</time>
      </trkpt>
      <trkpt lat="43.63017" lon="6.01997">
        <ele>565.2</ele>
        <time>2023-12-06T15:09:15.104Z</time>
      </trkpt>
      <trkpt lat="43.63018" lon="6.01989">
        <ele>564.6</ele>
        <time>2023-12-06T15:09:20Z</time>
      </trkpt>
      <trkpt lat="43.6302" lon="6.01982">
        <ele>564</ele>
        <time>2023-12-06T15:09:25.291Z</time>
      </trkpt>
      <trkpt lat="43.63021" lon="6.01974">
        <ele>563.4</ele>
        <time>2023-12-06T15:09:31Z</time>
      </trkpt>
      <trkpt lat="43.63023" lon="6.01966">
        <ele>562.7</ele>
        <time>2023-12-06T15:09:36.000Z</time>
      </trkpt>
      <trkpt lat="43.63025" lon="6.01958">
        <ele>562.1</ele>
        <time>2023-12-06T15:09:41Z</time>
      </trkpt>
      <trkpt lat="43.63027" lon="6.0195">
        <ele>561.4</ele>
        <time>2023-12-06T15:09:46.000Z</time>
      </trkpt>
      <trkpt lat="43.63029" lon="6.01942">
        <ele>560.8</ele>
        <time>2023-12-06T15:09:51Z</time>
      </trkpt>
      <trkpt lat="43.6303" lon="6.01934">
        <ele>560.2</ele>
        <time>2023-12-06T15:09:56.216Z</time>
      </trkpt>
      <trkpt lat="43.6303" lon="6.01925">
        <ele>559.6</ele>
        <time>2023-12-06T15:10:02Z</time>
      </trkpt>
      <trkpt lat="43.63031" lon="6.01917">
        <ele>559</ele>
        <time>2023-12-06T15:10:06.742Z</time>
      </trkpt>
      <trkpt lat="43.63031" lon="6.01908">
        <ele>558.4</ele>
        <time>2023-12-06T15:10:12Z</time>
      </trkpt>
      <trkpt lat="43.63031" lon="6.01901">
        <ele>557.9</ele>
        <time>2023-12-06T15:10:16.000Z</time>
      </trkpt>
      <trkpt lat="43.63031" lon="6.01894">
        <ele>557.4</ele>
        <time>2023-12-06T15:10:20Z</time>
      </trkpt>
      <trkpt lat="43.6303" lon="6.01888">
        <ele>556.9</ele>
        <time>2023-12-06T15:10:23.705Z</time>
      </trkpt>
      <trkpt lat="43.63029" lon="6.01881">
        <ele>556.4</ele>
        <time>2023-12-06T15:10:28Z</time>
      </trkpt>
      <trkpt lat="43.6303" lon="6.01875">
        <ele>556</ele>
        <time>2023-12-06T15:11:19Z</time>
      </trkpt>
      <trkpt lat="43.63028" lon="6.01867">
        <ele>555.4</ele>
        <time>2023-12-06T15:11:33Z</time>
      </trkpt>
      <trkpt lat="43.63026" lon="6.01857">
        <ele>554.7</ele>
        <time>2023-12-06T15:12:18Z</time>
      </trkpt>
      <trkpt lat="43.63022" lon="6.01848">
        <ele>554</ele>
        <time>2023-12-06T15:14:30Z</time>
      </trkpt>
      <trkpt lat="43.63019" lon="6.01844">
        <ele>553.6</ele>
        <time>2023-12-06T15:14:34.040Z</time>
      </trkpt>
      <trkpt lat="43.63014" lon="6.01835">
        <ele>552.7</ele>
        <time>2023-12-06T15:14:42Z</time>
      </trkpt>
      <trkpt lat="43.63011" lon="6.0183">
        <ele>552.4</ele>
        <time>2023-12-06T15:14:45.769Z</time>
      </trkpt>
      <trkpt lat="43.63008" lon="6.01822">
        <ele>552.3</ele>
        <time>2023-12-06T15:14:51Z</time>
      </trkpt>
      <trkpt lat="43.63004" lon="6.01818">
        <ele>552.1</ele>
        <time>2023-12-06T15:14:57.451Z</time>
      </trkpt>
      <trkpt lat="43.62999" lon="6.01814">
        <ele>551.9</ele>
        <time>2023-12-06T15:15:05Z</time>
      </trkpt>
      <trkpt lat="43.62994" lon="6.01811">
        <ele>551.6</ele>
        <time>2023-12-06T15:15:28Z</time>
      </trkpt>
      <trkpt lat="43.62989" lon="6.0181">
        <ele>551.2</ele>
        <time>2023-12-06T15:15:48Z</time>
      </trkpt>
      <trkpt lat="43.62983" lon="6.01807">
        <ele>550.8</ele>
        <time>2023-12-06T15:15:58Z</time>
      </trkpt>
      <trkpt lat="43.62979" lon="6.01807">
        <ele>550.5</ele>
        <time>2023-12-06T15:16:08.605Z</time>
      </trkpt>
      <trkpt lat="43.62974" lon="6.01806">
        <ele>550.1</ele>
        <time>2023-12-06T15:16:22Z</time>
      </trkpt>
      <trkpt lat="43.62969" lon="6.01804">
        <ele>550</ele>
        <time>2023-12-06T15:16:25.999Z</time>
      </trkpt>
      <trkpt lat="43.62964" lon="6.01802">
        <ele>550</ele>
        <time>2023-12-06T15:16:30Z</time>
      </trkpt>
      <trkpt lat="43.6296" lon="6.01802">
        <ele>549.8</ele>
        <time>2023-12-06T15:16:33.535Z</time>
      </trkpt>
      <trkpt lat="43.62955" lon="6.01801">
        <ele>549.7</ele>
        <time>2023-12-06T15:16:38Z</time>
      </trkpt>
      <trkpt lat="43.62951" lon="6.01802">
        <ele>549.5</ele>
        <time>2023-12-06T15:16:41.587Z</time>
      </trkpt>
      <trkpt lat="43.62946" lon="6.01802">
        <ele>549.3</ele>
        <time>2023-12-06T15:16:46Z</time>
      </trkpt>
      <trkpt lat="43.62938" lon="6.01802">
        <ele>548.8</ele>
        <time>2023-12-06T15:16:54Z</time>
      </trkpt>
      <trkpt lat="43.62934" lon="6.018">
        <ele>548.6</ele>
        <time>2023-12-06T15:16:57.506Z</time>
      </trkpt>
      <trkpt lat="43.62929" lon="6.01797">
        <ele>548.3</ele>
        <time>2023-12-06T15:17:02Z</time>
      </trkpt>
      <trkpt lat="43.62925" lon="6.01793">
        <ele>548.2</ele>
        <time>2023-12-06T15:17:05.405Z</time>
      </trkpt>
      <trkpt lat="43.62919" lon="6.01789">
        <ele>547.8</ele>
        <time>2023-12-06T15:17:10Z</time>
      </trkpt>
      <trkpt lat="43.62915" lon="6.01789">
        <ele>547.5</ele>
        <time>2023-12-06T15:17:13.535Z</time>
      </trkpt>
      <trkpt lat="43.6291" lon="6.01788">
        <ele>547.4</ele>
        <time>2023-12-06T15:17:18Z</time>
      </trkpt>
      <trkpt lat="43.62906" lon="6.01788">
        <ele>547.2</ele>
        <time>2023-12-06T15:17:21.093Z</time>
      </trkpt>
      <trkpt lat="43.62901" lon="6.01787">
        <ele>547.1</ele>
        <time>2023-12-06T15:17:25Z</time>
      </trkpt>
      <trkpt lat="43.62895" lon="6.01785">
        <ele>547</ele>
        <time>2023-12-06T15:17:52Z</time>
      </trkpt>
      <trkpt lat="43.62889" lon="6.01783">
        <ele>546.8</ele>
        <time>2023-12-06T15:17:56.499Z</time>
      </trkpt>
      <trkpt lat="43.62883" lon="6.01781">
        <ele>546.5</ele>
        <time>2023-12-06T15:18:01Z</time>
      </trkpt>
      <trkpt lat="43.62879" lon="6.01778">
        <ele>546.3</ele>
        <time>2023-12-06T15:18:04.965Z</time>
      </trkpt>
      <trkpt lat="43.62874" lon="6.01774">
        <ele>546.1</ele>
        <time>2023-12-06T15:18:10Z</time>
      </trkpt>
      <trkpt lat="43.62869" lon="6.01772">
        <ele>545.8</ele>
        <time>2023-12-06T15:18:14.492Z</time>
      </trkpt>
      <trkpt lat="43.62863" lon="6.01769">
        <ele>545.5</ele>
        <time>2023-12-06T15:18:20Z</time>
      </trkpt>
      <trkpt lat="43.62858" lon="6.01766">
        <ele>545.3</ele>
        <time>2023-12-06T15:18:24.854Z</time>
      </trkpt>
      <trkpt lat="43.62853" lon="6.01762">
        <ele>545.1</ele>
        <time>2023-12-06T15:18:30Z</time>
      </trkpt>
      <trkpt lat="43.62849" lon="6.01761">
        <ele>544.9</ele>
        <time>2023-12-06T15:18:36.242Z</time>
      </trkpt>
      <trkpt lat="43.62844" lon="6.0176">
        <ele>544.6</ele>
        <time>2023-12-06T15:18:44Z</time>
      </trkpt>
      <trkpt lat="43.62839" lon="6.01758">
        <ele>544.3</ele>
        <time>2023-12-06T15:18:50.308Z</time>
      </trkpt>
      <trkpt lat="43.62836" lon="6.01757">
        <ele>544.2</ele>
        <time>2023-12-06T15:18:54.047Z</time>
      </trkpt>
      <trkpt lat="43.62831" lon="6.01748">
        <ele>543.8</ele>
        <time>2023-12-06T15:19:04Z</time>
      </trkpt>
      <trkpt lat="43.62827" lon="6.01744">
        <ele>543.6</ele>
        <time>2023-12-06T15:19:07.059Z</time>
      </trkpt>
      <trkpt lat="43.62829" lon="6.01734">
        <ele>543.8</ele>
        <time>2023-12-06T15:19:11.711Z</time>
      </trkpt>
      <trkpt lat="43.6283" lon="6.01724">
        <ele>543.9</ele>
        <time>2023-12-06T15:19:16.238Z</time>
      </trkpt>
      <trkpt lat="43.62831" lon="6.01718">
        <ele>544.1</ele>
        <time>2023-12-06T15:19:19Z</time>
      </trkpt>
      <trkpt lat="43.62832" lon="6.01707">
        <ele>544.5</ele>
        <time>2023-12-06T15:19:31Z</time>
      </trkpt>
      <trkpt lat="43.62834" lon="6.01697">
        <ele>545</ele>
        <time>2023-12-06T15:19:37.000Z</time>
      </trkpt>
      <trkpt lat="43.62836" lon="6.01687">
        <ele>545.2</ele>
        <time>2023-12-06T15:19:43Z</time>
      </trkpt>
      <trkpt lat="43.62838" lon="6.01677">
        <ele>545.3</ele>
        <time>2023-12-06T15:19:47.777Z</time>
      </trkpt>
      <trkpt lat="43.6284" lon="6.01666">
        <ele>545.5</ele>
        <time>2023-12-06T15:19:53Z</time>
      </trkpt>
      <trkpt lat="43.62842" lon="6.01659">
        <ele>545.6</ele>
        <time>2023-12-06T15:20:07.372Z</time>
      </trkpt>
      <trkpt lat="43.62843" lon="6.01652">
        <ele>545.7</ele>
        <time>2023-12-06T15:20:21Z</time>
      </trkpt>
      <trkpt lat="43.62844" lon="6.01649">
        <ele>545.8</ele>
        <time>2023-12-06T15:21:32Z</time>
      </trkpt>
      <trkpt lat="43.62845" lon="6.01642">
        <ele>545.8</ele>
        <time>2023-12-06T15:21:36.209Z</time>
      </trkpt>
      <trkpt lat="43.62846" lon="6.01634">
        <ele>545.9</ele>
        <time>2023-12-06T15:21:41Z</time>
      </trkpt>
      <trkpt lat="43.62848" lon="6.01627">
        <ele>546</ele>
        <time>2023-12-06T15:21:44.848Z</time>
      </trkpt>
      <trkpt lat="43.62849" lon="6.01619">
        <ele>546.1</ele>
        <time>2023-12-06T15:21:49Z</time>
      </trkpt>
      <trkpt lat="43.62851" lon="6.01612">
        <ele>546.2</ele>
        <time>2023-12-06T15:21:53.106Z</time>
      </trkpt>
      <trkpt lat="43.62852" lon="6.01605">
        <ele>546.3</ele>
        <time>2023-12-06T15:21:57Z</time>
      </trkpt>
      <trkpt lat="43.62854" lon="6.01598">
        <ele>546.5</ele>
        <time>2023-12-06T15:22:00.848Z</time>
      </trkpt>
      <trkpt lat="43.62855" lon="6.0159">
        <ele>546.6</ele>
        <time>2023-12-06T15:22:05Z</time>
      </trkpt>
      <trkpt lat="43.62857" lon="6.01584">
        <ele>546.7</ele>
        <time>2023-12-06T15:22:09.140Z</time>
      </trkpt>
      <trkpt lat="43.62858" lon="6.01578">
        <ele>546.8</ele>
        <time>2023-12-06T15:22:13Z</time>
      </trkpt>
      <trkpt lat="43.62859" lon="6.01571">
        <ele>546.8</ele>
        <time>2023-12-06T15:22:16.742Z</time>
      </trkpt>
      <trkpt lat="43.6286" lon="6.01563">
        <ele>546.9</ele>
        <time>2023-12-06T15:22:21Z</time>
      </trkpt>
      <trkpt lat="43.62862" lon="6.01557">
        <ele>547</ele>
        <time>2023-12-06T15:22:24.845Z</time>
      </trkpt>
      <trkpt lat="43.62863" lon="6.0155">
        <ele>547.2</ele>
        <time>2023-12-06T15:22:29Z</time>
      </trkpt>
      <trkpt lat="43.62865" lon="6.01544">
        <ele>547.4</ele>
        <time>2023-12-06T15:22:32.739Z</time>
      </trkpt>
      <trkpt lat="43.62867" lon="6.01537">
        <ele>547.6</ele>
        <time>2023-12-06T15:22:37Z</time>
      </trkpt>
      <trkpt lat="43.62869" lon="6.0153">
        <ele>547.8</ele>
        <time>2023-12-06T15:22:41.106Z</time>
      </trkpt>
      <trkpt lat="43.6287" lon="6.01523">
        <ele>547.8</ele>
        <time>2023-12-06T15:22:45Z</time>
      </trkpt>
      <trkpt lat="43.62872" lon="6.01517">
        <ele>547.8</ele>
        <time>2023-12-06T15:22:48.739Z</time>
      </trkpt>
      <trkpt lat="43.62874" lon="6.0151">
        <ele>547.8</ele>
        <time>2023-12-06T15:22:53Z</time>
      </trkpt>
      <trkpt lat="43.62875" lon="6.01503">
        <ele>547.6</ele>
        <time>2023-12-06T15:22:56.742Z</time>
      </trkpt>
      <trkpt lat="43.62876" lon="6.01495">
        <ele>547.6</ele>
        <time>2023-12-06T15:23:01Z</time>
      </trkpt>
      <trkpt lat="43.62878" lon="6.01489">
        <ele>547.8</ele>
        <time>2023-12-06T15:23:04.365Z</time>
      </trkpt>
      <trkpt lat="43.62879" lon="6.01482">
        <ele>547.9</ele>
        <time>2023-12-06T15:23:08Z</time>
      </trkpt>
      <trkpt lat="43.62881" lon="6.01476">
        <ele>548.1</ele>
        <time>2023-12-06T15:23:11.845Z</time>
      </trkpt>
      <trkpt lat="43.62882" lon="6.01469">
        <ele>548.1</ele>
        <time>2023-12-06T15:23:16Z</time>
      </trkpt>
      <trkpt lat="43.62883" lon="6.01462">
        <ele>548</ele>
        <time>2023-12-06T15:23:20.000Z</time>
      </trkpt>
      <trkpt lat="43.62884" lon="6.01455">
        <ele>547.9</ele>
        <time>2023-12-06T15:23:24Z</time>
      </trkpt>
      <trkpt lat="43.62886" lon="6.01449">
        <ele>547.8</ele>
        <time>2023-12-06T15:23:27.845Z</time>
      </trkpt>
      <trkpt lat="43.62887" lon="6.01442">
        <ele>547.7</ele>
        <time>2023-12-06T15:23:32Z</time>
      </trkpt>
      <trkpt lat="43.62888" lon="6.01436">
        <ele>547.5</ele>
        <time>2023-12-06T15:23:35.743Z</time>
      </trkpt>
      <trkpt lat="43.62888" lon="6.01429">
        <ele>547.4</ele>
        <time>2023-12-06T15:23:40Z</time>
      </trkpt>
      <trkpt lat="43.6289" lon="6.01423">
        <ele>547.3</ele>
        <time>2023-12-06T15:23:44.000Z</time>
      </trkpt>
      <trkpt lat="43.62892" lon="6.01417">
        <ele>547.3</ele>
        <time>2023-12-06T15:23:48Z</time>
      </trkpt>
      <trkpt lat="43.62893" lon="6.01411">
        <ele>547.4</ele>
        <time>2023-12-06T15:23:53.095Z</time>
      </trkpt>
      <trkpt lat="43.62894" lon="6.01404">
        <ele>547.4</ele>
        <time>2023-12-06T15:23:59Z</time>
      </trkpt>
      <trkpt lat="43.62896" lon="6.01392">
        <ele>547.3</ele>
        <time>2023-12-06T15:24:07Z</time>
      </trkpt>
      <trkpt lat="43.62899" lon="6.01384">
        <ele>547.1</ele>
        <time>2023-12-06T15:24:11.640Z</time>
      </trkpt>
      <trkpt lat="43.62901" lon="6.01376">
        <ele>546.9</ele>
        <time>2023-12-06T15:24:16Z</time>
      </trkpt>
      <trkpt lat="43.62903" lon="6.01368">
        <ele>546.7</ele>
        <time>2023-12-06T15:24:19.853Z</time>
      </trkpt>
      <trkpt lat="43.62904" lon="6.01359">
        <ele>546.5</ele>
        <time>2023-12-06T15:24:24Z</time>
      </trkpt>
      <trkpt lat="43.62905" lon="6.01353">
        <ele>546.3</ele>
        <time>2023-12-06T15:24:27.743Z</time>
      </trkpt>
      <trkpt lat="43.62905" lon="6.01346">
        <ele>546.1</ele>
        <time>2023-12-06T15:24:32Z</time>
      </trkpt>
      <trkpt lat="43.62906" lon="6.0134">
        <ele>545.9</ele>
        <time>2023-12-06T15:24:41.827Z</time>
      </trkpt>
      <trkpt lat="43.62906" lon="6.01333">
        <ele>545.6</ele>
        <time>2023-12-06T15:24:53Z</time>
      </trkpt>
      <trkpt lat="43.62905" lon="6.01326">
        <ele>545.2</ele>
        <time>2023-12-06T15:24:57.209Z</time>
      </trkpt>
      <trkpt lat="43.62904" lon="6.01318">
        <ele>544.7</ele>
        <time>2023-12-06T15:25:02Z</time>
      </trkpt>
      <trkpt lat="43.62902" lon="6.01312">
        <ele>544.3</ele>
        <time>2023-12-06T15:25:05.999Z</time>
      </trkpt>
      <trkpt lat="43.629" lon="6.01306">
        <ele>543.8</ele>
        <time>2023-12-06T15:25:10Z</time>
      </trkpt>
      <trkpt lat="43.62895" lon="6.01302">
        <ele>543.5</ele>
        <time>2023-12-06T15:27:35Z</time>
      </trkpt>
      <trkpt lat="43.62895" lon="6.01304">
        <ele>543.5</ele>
        <time>2023-12-06T15:27:44.761Z</time>
      </trkpt>
      <trkpt lat="43.62894" lon="6.01301">
        <ele>543.4</ele>
        <time>2023-12-06T15:28:00.880Z</time>
      </trkpt>
      <trkpt lat="43.62895" lon="6.01298">
        <ele>543.5</ele>
        <time>2023-12-06T15:28:17Z</time>
      </trkpt>
      <trkpt lat="43.62893" lon="6.01292">
        <ele>543.3</ele>
        <time>2023-12-06T15:28:21.277Z</time>
      </trkpt>
      <trkpt lat="43.6289" lon="6.01286">
        <ele>543.1</ele>
        <time>2023-12-06T15:28:26Z</time>
      </trkpt>
      <trkpt lat="43.62887" lon="6.01282">
        <ele>542.8</ele>
        <time>2023-12-06T15:28:29.487Z</time>
      </trkpt>
      <trkpt lat="43.62883" lon="6.01277">
        <ele>542.6</ele>
        <time>2023-12-06T15:28:34Z</time>
      </trkpt>
      <trkpt lat="43.62879" lon="6.01276">
        <ele>542.4</ele>
        <time>2023-12-06T15:28:41.579Z</time>
      </trkpt>
      <trkpt lat="43.62874" lon="6.01275">
        <ele>542.1</ele>
        <time>2023-12-06T15:28:51Z</time>
      </trkpt>
      <trkpt lat="43.62869" lon="6.01273">
        <ele>541.8</ele>
        <time>2023-12-06T15:28:54.907Z</time>
      </trkpt>
      <trkpt lat="43.62864" lon="6.0127">
        <ele>541.5</ele>
        <time>2023-12-06T15:28:59Z</time>
      </trkpt>
      <trkpt lat="43.6286" lon="6.01269">
        <ele>541.2</ele>
        <time>2023-12-06T15:29:02.069Z</time>
      </trkpt>
      <trkpt lat="43.62855" lon="6.01267">
        <ele>540.9</ele>
        <time>2023-12-06T15:29:06Z</time>
      </trkpt>
      <trkpt lat="43.6285" lon="6.01264">
        <ele>540.5</ele>
        <time>2023-12-06T15:29:09.999Z</time>
      </trkpt>
      <trkpt lat="43.62845" lon="6.01261">
        <ele>540.1</ele>
        <time>2023-12-06T15:29:14Z</time>
      </trkpt>
      <trkpt lat="43.62841" lon="6.01257">
        <ele>539.8</ele>
        <time>2023-12-06T15:29:17.276Z</time>
      </trkpt>
      <trkpt lat="43.62836" lon="6.0125">
        <ele>539.3</ele>
        <time>2023-12-06T15:29:22Z</time>
      </trkpt>
      <trkpt lat="43.62832" lon="6.01247">
        <ele>539</ele>
        <time>2023-12-06T15:29:25.525Z</time>
      </trkpt>
      <trkpt lat="43.62827" lon="6.01243">
        <ele>538.8</ele>
        <time>2023-12-06T15:29:30Z</time>
      </trkpt>
      <trkpt lat="43.62823" lon="6.01241">
        <ele>538.6</ele>
        <time>2023-12-06T15:29:33.263Z</time>
      </trkpt>
      <trkpt lat="43.62818" lon="6.01236">
        <ele>538.4</ele>
        <time>2023-12-06T15:29:38Z</time>
      </trkpt>
      <trkpt lat="43.62814" lon="6.01232">
        <ele>538.2</ele>
        <time>2023-12-06T15:29:41.686Z</time>
      </trkpt>
      <trkpt lat="43.62809" lon="6.01228">
        <ele>538</ele>
        <time>2023-12-06T15:29:46Z</time>
      </trkpt>
      <trkpt lat="43.62802" lon="6.01222">
        <ele>537.7</ele>
        <time>2023-12-06T15:29:54Z</time>
      </trkpt>
      <trkpt lat="43.62798" lon="6.01218">
        <ele>537.4</ele>
        <time>2023-12-06T15:29:57.686Z</time>
      </trkpt>
      <trkpt lat="43.62793" lon="6.01214">
        <ele>537.1</ele>
        <time>2023-12-06T15:30:02Z</time>
      </trkpt>
      <trkpt lat="43.62789" lon="6.0121">
        <ele>536.8</ele>
        <time>2023-12-06T15:30:05.383Z</time>
      </trkpt>
      <trkpt lat="43.62786" lon="6.01204">
        <ele>536.6</ele>
        <time>2023-12-06T15:30:09Z</time>
      </trkpt>
      <trkpt lat="43.62781" lon="6.01199">
        <ele>536.2</ele>
        <time>2023-12-06T15:30:17Z</time>
      </trkpt>
      <trkpt lat="43.62778" lon="6.01191">
        <ele>536.1</ele>
        <time>2023-12-06T15:30:22.528Z</time>
      </trkpt>
      <trkpt lat="43.62774" lon="6.01184">
        <ele>536.1</ele>
        <time>2023-12-06T15:30:28Z</time>
      </trkpt>
      <trkpt lat="43.62771" lon="6.01178">
        <ele>536.1</ele>
        <time>2023-12-06T15:30:33.046Z</time>
      </trkpt>
      <trkpt lat="43.62769" lon="6.01173">
        <ele>536.1</ele>
        <time>2023-12-06T15:30:37Z</time>
      </trkpt>
      <trkpt lat="43.62767" lon="6.01169">
        <ele>536.1</ele>
        <time>2023-12-06T15:30:38.905Z</time>
      </trkpt>
      <trkpt lat="43.62765" lon="6.01164">
        <ele>536.1</ele>
        <time>2023-12-06T15:30:41.144Z</time>
      </trkpt>
      <trkpt lat="43.6276" lon="6.01157">
        <ele>535.9</ele>
        <time>2023-12-06T15:30:45Z</time>
      </trkpt>
      <trkpt lat="43.62756" lon="6.01154">
        <ele>535.8</ele>
        <time>2023-12-06T15:30:49.406Z</time>
      </trkpt>
      <trkpt lat="43.62751" lon="6.0115">
        <ele>535.7</ele>
        <time>2023-12-06T15:30:55Z</time>
      </trkpt>
      <trkpt lat="43.62745" lon="6.01149">
        <ele>535.3</ele>
        <time>2023-12-06T15:30:57.766Z</time>
      </trkpt>
      <trkpt lat="43.6274" lon="6.01148">
        <ele>535</ele>
        <time>2023-12-06T15:31:00.078Z</time>
      </trkpt>
      <trkpt lat="43.62734" lon="6.01145">
        <ele>534.6</ele>
        <time>2023-12-06T15:31:03Z</time>
      </trkpt>
      <trkpt lat="43.62729" lon="6.01142">
        <ele>534.4</ele>
        <time>2023-12-06T15:31:08.182Z</time>
      </trkpt>
      <trkpt lat="43.62729" lon="6.01135">
        <ele>534.5</ele>
        <time>2023-12-06T15:31:13Z</time>
      </trkpt>
      <trkpt lat="43.62732" lon="6.01128">
        <ele>534.7</ele>
        <time>2023-12-06T15:31:19.622Z</time>
      </trkpt>
      <trkpt lat="43.62734" lon="6.01122">
        <ele>534.8</ele>
        <time>2023-12-06T15:31:25Z</time>
      </trkpt>
      <trkpt lat="43.62736" lon="6.01113">
        <ele>535</ele>
        <time>2023-12-06T15:31:42Z</time>
      </trkpt>
      <trkpt lat="43.62737" lon="6.01108">
        <ele>535</ele>
        <time>2023-12-06T15:32:19Z</time>
      </trkpt>
      <trkpt lat="43.62733" lon="6.01101">
        <ele>534.6</ele>
        <time>2023-12-06T15:32:36Z</time>
      </trkpt>
      <trkpt lat="43.62728" lon="6.01098">
        <ele>534.3</ele>
        <time>2023-12-06T15:32:41.215Z</time>
      </trkpt>
      <trkpt lat="43.62723" lon="6.01098">
        <ele>534</ele>
        <time>2023-12-06T15:32:46Z</time>
      </trkpt>
      <trkpt lat="43.62721" lon="6.01095">
        <ele>533.9</ele>
        <time>2023-12-06T15:32:48.934Z</time>
      </trkpt>
      <trkpt lat="43.62718" lon="6.01096">
        <ele>533.7</ele>
        <time>2023-12-06T15:32:52.002Z</time>
      </trkpt>
      <trkpt lat="43.62716" lon="6.011">
        <ele>533.6</ele>
        <time>2023-12-06T15:32:55.500Z</time>
      </trkpt>
      <trkpt lat="43.62714" lon="6.01104">
        <ele>533.4</ele>
        <time>2023-12-06T15:32:59Z</time>
      </trkpt>
      <trkpt lat="43.62712" lon="6.01109">
        <ele>533.3</ele>
        <time>2023-12-06T15:33:05.971Z</time>
      </trkpt>
      <trkpt lat="43.62709" lon="6.01113">
        <ele>533</ele>
        <time>2023-12-06T15:33:13Z</time>
      </trkpt>
      <trkpt lat="43.62707" lon="6.01114">
        <ele>532.9</ele>
        <time>2023-12-06T15:33:30Z</time>
      </trkpt>
      <trkpt lat="43.62703" lon="6.0111">
        <ele>532.6</ele>
        <time>2023-12-06T15:33:37.372Z</time>
      </trkpt>
      <trkpt lat="43.62698" lon="6.01106">
        <ele>532.3</ele>
        <time>2023-12-06T15:33:46Z</time>
      </trkpt>
      <trkpt lat="43.62692" lon="6.01101">
        <ele>531.8</ele>
        <time>2023-12-06T15:33:49.999Z</time>
      </trkpt>
      <trkpt lat="43.62686" lon="6.01096">
        <ele>531.4</ele>
        <time>2023-12-06T15:33:54Z</time>
      </trkpt>
      <trkpt lat="43.62683" lon="6.01092">
        <ele>531.1</ele>
        <time>2023-12-06T15:33:57.487Z</time>
      </trkpt>
      <trkpt lat="43.62679" lon="6.01087">
        <ele>530.9</ele>
        <time>2023-12-06T15:34:02Z</time>
      </trkpt>
      <trkpt lat="43.62674" lon="6.01083">
        <ele>530.5</ele>
        <time>2023-12-06T15:34:05.867Z</time>
      </trkpt>
      <trkpt lat="43.62669" lon="6.01078">
        <ele>530</ele>
        <time>2023-12-06T15:34:10Z</time>
      </trkpt>
      <trkpt lat="43.62666" lon="6.01074">
        <ele>529.5</ele>
        <time>2023-12-06T15:34:13.923Z</time>
      </trkpt>
      <trkpt lat="43.62662" lon="6.01069">
        <ele>529.1</ele>
        <time>2023-12-06T15:34:19Z</time>
      </trkpt>
      <trkpt lat="43.62655" lon="6.01063">
        <ele>528.3</ele>
        <time>2023-12-06T15:34:28Z</time>
      </trkpt>
      <trkpt lat="43.62648" lon="6.01056">
        <ele>527.7</ele>
        <time>2023-12-06T15:34:36Z</time>
      </trkpt>
      <trkpt lat="43.62644" lon="6.01052">
        <ele>527.3</ele>
        <time>2023-12-06T15:34:39.686Z</time>
      </trkpt>
      <trkpt lat="43.62639" lon="6.01048">
        <ele>527</ele>
        <time>2023-12-06T15:34:44Z</time>
      </trkpt>
      <trkpt lat="43.62636" lon="6.01044">
        <ele>526.9</ele>
        <time>2023-12-06T15:34:48.120Z</time>
      </trkpt>
      <trkpt lat="43.62632" lon="6.0104">
        <ele>526.8</ele>
        <time>2023-12-06T15:34:53Z</time>
      </trkpt>
      <trkpt lat="43.62627" lon="6.01036">
        <ele>526.6</ele>
        <time>2023-12-06T15:34:57.499Z</time>
      </trkpt>
      <trkpt lat="43.62622" lon="6.01032">
        <ele>526.4</ele>
        <time>2023-12-06T15:35:02Z</time>
      </trkpt>
      <trkpt lat="43.62618" lon="6.01029">
        <ele>526.2</ele>
        <time>2023-12-06T15:35:05.965Z</time>
      </trkpt>
      <trkpt lat="43.62613" lon="6.01025">
        <ele>526.1</ele>
        <time>2023-12-06T15:35:11Z</time>
      </trkpt>
      <trkpt lat="43.62611" lon="6.01019">
        <ele>526.1</ele>
        <time>2023-12-06T15:35:15.481Z</time>
      </trkpt>
      <trkpt lat="43.62608" lon="6.01012">
        <ele>526.3</ele>
        <time>2023-12-06T15:35:21Z</time>
      </trkpt>
      <trkpt lat="43.62608" lon="6.01005">
        <ele>526.3</ele>
        <time>2023-12-06T15:35:26.624Z</time>
      </trkpt>
      <trkpt lat="43.62608" lon="6.00997">
        <ele>526.4</ele>
        <time>2023-12-06T15:35:33.052Z</time>
      </trkpt>
      <trkpt lat="43.62609" lon="6.00991">
        <ele>526.6</ele>
        <time>2023-12-06T15:35:38Z</time>
      </trkpt>
      <trkpt lat="43.62608" lon="6.00987">
        <ele>526.8</ele>
        <time>2023-12-06T15:35:40.401Z</time>
      </trkpt>
      <trkpt lat="43.62606" lon="6.00983">
        <ele>527.2</ele>
        <time>2023-12-06T15:35:43.160Z</time>
      </trkpt>
      <trkpt lat="43.62602" lon="6.00983">
        <ele>527.6</ele>
        <time>2023-12-06T15:35:46.296Z</time>
      </trkpt>
      <trkpt lat="43.626" lon="6.00983">
        <ele>527.8</ele>
        <time>2023-12-06T15:35:47.864Z</time>
      </trkpt>
      <trkpt lat="43.626" lon="6.00985">
        <ele>527.7</ele>
        <time>2023-12-06T15:35:49Z</time>
      </trkpt>
    </trkseg>
  </trk>
</gpx>